[[{"header":{"parameterUnit":"m.s-1","parameterCategory":1,"la1":30.6,"la2":29.2853,"lo1":-89.7004,"lo2":-87.6739,"dx":0.0162,"dy":0.0183,"nx":112,"ny":82,"refTime":"2023-02-07T06:00:00:Z","depth":0,"parameterNumber":2,"parameterNumberName":"U-component_of_WINDS"},"data":[0.0,0.0,0.0,0.0,0.0,0.0,0.0,0.0,0.0,0.0,0.0,0.0,0.0,0.0,0.0,0.0,0.0,0.0,0.0,0.0,0.0,0.0,0.0,0.0,0.0,0.0,0.0,0.0,0.0,0.0,0.0,0.0,0.0,0.0,0.0,0.0,0.0,0.0,0.0,0.0,0.0,0.0,0.0,0.0,0.0,0.0,0.0,0.0,0.0,0.0,0.0,0.0,0.0,0.0,0.0,0.0,0.0,0.0,0.0,0.0,0.0,0.0,0.0,0.0,0.0,0.0,0.0,0.0,0.0,0.0,0.0,0.0,0.0,0.0,0.0,0.0,0.0,0.0,0.0,0.0,0.0,0.0,0.0,0.0,0.0,0.0,0.0,0.0,0.0,0.0,-1.3578,-1.3415,-1.421,-1.4664,-1.449,-1.5448,-1.6191,-1.6527,0.0,0.0,0.0,0.0,0.0,0.0,0.0,0.0,0.0,0.0,0.0,0.0,0.0,0.0,0.0,0.0,0.0,0.0,0.0,0.0,0.0,0.0,0.0,0.0,0.0,0.0,0.0,0.0,0.0,0.0,0.0,0.0,0.0,0.0,0.0,0.0,0.0,0.0,0.0,0.0,0.0,0.0,0.0,0.0,0.0,0.0,0.0,0.0,0.0,0.0,0.0,0.0,0.0,0.0,0.0,0.0,0.0,0.0,0.0,0.0,0.0,0.0,0.0,0.0,0.0,0.0,0.0,0.0,0.0,0.0,0.0,0.0,0.0,0.0,0.0,0.0,0.0,0.0,0.0,0.0,0.0,0.0,0.0,0.0,0.0,0.0,0.0,0.0,0.0,0.0,0.0,0.0,0.0,0.0,0.0,0.0,0.0,0.0,0.0,0.0,0.0,0.0,0.0,0.0,-1.3075,-1.2118,-1.2997,-1.3613,-1.3613,-1.4077,-1.4789,-1.5786,0.0,0.0,0.0,0.0,0.0,0.0,0.0,0.0,0.0,0.0,0.0,0.0,0.0,0.0,0.0,0.0,0.0,0.0,0.0,0.0,0.0,0.0,0.0,0.0,0.0,0.0,0.0,0.0,0.0,0.0,0.0,0.0,0.0,0.0,0.0,0.0,0.0,0.0,0.0,0.0,0.0,0.0,0.0,0.0,0.0,0.0,0.0,0.0,0.0,0.0,0.0,0.0,0.0,0.0,0.0,0.0,0.0,0.0,0.0,0.0,0.0,0.0,0.0,0.0,0.0,0.0,0.0,0.0,0.0,0.0,0.0,0.0,0.0,0.0,0.0,0.0,0.0,0.0,0.0,0.0,0.0,0.0,0.0,0.0,0.0,0.0,0.0,0.0,0.0,0.0,0.0,0.0,0.0,0.0,0.0,0.0,0.0,0.0,0.0,0.0,0.0,0.0,0.0,-1.2571,-1.2069,-1.1521,-1.2479,-1.2942,-1.2314,-1.2984,-1.3818,-1.4706,-1.5233,0.0,0.0,0.0,0.0,0.0,0.0,0.0,0.0,0.0,0.0,0.0,0.0,0.0,0.0,0.0,0.0,0.0,0.0,0.0,0.0,0.0,0.0,0.0,0.0,0.0,0.0,0.0,0.0,0.0,0.0,0.0,0.0,0.0,0.0,0.0,0.0,0.0,0.0,0.0,0.0,0.0,0.0,0.0,0.0,0.0,0.0,0.0,0.0,0.0,0.0,0.0,0.0,0.0,0.0,0.0,0.0,0.0,0.0,0.0,0.0,0.0,0.0,0.0,0.0,0.0,0.0,0.0,0.0,0.0,0.0,0.0,0.0,0.0,0.0,0.0,0.0,0.0,0.0,0.0,0.0,0.0,0.0,0.0,0.0,0.0,0.0,0.0,0.0,0.0,0.0,0.0,0.0,0.0,0.0,0.0,0.0,0.0,0.0,0.0,0.0,0.0,0.0,-1.117,-1.1127,-1.1127,-1.2015,-1.2266,-1.1392,-1.21,-1.2942,-1.3795,-1.3837,0.0,0.0,0.0,0.0,0.0,0.0,0.0,0.0,0.0,0.0,0.0,0.0,0.0,0.0,0.0,0.0,0.0,0.0,0.0,0.0,0.0,0.0,0.0,0.0,0.0,0.0,0.0,0.0,0.0,0.0,0.0,0.0,0.0,0.0,0.0,0.0,0.0,0.0,0.0,0.0,0.0,0.0,0.0,0.0,0.0,0.0,0.0,0.0,0.0,0.0,0.0,0.0,0.0,0.0,0.0,0.0,0.0,0.0,0.0,0.0,0.0,0.0,0.0,0.0,0.0,0.0,0.0,0.0,0.0,0.0,0.0,0.0,0.0,0.0,0.0,0.0,0.0,0.0,0.0,0.0,0.0,0.0,0.0,0.0,0.0,0.0,0.0,0.0,0.0,0.0,0.0,0.0,0.0,0.0,0.0,0.0,0.0,0.0,0.0,0.0,0.0,0.0,-1.0809,-1.0636,-1.0636,-1.1122,-1.1392,-1.1311,-1.1392,-1.1989,-1.3349,-1.3434,0.0,0.0,0.0,0.0,0.0,0.0,0.0,0.0,0.0,0.0,0.0,0.0,0.0,0.0,0.0,0.0,0.0,0.0,0.0,0.0,0.0,0.0,0.0,0.0,0.0,0.0,0.0,0.0,0.0,0.0,0.0,0.0,0.0,0.0,0.0,0.0,0.0,0.0,0.0,0.0,0.0,0.0,0.0,0.0,0.0,0.0,0.0,0.0,0.0,0.0,0.0,0.0,0.0,0.0,0.0,0.0,0.0,0.0,0.0,0.0,0.0,0.0,0.0,0.0,0.0,0.0,0.0,0.0,0.0,0.0,0.0,0.0,0.0,0.0,0.0,0.0,0.0,0.0,0.0,0.0,0.0,0.0,0.0,0.0,0.0,0.0,0.0,0.0,0.0,0.0,0.0,0.0,0.0,0.0,0.0,0.0,0.0,0.0,0.0,0.0,0.0,0.0,-1.0424,-1.0337,0.0,-1.0771,-1.0992,-1.1262,-1.1305,-1.1731,-1.2711,0.0,0.0,0.0,0.0,0.0,0.0,0.0,0.0,0.0,0.0,0.0,0.0,0.0,0.0,0.0,0.0,0.0,0.0,0.0,0.0,0.0,0.0,0.0,0.0,0.0,0.0,0.0,0.0,0.0,0.0,0.0,0.0,0.0,0.0,0.0,0.0,0.0,0.0,0.0,0.0,0.0,0.0,0.0,0.0,0.0,0.0,0.0,0.0,0.0,0.0,0.0,0.0,0.0,0.0,0.0,0.0,0.0,0.0,0.0,0.0,0.0,0.0,0.0,0.0,0.0,0.0,0.0,0.0,0.0,0.0,0.0,0.0,0.0,0.0,0.0,0.0,0.0,0.0,0.0,0.0,0.0,0.0,0.0,0.0,0.0,0.0,0.0,0.0,0.0,0.0,0.0,0.0,0.0,0.0,0.0,0.0,0.0,0.0,0.0,0.0,0.0,0.0,-1.0207,-0.9951,-0.9864,0.0,-1.0337,-1.0554,-1.0868,-1.0873,-1.1208,-1.1886,0.0,0.0,0.0,0.0,0.0,0.0,0.0,0.0,0.0,0.0,0.0,0.0,0.0,0.0,0.0,0.0,0.0,0.0,0.0,0.0,0.0,0.0,0.0,0.0,0.0,0.0,0.0,0.0,0.0,0.0,0.0,0.0,0.0,0.0,0.0,0.0,0.0,0.0,0.0,0.0,0.0,0.0,0.0,0.0,0.0,0.0,0.0,0.0,0.0,0.0,0.0,0.0,0.0,0.0,0.0,0.0,0.0,0.0,0.0,0.0,0.0,0.0,0.0,0.0,0.0,0.0,0.0,0.0,0.0,0.0,0.0,0.0,0.0,0.0,0.0,0.0,0.0,0.0,0.0,0.0,0.0,0.0,0.0,0.0,0.0,0.0,0.0,0.0,0.0,0.0,0.0,0.0,0.0,0.0,0.0,0.0,0.0,0.0,0.0,0.0,0.0,0.0,-0.9301,-0.9257,-0.9262,-0.9257,-0.9689,-0.9951,-0.9994,-0.9994,-1.025,0.0,0.0,0.0,0.0,0.0,0.0,0.0,0.0,0.0,0.0,0.0,0.0,0.0,0.0,0.0,0.0,0.0,0.0,0.0,0.0,0.0,0.0,0.0,0.0,0.0,0.0,0.0,0.0,0.0,0.0,0.0,0.0,0.0,0.0,0.0,0.0,0.0,0.0,0.0,0.0,0.0,0.0,0.0,0.0,0.0,0.0,0.0,0.0,0.0,0.0,0.0,0.0,0.0,0.0,0.0,0.0,0.0,0.0,0.0,0.0,0.0,0.0,0.0,0.0,0.0,0.0,0.0,0.0,0.0,0.0,0.0,0.0,0.0,0.0,0.0,0.0,0.0,0.0,0.0,0.0,0.0,0.0,0.0,0.0,0.0,0.0,0.0,0.0,0.0,0.0,0.0,0.0,0.0,0.0,0.0,0.0,0.0,0.0,0.0,0.0,0.0,0.0,0.0,-0.8508,-0.7797,-0.7401,-0.7702,-0.7874,-0.8089,-0.8436,-0.8436,-0.8746,-0.9458,0.0,0.0,0.0,0.0,0.0,0.0,0.0,0.0,0.0,0.0,0.0,0.0,0.0,0.0,0.0,0.0,0.0,0.0,0.0,0.0,0.0,0.0,0.0,0.0,0.0,0.0,0.0,0.0,0.0,0.0,0.0,0.0,0.0,0.0,0.0,0.0,0.0,0.0,0.0,0.0,0.0,0.0,0.0,0.0,0.0,0.0,0.0,0.0,0.0,0.0,0.0,0.0,0.0,0.0,0.0,0.0,0.0,0.0,0.0,0.0,0.0,0.0,0.0,0.0,0.0,0.0,0.0,0.0,0.0,0.0,0.0,0.0,0.0,0.0,0.0,0.0,0.0,0.0,0.0,0.0,0.0,0.0,0.0,0.0,0.0,0.0,0.0,0.0,0.0,0.0,0.0,0.0,0.0,0.0,0.0,0.0,0.0,0.0,0.0,0.0,0.0,0.0,-0.7933,-0.7048,-0.6517,-0.6776,-0.682,-0.6949,-0.721,-0.7251,-0.743,-0.7878,0.0,0.0,0.0,0.0,0.0,0.0,0.0,0.0,0.0,0.0,0.0,0.0,0.0,0.0,0.0,0.0,0.0,0.0,0.0,0.0,0.0,0.0,0.0,0.0,0.0,0.0,0.0,0.0,0.0,0.0,0.0,0.0,0.0,0.0,0.0,0.0,0.0,0.0,0.0,0.0,0.0,0.0,0.0,0.0,0.0,0.0,0.0,0.0,0.0,0.0,0.0,0.0,0.0,0.0,0.0,0.0,0.0,0.0,0.0,0.0,0.0,0.0,0.0,0.0,0.0,0.0,0.0,0.0,0.0,0.0,0.0,0.0,0.0,0.0,0.0,0.0,0.0,0.0,0.0,0.0,0.0,0.0,0.0,0.0,0.0,0.0,0.0,0.0,0.0,0.0,0.0,0.0,0.0,0.0,0.0,0.0,0.0,0.0,0.0,0.0,0.0,0.0,-0.733,-0.6624,-0.6097,-0.6064,-0.6064,-0.6064,-0.6064,-0.6097,-0.6091,-0.618,0.0,0.0,0.0,0.0,0.0,0.0,0.0,0.0,0.0,0.0,0.0,0.0,0.0,0.0,0.0,0.0,0.0,0.0,0.0,0.0,0.0,0.0,0.0,0.0,0.0,0.0,0.0,0.0,0.0,0.0,0.0,0.0,0.0,0.0,0.0,0.0,0.0,0.0,0.0,0.0,0.0,0.0,0.0,0.0,0.0,0.0,0.0,0.0,0.0,0.0,0.0,0.0,0.0,0.0,0.0,0.0,0.0,0.0,0.0,0.0,-1.2991,0.0,0.0,0.0,0.0,0.0,0.0,0.0,0.0,0.0,0.0,0.0,0.0,0.0,0.0,0.0,0.0,0.0,0.0,0.0,0.0,0.0,0.0,0.0,0.0,0.0,0.0,0.0,0.0,0.0,0.0,0.0,0.0,0.0,0.0,0.0,0.0,0.0,0.0,0.0,0.0,0.0,-0.6156,-0.4669,-0.3646,-0.3705,-0.3712,-0.3712,-0.3712,-0.3656,-0.3895,-0.4485,-0.46,0.0,0.0,0.0,0.0,0.0,0.0,0.0,0.0,0.0,0.0,0.0,0.0,0.0,0.0,0.0,0.0,0.0,0.0,0.0,0.0,0.0,0.0,0.0,0.0,0.0,0.0,0.0,0.0,0.0,0.0,0.0,0.0,0.0,0.0,0.0,0.0,0.0,0.0,0.0,0.0,0.0,0.0,0.0,0.0,0.0,0.0,0.0,0.0,0.0,0.0,0.0,0.0,0.0,0.0,0.0,0.0,0.0,0.0,0.0,0.0,-1.1966,0.0,0.0,0.0,0.0,0.0,0.0,0.0,0.0,0.0,0.0,0.0,0.0,0.0,0.0,0.0,0.0,0.0,0.0,0.0,0.0,0.0,0.0,0.0,0.0,0.0,0.0,0.0,0.0,0.0,0.0,0.0,0.0,0.0,0.0,0.0,0.0,0.0,0.0,0.0,0.0,-0.532,-0.3933,-0.2967,-0.2998,-0.3002,-0.3002,-0.3002,-0.2972,-0.3094,-0.3511,-0.38,0.0,0.0,0.0,0.0,0.0,0.0,0.0,0.0,0.0,0.0,0.0,0.0,0.0,0.0,0.0,0.0,0.0,0.0,0.0,0.0,0.0,0.0,0.0,0.0,0.0,0.0,0.0,0.0,0.0,0.0,0.0,0.0,0.0,0.0,0.0,0.0,0.0,0.0,0.0,0.0,0.0,0.0,0.0,0.0,0.0,0.0,0.0,0.0,0.0,0.0,0.0,0.0,0.0,-1.0289,-1.0254,-1.0381,-1.0381,-1.0017,-0.9515,-1.041,-1.0786,-1.0814,-1.1614,0.0,0.0,0.0,0.0,0.0,0.0,0.0,0.0,0.0,0.0,0.0,0.0,0.0,0.0,0.0,0.0,0.0,0.0,0.0,0.0,0.0,0.0,0.0,0.0,-0.3987,-0.3718,0.0,0.0,0.0,0.0,0.0,0.0,0.0,0.0,0.0,0.0,0.0,0.0,-0.4536,-0.3493,-0.2733,-0.2743,-0.2744,-0.2696,-0.2551,-0.2543,-0.2489,-0.2345,-0.2858,-0.3088,0.0,0.0,0.0,0.0,0.0,0.0,0.0,0.0,0.0,0.0,0.0,0.0,0.0,0.0,0.0,0.0,0.0,0.0,0.0,0.0,0.0,0.0,0.0,0.0,0.0,0.0,0.0,0.0,0.0,0.0,0.0,0.0,-1.1537,-1.166,0.0,0.0,0.0,0.0,0.0,0.0,0.0,0.0,0.0,0.0,0.0,0.0,0.0,-1.1182,-1.1045,-1.0228,-0.9819,-0.9819,-0.9003,-0.8606,-0.8625,-0.8625,-0.859,-0.8473,-0.8614,0.0,-0.9865,-1.0003,0.0,0.0,0.0,0.0,0.0,0.0,0.0,0.0,0.0,0.0,0.0,0.0,0.0,0.0,0.0,0.0,0.0,0.0,0.0,0.0,0.0,0.0,-0.1857,-0.1947,-0.1902,-0.1856,0.0,-0.3629,-0.5132,-0.5272,-0.5331,0.0,0.0,0.0,0.0,0.0,0.0,0.0,-0.3553,-0.254,-0.1772,-0.1802,-0.1805,-0.1504,-0.0802,-0.074,-0.044,0.0342,0.0288,0.0286,0.0286,0.0333,0.0,0.0,0.0,0.0,0.0,0.0,0.0,0.0,0.0,0.0,0.0,0.0,0.0,0.0,0.0,0.0,0.0,0.0,0.0,0.0,0.0,0.0,0.0,0.0,0.0,0.0,0.0,0.0,0.0,-1.0837,-1.075,-1.0409,-1.1255,-1.1865,0.0,0.0,0.0,0.0,0.0,0.0,0.0,0.0,0.0,-0.9999,-1.0035,-0.9802,-0.9118,-0.8703,-0.852,-0.852,-0.8106,-0.7965,-0.7999,-0.7372,-0.7468,-0.808,-0.6854,-0.724,-0.8783,-0.929,-0.9667,-0.9895,0.0,0.0,0.0,0.0,-0.7707,-0.7523,-0.5832,-0.5223,0.0,-0.4559,0.0,0.0,0.0,0.0,0.0,0.0,0.0,0.0,0.0,0.0,-0.1573,-0.1555,-0.1564,-0.1577,-0.1577,-0.2411,-0.3319,0.0,-0.4168,-0.4484,-0.5159,0.0,0.0,0.0,0.0,-0.2812,-0.2835,-0.2094,-0.1602,-0.1615,-0.1617,-0.1263,-0.0455,-0.01,0.0398,0.1244,0.158,0.1721,0.1721,0.18,0.1645,0.0,0.0,0.0,0.0,0.0,0.0,0.0,0.0,0.0,0.0,0.0,0.0,0.0,0.0,0.0,0.0,0.0,0.0,0.0,0.0,0.0,0.0,0.0,0.0,0.0,0.0,0.0,0.0,-0.9625,-0.9789,-0.9266,-1.0147,-1.0805,0.0,0.0,0.0,0.0,0.0,0.0,-1.0311,-1.0069,-0.949,-0.8522,-0.8564,-0.8021,-0.6891,-0.7423,-0.7423,-0.6891,-0.7181,-0.7183,-0.6982,-0.6198,-0.6347,-0.7083,-0.5477,-0.5727,-0.7217,-0.787,-0.8204,-0.8306,-0.8014,-0.8011,-0.796,-0.63,-0.5779,-0.5731,-0.4532,-0.41,-0.4051,-0.3764,0.0,-0.3668,-0.3668,0.0,0.0,0.0,0.0,-0.2657,-0.2622,-0.2126,-0.1611,-0.1589,-0.16,-0.1617,-0.1617,-0.1617,-0.1853,0.0,-0.2979,-0.3351,-0.4281,0.0,0.0,0.0,0.0,-0.2119,-0.1917,-0.1565,-0.1212,-0.101,-0.101,-0.0606,0.0353,0.0806,0.141,0.2364,0.2818,0.302,0.302,0.3078,0.3006,0.2808,0.0,0.0,0.0,0.0,0.0,0.0,0.0,0.0,0.0,0.0,0.0,0.0,0.0,0.0,0.0,0.0,0.0,0.0,0.0,0.0,0.0,0.0,0.0,0.0,0.0,0.0,0.0,0.0,0.0,-0.8182,-0.9138,0.0,0.0,0.0,0.0,-0.9853,-0.976,-0.9254,-0.8106,-0.7279,-0.6674,-0.6389,-0.6454,-0.6014,-0.4962,-0.6962,-0.6962,-0.4962,-0.5964,-0.5917,-0.4968,-0.4918,-0.492,-0.4974,-0.4824,-0.4874,-0.4974,-0.5014,-0.561,-0.6415,-0.5411,-0.501,-0.501,-0.491,-0.486,-0.471,-0.3613,-0.3264,-0.3115,-0.2063,-0.1763,-0.1763,-0.1763,-0.1763,0.0,0.0,-0.1714,-0.1665,-0.1662,-0.1614,-0.1616,-0.1615,-0.1615,-0.1617,-0.1617,-0.1617,-0.1615,0.0,-0.1714,-0.1715,-0.1765,0.0,-0.1717,-0.1717,-0.1667,-0.1364,-0.0606,-0.0455,-0.0151,0.0605,0.0655,0.1209,0.2518,0.2669,0.3222,0.4531,0.4684,0.4684,0.4684,0.4678,0.4323,0.3565,0.3562,0.0,0.0,0.0,0.0,0.0,0.0,0.0,0.0,0.0,0.0,0.0,0.0,0.0,0.0,0.0,0.0,0.0,0.0,0.0,0.0,0.0,0.0,0.0,0.0,0.0,0.0,0.0,0.0,-0.6948,-0.6774,0.0,-0.6652,-0.706,-0.7113,-0.6577,-0.6531,-0.6339,-0.5907,-0.5598,-0.5421,-0.5322,-0.5359,-0.5177,-0.4824,-0.5577,-0.5577,-0.4824,-0.5177,-0.5177,-0.4774,-0.4074,-0.4124,-0.4724,-0.3323,-0.3524,-0.4674,-0.3324,-0.3775,-0.5327,-0.4924,-0.4824,-0.4724,-0.4024,-0.3775,-0.3624,-0.2521,-0.217,-0.212,-0.1717,-0.1465,-0.1364,-0.1364,-0.1212,-0.1061,-0.1061,-0.1061,-0.1061,-0.1061,-0.1061,-0.1061,-0.1061,-0.1061,-0.1061,-0.1061,-0.0555,-0.005,-0.005,-0.0908,-0.1415,-0.0909,-0.0808,-0.0656,-0.0151,-0.005,0.005,0.0353,0.0655,0.1007,0.1309,0.1611,0.2215,0.3219,0.3624,0.4279,0.5233,0.5636,0.5834,0.5834,0.5834,0.5684,0.5429,0.5379,0.4912,0.0,0.0,0.0,0.0,0.0,0.0,0.0,0.0,0.0,0.0,0.0,0.0,0.0,0.0,0.0,0.0,0.0,0.0,0.0,0.0,0.0,0.0,0.0,0.0,0.0,0.0,-0.5561,-0.5706,-0.5266,-0.4933,-0.4933,-0.499,-0.4977,-0.4824,-0.4824,-0.4824,-0.4824,-0.4474,-0.4275,-0.4275,-0.4275,-0.4074,-0.3723,-0.4425,-0.4425,-0.3723,-0.4074,-0.4074,-0.3674,-0.2973,-0.3022,-0.3624,-0.222,-0.2422,-0.3624,-0.217,-0.2422,-0.3723,-0.3723,-0.3723,-0.3624,-0.2923,-0.2672,-0.2521,-0.1768,-0.1465,-0.1465,-0.1364,-0.1212,-0.1061,-0.1061,-0.096,-0.0808,-0.0808,-0.0808,-0.0707,-0.0353,-0.0252,-0.0151,0.0202,0.0303,0.0303,0.0303,0.0857,0.136,0.136,0.0504,-0.0101,0.0454,0.0555,0.0706,0.126,0.136,0.1461,0.1712,0.2063,0.2364,0.2667,0.302,0.3522,0.4225,0.4655,0.5168,0.5837,0.6223,0.643,0.6387,0.6387,0.6387,0.6387,0.6387,0.6034,0.5334,0.0,0.0,0.0,0.0,0.0,0.0,0.0,0.0,0.0,0.0,0.0,0.0,0.0,0.0,0.0,0.0,0.0,0.0,0.0,0.0,0.0,0.0,0.0,-0.4439,-0.45,-0.4555,-0.4555,-0.4627,-0.4724,-0.4724,-0.4724,-0.4724,-0.4724,-0.4724,-0.4724,-0.4724,-0.3725,-0.3173,-0.3173,-0.3173,-0.2672,-0.1617,-0.3674,-0.3674,-0.1617,-0.2672,-0.2622,-0.1617,-0.1617,-0.1617,-0.1617,-0.1617,-0.1617,-0.1617,-0.1617,-0.1617,-0.1617,-0.1617,-0.1617,-0.1617,-0.1617,-0.1617,-0.1566,-0.1263,-0.1212,-0.1162,-0.0909,-0.0808,-0.0808,-0.0808,-0.0758,-0.0707,-0.0707,-0.0707,-0.0454,0.0605,0.0857,0.1159,0.2165,0.2416,0.2416,0.2416,0.2468,0.2468,0.2468,0.2519,0.252,0.2467,0.2417,0.2469,0.2469,0.247,0.0,0.3527,0.3677,0.3981,0.4742,0.4843,0.5094,0.5596,0.5741,0.6011,0.6406,0.6559,0.657,0.6403,0.6395,0.6389,0.6387,0.6387,0.6387,0.6387,0.0,0.0,0.0,0.0,0.0,0.0,0.0,0.0,0.0,0.0,0.0,0.0,0.0,0.0,0.0,0.0,0.0,0.0,0.0,0.0,0.0,0.0,-0.3839,-0.4607,-0.4031,-0.3598,-0.3598,-0.2914,-0.2471,-0.2471,-0.2471,-0.2471,-0.2471,-0.2471,-0.2471,-0.2471,-0.222,-0.2019,-0.2019,-0.2019,-0.1919,-0.1617,-0.217,-0.217,-0.1617,-0.1919,-0.1868,-0.1617,-0.1617,-0.1617,-0.1617,-0.1617,-0.1617,-0.1617,-0.1617,-0.1617,-0.1617,-0.1617,-0.1617,-0.1617,-0.1617,-0.1465,-0.1263,-0.101,-0.0909,-0.0909,-0.0808,-0.0657,-0.0505,-0.0505,0.0151,0.0958,0.0958,0.1512,0.2166,0.2468,0.2518,0.2619,0.292,0.2971,0.2971,0.2971,0.3661,0.4309,0.4309,0.4979,0.5087,0.3537,0.3358,0.3594,0.4212,0.4366,0.0,0.4717,0.5081,0.5448,0.5659,0.6024,0.6284,0.644,0.6524,0.6579,0.6703,0.6733,0.6738,0.6703,0.6616,0.6476,0.6387,0.6387,0.6387,0.0,0.0,0.0,0.0,0.0,0.0,0.0,0.0,0.0,0.0,0.0,0.0,0.0,0.0,0.0,0.0,0.0,0.0,0.0,0.0,0.0,0.0,-0.2752,-0.2723,-0.3374,-0.2923,-0.2521,-0.2521,-0.1969,-0.1617,-0.1617,-0.1617,-0.1617,-0.1617,-0.1617,-0.1617,-0.1617,-0.1617,-0.1617,-0.1617,-0.1617,-0.1623,-0.1636,-0.1636,-0.1641,-0.1654,-0.1654,-0.1654,-0.1654,-0.1654,-0.1654,-0.1654,-0.1654,-0.1647,-0.1636,-0.1636,-0.1578,0.0,0.0,0.0,0.0,0.0,-0.1162,-0.101,-0.0707,-0.0657,-0.0606,-0.0505,-0.0354,-0.0151,0.0303,0.0958,0.1714,0.2167,0.272,0.3324,0.3778,0.39,0.4072,0.4532,0.4661,0.4686,0.4686,0.5244,0.5751,0.5751,0.633,0.0,0.5165,0.4986,0.5231,0.5706,0.581,0.585,0.585,0.6167,0.6326,0.6326,0.659,0.6801,0.6801,0.685,0.0,0.0,0.0,0.6855,0.6804,0.6733,0.0,0.0,0.0,0.6589,0.6589,0.0,0.0,0.0,0.5329,0.5356,0.0,0.0,0.0,0.0,0.0,0.0,0.0,0.0,0.0,0.0,0.0,0.0,0.0,0.0,0.0,0.0,-0.222,-0.1617,-0.1617,-0.1617,-0.1617,-0.1617,-0.1617,-0.1617,-0.1617,-0.1617,-0.1618,-0.1622,-0.1622,-0.1624,-0.1626,0.0,0.0,0.0,0.0,-0.1639,-0.1719,-0.1719,-0.168,-0.1704,-0.1704,-0.1704,-0.1704,-0.1704,-0.1704,-0.1704,-0.1704,-0.169,-0.1667,-0.1667,-0.1445,-0.1169,-0.1417,-0.1364,-0.1111,-0.0859,-0.0758,-0.0707,-0.0303,0.0,0.0,0.0252,0.0353,0.0555,0.1516,0.1871,0.2174,0.314,0.3497,0.38,0.4764,0.5124,0.5444,0.638,0.6722,0.6801,0.6801,0.6815,0.6823,0.6823,0.6834,0.6842,0.6842,0.6831,0.6823,0.6823,0.6834,0.6842,0.6842,0.6842,0.6842,0.6842,0.0,0.0,0.6842,0.6942,0.6959,0.685,0.705,0.7058,0.6828,0.6926,0.692,0.6801,0.6801,0.6801,0.6801,0.6692,0.6641,0.6586,0.5489,0.5484,0.0,0.0,0.0,0.0,0.0,0.0,0.0,0.0,0.0,0.0,0.0,0.0,0.0,0.0,0.0,-0.1615,-0.1616,-0.1617,-0.1617,-0.1617,-0.1617,-0.1617,-0.1617,-0.1617,-0.1617,-0.1617,-0.1627,-0.1652,-0.1705,-0.1663,-0.1686,-0.1687,-0.1687,-0.1687,-0.1687,-0.169,-0.1696,-0.1696,-0.1699,-0.1704,0.0,0.0,-0.1704,-0.1704,-0.1704,-0.1704,-0.1704,-0.1596,-0.138,-0.138,-0.1165,-0.0895,-0.092,-0.0909,-0.0859,-0.0556,-0.0455,-0.0303,0.0807,0.121,0.1361,0.2267,0.2569,0.2626,0.2971,0.3651,0.0,0.4711,0.5415,0.6153,0.6364,0.6432,0.65,0.6713,0.6785,0.6801,0.6801,0.688,0.695,0.695,0.7024,0.7141,0.7141,0.701,0.695,0.695,0.7027,0.7141,0.7141,0.7141,0.7141,0.7141,0.7141,0.7141,0.7141,0.7163,0.7166,0.7144,0.7825,0.7837,0.701,0.7642,0.7642,0.6804,0.6801,0.6801,0.6801,0.6779,0.6766,0.676,0.6286,0.6184,0.0,0.0,0.0,0.0,0.0,0.0,0.0,0.0,0.0,0.0,0.0,-0.1613,0.0,0.0,-0.1364,-0.1212,-0.1477,-0.1639,-0.1639,-0.1652,-0.1655,-0.1641,-0.1639,-0.1645,-0.1659,-0.166,-0.1667,-0.1682,-0.1683,-0.169,-0.1703,-0.1704,-0.1704,-0.1704,-0.1704,-0.1712,-0.1727,-0.1727,-0.1735,-0.175,-0.175,-0.175,-0.175,-0.1585,-0.1476,-0.1476,-0.1367,-0.1197,-0.1079,-0.091,-0.0747,-0.0586,-0.0471,-0.0467,-0.0571,-0.0312,-0.0208,-0.0104,0.0571,0.0778,0.0985,0.2123,0.2484,0.2747,0.392,0.4663,0.525,0.5829,0.6376,0.6801,0.6801,0.6847,0.6893,0.6893,0.6937,0.6978,0.6978,0.7027,0.7125,0.7125,0.7172,0.721,0.721,0.7163,0.7125,0.7125,0.7174,0.721,0.721,0.721,0.721,0.721,0.7598,0.7875,0.7875,0.8257,0.8478,0.8478,0.8481,0.829,0.7783,0.7777,0.7526,0.7035,0.7411,0.7627,0.7627,0.8044,0.8222,0.8215,0.7995,0.7434,0.0,0.0,0.0,0.0,0.0,0.0,0.0,0.0,-0.111,-0.0454,-0.0354,-0.0455,-0.0606,-0.0912,-0.1117,-0.1067,-0.129,-0.1566,-0.1618,-0.1585,-0.1592,-0.1681,-0.1726,-0.168,-0.1702,-0.1704,-0.1707,-0.1712,-0.1713,-0.1716,-0.1722,-0.1722,-0.1722,-0.1722,-0.1722,-0.1733,-0.1814,-0.1814,-0.1771,-0.1683,-0.1683,-0.1683,-0.1627,-0.1346,-0.1234,-0.1234,-0.0897,-0.0779,-0.0768,-0.0433,-0.0162,0.0054,0.0269,0.0377,0.0323,0.0107,0.016,0.0373,0.0586,0.0799,0.1224,0.2391,0.2762,0.3135,0.4959,0.5552,0.5716,0.665,0.6872,0.6872,0.6872,0.6945,0.7018,0.7018,0.7144,0.721,0.721,0.721,0.721,0.721,0.721,0.721,0.721,0.721,0.721,0.721,0.721,0.721,0.721,0.7321,0.7432,0.7432,0.8205,0.8758,0.8758,0.9412,0.9798,0.9798,0.9309,0.8923,0.8758,0.826,0.7873,0.7706,0.8371,0.8758,0.8758,0.9349,0.9661,0.9661,0.9523,0.8691,-0.1765,-0.1059,-0.0353,-0.0202,-0.0252,-0.0303,0.0,0.0,-0.0151,-0.0051,-0.0253,-0.0354,-0.0152,-0.0512,-0.0777,-0.0518,-0.0736,-0.1011,-0.1277,-0.1066,-0.1126,-0.1737,-0.1716,-0.1701,-0.1704,-0.1704,-0.1715,-0.1797,-0.1799,-0.1811,-0.1783,-0.1785,-0.1785,-0.1785,-0.1785,-0.1787,-0.179,-0.179,-0.1623,-0.1346,-0.1346,-0.1234,-0.1009,-0.0953,-0.0953,-0.0953,-0.0617,-0.0448,-0.0447,-0.0167,0.0613,0.1559,0.1615,0.2227,0.2883,0.0755,0.0692,0.1754,0.271,0.3717,0.478,0.5895,0.6215,0.6288,0.666,0.6802,0.682,0.7086,0.7172,0.7172,0.7172,0.718,0.7191,0.7191,0.7199,0.721,0.721,0.721,0.721,0.721,0.721,0.721,0.721,0.721,0.721,0.721,0.721,0.721,0.721,0.7875,0.8374,0.8374,0.914,0.9633,0.9633,0.9743,0.9798,0.9798,1.041,1.0464,0.9688,1.0296,1.0296,0.9523,0.9633,0.9633,0.9633,0.9724,0.9771,0.9771,0.9753,0.9535,-0.0656,-0.0353,0.0,0.0,0.0,0.0,0.0,0.0,0.0,0.0,-0.0103,-0.0154,0.0,-0.0315,-0.0528,0.0,-0.0642,-0.092,-0.1028,-0.0928,-0.0936,-0.122,-0.0606,-0.0384,-0.0878,-0.0823,-0.044,0.0221,0.0277,0.0278,0.028,0.0616,0.0336,-0.0729,-0.0392,-0.056,-0.129,-0.129,-0.1234,-0.1065,-0.1065,-0.1009,-0.0897,-0.0673,-0.0505,-0.0336,0.0504,0.0896,0.0952,0.1735,0.2407,0.2854,0.2854,0.3132,0.3462,0.248,0.2411,0.2903,0.334,0.3832,0.4435,0.5586,0.597,0.6141,0.6903,0.7139,0.715,0.7196,0.721,0.721,0.721,0.721,0.721,0.721,0.721,0.721,0.721,0.721,0.721,0.721,0.721,0.721,0.721,0.721,0.721,0.721,0.7654,0.7931,0.7931,0.8699,0.9471,0.997,1.0355,1.0739,1.1282,1.1282,1.1282,1.1282,1.1181,1.0962,1.0574,1.0406,1.0351,1.0343,1.046,1.0735,1.1055,1.1605,1.1828,1.1828,1.2205,1.2323,0.0,0.0,0.0,0.0,0.0,0.0,0.0,0.0,0.0,0.0,0.0,0.0,0.0,-0.0161,-0.0269,-0.0269,-0.049,-0.055,-0.033,-0.0222,-0.0112,0.0056,0.1007,0.1399,0.084,0.0784,0.112,0.1958,0.1735,0.1567,0.1567,0.1958,0.1622,0.028,0.1008,0.0839,-0.0392,-0.0056,-0.0056,-0.028,0.0056,0.0224,0.0336,0.0616,0.0784,0.1064,0.1903,0.2295,0.2351,0.3245,0.3804,0.4083,0.4083,0.4306,0.4585,0.4585,0.4362,0.4083,0.4083,0.4306,0.4752,0.5592,0.5873,0.604,0.6932,0.721,0.721,0.721,0.721,0.721,0.721,0.721,0.721,0.721,0.721,0.721,0.721,0.721,0.721,0.721,0.721,0.7276,0.7586,0.7647,0.7715,0.803,0.8821,0.9199,0.8657,0.9631,1.0663,1.1556,1.1671,1.1893,1.2556,1.2611,1.2587,1.2531,1.1927,1.1625,1.1678,1.1118,1.1059,1.1655,1.1882,1.2155,1.2635,1.3246,1.3532,1.3581,1.4008,1.4277,0.0,0.0,0.0,0.0,0.0,0.0,0.0,0.0,0.0,0.0,0.0,0.0,0.0,0.0,0.0,0.0,0.0,0.028,0.1119,0.1511,0.1958,0.2516,0.3131,0.3636,0.0,0.3132,0.2627,0.2683,0.1566,0.0951,0.0951,0.0951,0.0951,0.0895,0.2014,0.2069,0.0839,0.2013,0.2125,0.1231,0.2405,0.3132,0.3469,0.3469,0.3469,0.3469,0.3525,0.3525,0.3525,0.358,0.4308,0.5371,0.5371,0.604,0.7099,0.7099,0.6374,0.5371,0.5371,0.6096,0.7099,0.7154,0.7154,0.7154,0.721,0.721,0.721,0.721,0.721,0.721,0.721,0.721,0.721,0.721,0.721,0.721,0.721,0.721,0.721,0.721,0.721,0.7524,0.8546,0.8738,0.9124,1.0133,1.1027,1.091,0.9041,1.0463,1.2012,1.2932,1.3046,1.3046,1.3103,1.3103,1.3022,1.2828,1.2758,1.2885,1.3217,1.3207,1.3472,1.4056,1.411,1.411,1.4116,1.4169,1.4169,1.4169,1.4169,1.4493,0.0,0.0,0.0,0.0,0.0,0.0,0.0,0.0,0.0,0.0,0.0,0.0,0.0,0.0,0.0,0.0,0.0,0.0112,0.0392,0.056,0.0672,0.0896,0.1791,0.0,0.0,0.0,0.0,0.4975,0.3971,0.3636,0.4416,0.486,0.4528,0.3302,0.4083,0.3916,0.2685,0.3076,0.3132,0.2853,0.3244,0.3469,0.358,0.358,0.358,0.3636,0.4475,0.481,0.4868,0.5646,0.6204,0.6596,0.6596,0.6821,0.721,0.721,0.6932,0.6596,0.6596,0.6877,0.721,0.721,0.721,0.721,0.721,0.721,0.721,0.721,0.721,0.721,0.721,0.721,0.721,0.721,0.721,0.721,0.721,0.7774,0.8283,0.8283,0.8864,0.9457,0.9792,0.986,1.0145,1.1058,1.1463,1.1716,1.1648,1.2214,1.2721,1.3069,1.346,1.3683,1.3683,1.4086,1.4344,1.4271,1.4266,1.4286,1.4431,1.4431,1.4629,1.5008,1.4675,1.4543,1.4713,1.4713,1.4713,1.4767,1.5137,1.5405,0.0,0.0,0.0,0.0,0.0,0.0,0.0,0.0,0.0,0.0,0.0,0.0,0.0,0.0,0.0,0.0,0.0,0.0168,0.056,0.062,0.0792,0.1243,0.2384,0.313,0.0,0.0,0.0,0.5877,0.526,0.5148,0.5929,0.6374,0.604,0.4869,0.5594,0.5481,0.425,0.4697,0.4879,0.4908,0.4994,0.5009,0.5009,0.5009,0.5009,0.5009,0.5808,0.615,0.6207,0.6999,0.7285,0.7285,0.7285,0.7285,0.7285,0.7285,0.7285,0.7271,0.724,0.721,0.721,0.721,0.721,0.721,0.721,0.721,0.721,0.721,0.721,0.721,0.721,0.721,0.721,0.721,0.7243,0.7329,0.7718,0.8326,0.8993,0.9332,1.01,1.0882,1.1289,1.1645,1.2021,1.2322,1.2366,1.2696,1.3389,1.3746,1.3983,1.3983,1.4325,1.4551,1.4551,1.4966,1.5164,1.5134,1.5129,1.5148,1.5287,1.5281,1.5491,1.5882,1.5544,1.5464,1.5582,1.5582,1.5582,1.5637,1.6018,1.6181,0.0,0.0,0.0,0.0,0.0,0.0,0.0,0.0,0.0,0.0,0.0,0.0,0.0,0.0,0.0,0.0,0.0,0.0448,0.1625,0.1819,0.2239,0.0,0.0,0.0,0.0,0.0,0.0,0.5454,0.0,0.5442,0.5497,0.5497,0.5497,0.5497,0.6614,0.6669,0.5497,0.6669,0.723,0.729,0.7462,0.7519,0.7519,0.7519,0.7519,0.7519,0.7519,0.7519,0.7519,0.7519,0.7519,0.7519,0.7519,0.7519,0.7519,0.7519,0.7519,0.7486,0.7255,0.7229,0.7229,0.7229,0.7229,0.7229,0.7229,0.7229,0.7229,0.7229,0.7229,0.7229,0.7229,0.7229,0.7229,0.7229,0.7317,0.7684,0.8641,0.9043,0.9494,1.0412,1.1117,1.1868,1.2916,1.3887,1.4396,1.3808,1.3748,1.3858,1.4068,1.4922,1.5483,1.5483,1.5542,1.5537,1.5537,1.5596,1.5499,1.5326,1.5368,1.5495,1.5829,1.5874,1.6156,1.6718,1.6718,1.6712,1.67,1.67,1.67,1.67,1.67,1.67,0.0,0.0,0.0,0.0,0.0,0.0,0.0,0.0,0.0,0.0,0.0,0.0,0.0,0.0,0.0,0.0,0.0,0.0,0.1766,0.1947,0.0,0.3671,0.0,0.4283,0.4283,0.5163,0.0,0.0,0.5625,0.6032,0.6905,0.6962,0.6962,0.6962,0.7251,0.7251,0.6962,0.7251,0.7442,0.7472,0.7502,0.7519,0.7519,0.7519,0.7519,0.7519,0.7519,0.7519,0.7519,0.7519,0.7519,0.7519,0.7519,0.7519,0.7519,0.7519,0.7519,0.751,0.7448,0.7426,0.7426,0.7426,0.7426,0.7426,0.7426,0.7426,0.7426,0.7426,0.7426,0.7426,0.7426,0.7426,0.7426,0.7426,0.8023,0.8733,0.9469,1.086,1.2216,1.2919,1.3459,1.3878,1.4114,1.4059,1.4043,1.4336,1.4396,1.4212,1.3854,1.4043,1.4167,1.4167,1.458,1.4873,1.4873,1.5294,1.5575,1.551,1.597,1.6236,1.6343,1.6809,1.701,1.6996,1.699,1.6893,1.67,1.67,1.67,1.67,1.67,1.67,0.0,0.0,0.0,0.0,0.0,0.0,0.0,0.0,0.0,0.0,0.0,0.0,0.0,0.0,0.0,0.0,0.0,0.0,0.269,0.2772,0.3091,0.0,0.4416,0.0,0.4794,0.5932,0.665,0.0,0.6568,0.681,0.746,0.7519,0.7519,0.7519,0.7519,0.7519,0.7519,0.7573,0.76,0.76,0.7649,0.7674,0.7674,0.7674,0.7674,0.7674,0.0,0.7674,0.7674,0.7674,0.7674,0.7674,0.7674,0.7674,0.7674,0.7674,0.7674,0.7674,0.7674,0.7674,0.7657,0.7551,0.7519,0.7519,0.7519,0.7519,0.7519,0.7519,0.7519,0.7519,0.7519,0.7519,0.7635,0.8038,0.8835,0.9748,1.0678,1.2047,1.3308,1.4084,1.442,1.4629,1.4629,1.4336,1.4097,1.4217,1.4217,1.4157,1.4102,1.4341,1.4525,1.4525,1.4818,1.517,1.5402,1.5769,1.6129,1.6425,1.6773,1.695,1.695,1.7303,1.7412,1.7267,1.7267,1.7189,1.7044,1.7044,1.7044,1.7044,1.7044,1.7044,0.0207,0.0106,0.0054,0.0219,0.0111,0.0,0.0,0.0112,0.0168,0.0056,0.0,0.0168,0.0056,0.084,0.1623,0.1791,0.0,0.3549,0.396,0.4078,0.414,0.4391,0.543,0.6151,0.6151,0.7194,0.7872,0.7872,0.7682,0.7565,0.7565,0.7565,0.7565,0.7565,0.7565,0.7565,0.7565,0.7671,0.7725,0.7725,0.7823,0.7872,0.7872,0.7872,0.7872,0.7872,0.7872,0.0,0.7872,0.7872,0.7872,0.7872,0.7872,0.7872,0.7872,0.7872,0.7872,0.7872,0.7872,0.7872,0.7837,0.763,0.7565,0.7565,0.7565,0.7565,0.7565,0.7565,0.7565,0.7565,0.7565,0.7565,0.78,0.8669,0.952,1.0558,1.1753,1.2825,1.3784,1.457,1.4689,1.4629,1.4629,1.451,1.4336,1.3863,1.3808,1.4043,1.4629,1.5175,1.5477,1.5596,1.5601,1.5833,1.636,1.636,1.6655,1.7185,1.7303,1.7367,1.7367,1.742,1.7485,1.7485,1.7485,1.7485,1.7485,1.7485,1.7485,1.7485,1.7485,1.7485,0.1212,0.0752,0.0219,0.1222,0.0727,0.0,0.0,0.0784,0.0,0.0,0.0,0.1176,0.0168,0.0168,0.0616,0.1623,0.0,0.0,0.0,0.0,0.5814,0.0,0.0,0.0,0.0,0.0,0.0,0.0,0.0,0.7809,0.7809,0.7809,0.7809,0.7809,0.7809,0.7809,0.7809,0.7831,0.7842,0.7842,0.7861,0.7872,0.7872,0.7872,0.7872,0.7872,0.7872,0.0,0.7872,0.7872,0.7872,0.7872,0.7872,0.7872,0.7872,0.7872,0.7872,0.7872,0.7872,0.7872,0.7864,0.7823,0.7809,0.7809,0.7809,0.7809,0.7809,0.7809,0.7809,0.7809,0.7809,0.7809,0.787,0.8049,0.9395,1.0861,1.1631,1.3581,1.5235,1.5418,1.4992,1.4629,1.4629,1.4217,1.3983,1.4391,1.4451,1.4694,1.5353,1.5051,1.4992,1.5537,1.5601,1.5661,1.5774,1.5774,1.5833,1.5893,1.6419,1.6655,1.6655,1.7185,1.7485,1.7485,1.7485,1.7485,1.7485,1.7485,1.7485,1.7485,1.7485,1.7485,0.1482,0.1401,0.1097,0.1673,0.1847,0.1736,0.1064,0.0,0.0,0.0,0.0,0.0672,0.0112,0.0,0.0,0.0,0.0,0.0,0.0,0.0,0.0,0.0,0.0,0.0,0.0,0.0,0.0,0.0,0.0,0.7872,0.7872,0.7872,0.7872,0.7872,0.7872,0.7872,0.7872,0.7872,0.7872,0.7872,0.7872,0.7872,0.7872,0.7872,0.7872,0.7872,0.7872,0.0,0.7872,0.7872,0.7872,0.7872,0.7872,0.7872,0.7872,0.7872,0.7872,0.7872,0.7872,0.7872,0.7872,0.7872,0.7872,0.7872,0.7872,0.7872,0.7872,0.7872,0.7872,0.7872,0.7872,0.7872,0.8175,0.9147,1.0906,1.2475,1.3062,1.3973,1.4585,1.4585,1.4341,1.4102,1.4102,1.4157,1.4277,1.457,1.4873,1.5353,1.6011,1.5763,1.5585,1.5601,1.5601,1.5715,1.6065,1.6065,1.6248,1.6596,1.6832,1.7009,1.7009,1.7303,1.7485,1.7485,1.7485,1.7485,1.7485,1.7485,1.7485,1.7485,1.7485,1.7485,0.1854,0.2159,0.2256,0.251,0.3078,0.3357,0.2407,0.2407,0.0,0.0,0.0,0.0616,0.0112,0.0,0.0,0.0,0.0,0.0,0.0,0.0,0.0,0.0,0.0,0.0,0.0,0.0,0.0,0.0,0.7872,0.7872,0.7872,0.7872,0.7872,0.7872,0.7872,0.7872,0.7872,0.7872,0.7872,0.7872,0.7872,0.7872,0.7872,0.7872,0.7872,0.7872,0.7872,0.0,0.0,0.7872,0.7872,0.7872,0.7872,0.7872,0.7872,0.7872,0.7872,0.7872,0.7872,0.7872,0.7872,0.7872,0.7872,0.7872,0.7872,0.7872,0.7872,0.7872,0.7872,0.7872,0.7872,0.8055,0.8662,1.0664,1.2298,1.3564,1.4277,1.4043,1.3688,1.3688,1.3808,1.3863,1.3863,1.4396,1.4867,1.4986,1.5472,1.6011,1.6655,1.6714,1.6537,1.607,1.6011,1.6188,1.6655,1.6714,1.695,1.7485,1.7485,1.7485,1.7485,1.7485,1.7485,1.7485,1.7485,1.7485,1.7485,1.7485,1.7485,1.7485,1.7485,1.7485,0.3133,0.3429,0.3685,0.4808,0.4308,0.358,0.3469,0.0,0.0,0.0,0.2574,0.2574,0.0392,0.1009,0.0,0.0,0.0,0.0,0.0,0.0,0.0,0.0,0.0,0.0,0.0,0.0,0.0,0.0,0.7872,0.7872,0.7872,0.7872,0.7872,0.7872,0.7872,0.7872,0.7872,0.7872,0.7872,0.7872,0.7872,0.7872,0.7872,0.7872,0.7872,0.7872,0.7872,0.0,0.0,0.7872,0.7872,0.7872,0.7872,0.7872,0.7872,0.7872,0.7872,0.7872,0.7872,0.7872,0.7872,0.7872,0.7872,0.7872,0.7872,0.7872,0.7872,0.7872,0.7872,0.7872,0.7872,0.8543,0.9636,1.1631,1.2238,1.2599,1.3564,1.3748,1.3688,1.3688,1.4157,1.451,1.451,1.5056,1.5715,1.6236,1.636,1.6655,1.7303,1.7426,1.7361,1.7303,1.7309,1.7367,1.7426,1.7426,1.742,1.7485,1.7485,1.7485,1.7485,1.7485,1.7485,1.7485,1.7485,1.7485,1.7485,1.7485,1.7485,1.7485,1.7485,1.7485,0.4048,0.4631,0.481,0.526,0.5592,0.559,0.4866,0.0,0.0,0.0,0.3748,0.3301,0.2351,0.2574,0.3301,0.0,0.0,0.0,0.0,0.0,0.0,0.0,0.0,0.0,0.0,0.0,0.0,0.7872,0.7872,0.7872,0.7872,0.7872,0.7872,0.7872,0.7872,0.7872,0.7872,0.7872,0.7872,0.7872,0.7872,0.7872,0.7872,0.7872,0.7872,0.7872,0.7872,0.0,0.0,0.7872,0.7872,0.7872,0.7872,0.7872,0.7872,0.7872,0.7872,0.7872,0.7872,0.7872,0.7872,0.7872,0.7872,0.7872,0.7872,0.7872,0.7872,0.7872,0.7872,0.8055,0.8604,0.9876,1.1269,1.1993,1.2659,1.3204,1.3629,1.3688,1.3688,1.3688,1.3863,1.4157,1.457,1.5175,1.5774,1.6419,1.6832,1.7185,1.7485,1.7485,1.7485,1.7485,1.7485,1.7485,1.7485,1.7485,1.7485,1.7485,1.7485,1.7485,1.7485,1.7485,1.7485,1.7485,1.7485,1.7485,1.7485,1.7485,1.7485,1.7485,1.7485,1.7485,0.4773,0.5634,0.604,0.5929,0.6596,0.6985,0.0,0.0,0.0,0.5483,0.47,0.4027,0.3692,0.3916,0.4419,0.0,0.0,0.0,0.0,0.0,0.0,0.0,0.0,0.0,0.0,0.7872,0.7872,0.7872,0.7872,0.7872,0.7872,0.7872,0.7872,0.7872,0.7872,0.7872,0.7872,0.7872,0.7872,0.7872,0.7872,0.7872,0.7872,0.7872,0.7872,0.7872,0.7872,0.0,0.0,0.7872,0.7872,0.7872,0.7872,0.7872,0.7872,0.7872,0.7872,0.7872,0.7872,0.7872,0.7872,0.7872,0.7872,0.7872,0.7872,0.7872,0.7872,0.7872,0.8116,0.8601,0.9819,1.1148,1.2298,1.2599,1.3204,1.3688,1.3688,1.3688,1.3688,1.3688,1.3863,1.4157,1.4813,1.5413,1.607,1.6714,1.7185,1.7485,1.7485,1.7485,1.7485,1.7485,1.7485,1.7485,1.7485,1.7485,1.7485,1.7485,1.7485,1.7485,1.7485,1.7485,1.7485,1.7485,1.7485,1.7485,1.7485,1.7485,1.7485,1.7485,1.7485,1.7485,0.5156,0.6459,0.7493,0.7265,0.721,0.721,0.0,0.0,0.0,0.565,0.5371,0.5035,0.3804,0.4587,0.5371,0.5371,0.0,0.0,0.0,0.0,0.0,0.0,0.0,0.0,0.0,0.7872,0.7872,0.7872,0.7872,0.0,0.7872,0.7872,0.7872,0.7872,0.7872,0.7872,0.7872,0.7872,0.7872,0.7872,0.7872,0.7872,0.7872,0.7872,0.7872,0.7872,0.0,0.0,0.0,0.7872,0.7872,0.7872,0.7872,0.7872,0.7872,0.7872,0.7872,0.7872,0.7872,0.7872,0.7872,0.7872,0.7872,0.7872,0.7872,0.7872,0.7872,0.7872,0.8543,0.9761,1.1692,1.2174,1.2479,1.3444,1.3688,1.3688,1.3688,1.3688,1.3688,1.3688,1.4157,1.4808,1.5477,1.607,1.6714,1.7361,1.7485,1.7485,1.7485,1.7485,1.7485,1.7485,1.7485,1.7485,1.7485,1.7485,1.7485,1.7485,1.7485,1.7485,1.7485,1.7485,1.7485,1.7485,1.7485,1.7485,1.7485,1.7485,1.7485,1.7485,1.7485,1.7485,0.555,0.6843,0.7878,0.7768,0.7768,0.7768,0.7768,0.0,0.7601,0.7046,0.6879,0.671,0.6149,0.6371,0.6652,0.6652,0.6932,0.0,0.0,0.0,0.0,0.0,0.0,0.0,0.0,0.0,0.7872,0.7872,0.7872,0.7872,0.7872,0.7872,0.7872,0.7872,0.7872,0.7872,0.7872,0.7872,0.7872,0.7872,0.7872,0.7872,0.7872,0.7872,0.7872,0.0,0.0,0.0,0.0,0.7872,0.7872,0.7872,0.7872,0.7872,0.7872,0.7872,0.7872,0.7872,0.7872,0.7872,0.7872,0.7872,0.7872,0.7872,0.7872,0.7872,0.8055,0.8665,1.0058,1.139,1.2053,1.2719,1.3324,1.3629,1.3688,1.3688,1.3688,1.3688,1.3808,1.4217,1.4451,1.4927,1.6005,1.636,1.6714,1.7426,1.7485,1.7485,1.7485,1.7485,1.7485,1.7485,1.7485,1.7485,1.7485,1.7485,1.7485,1.7485,1.7485,1.7485,1.7485,1.7485,1.7485,1.7485,1.7485,1.7485,1.7485,1.7485,1.7485,1.7485,1.7485,1.7485,0.0,0.715,0.8156,0.8045,0.7989,0.0,0.0,0.0,0.7934,0.7771,0.7771,0.766,0.7379,0.7324,0.7324,0.721,0.721,0.0,0.0,0.0,0.0,0.0,0.0,0.0,0.0,0.7872,0.7872,0.7872,0.7872,0.7872,0.7872,0.7872,0.7872,0.7872,0.7872,0.7872,0.7872,0.7872,0.7872,0.7872,0.7872,0.7872,0.7872,0.7872,0.7872,0.0,0.0,0.0,0.0,0.7872,0.7872,0.7872,0.7872,0.7872,0.7872,0.7872,0.7872,0.7872,0.7872,0.7872,0.7872,0.7872,0.7872,0.7872,0.7872,0.8175,0.8601,0.9576,1.0967,1.2294,1.2659,1.3204,1.3688,1.3688,1.3688,1.3748,1.3983,1.4043,1.4217,1.4873,1.4992,1.5289,1.6301,1.6478,1.6714,1.7426,1.7485,1.7485,1.7485,1.7485,1.7485,1.7485,1.7485,1.7485,1.7485,1.7485,1.7485,1.7485,1.7485,1.7485,1.7485,1.7485,1.7485,1.7485,1.7485,1.7485,1.7485,1.7485,1.7485,1.7485,1.7485,1.7485,0.0,0.0,0.0,0.0,0.0,0.0,0.0,0.0,0.0,0.0,0.8045,0.7934,0.7662,0.7607,0.7493,0.7265,0.721,0.0,0.0,0.7448,0.0,0.0,0.7872,0.0,0.7872,0.7872,0.7872,0.7872,0.7872,0.7872,0.7872,0.7872,0.7872,0.7872,0.7872,0.7872,0.7872,0.7872,0.7872,0.7872,0.7872,0.7872,0.7872,0.7872,0.7872,0.0,0.0,0.0,0.0,0.7872,0.7872,0.7872,0.7872,0.7872,0.7872,0.7872,0.7872,0.7872,0.7872,0.7872,0.7933,0.7933,0.7933,0.7933,0.7991,0.8665,0.9579,1.0547,1.1511,1.2539,1.3449,1.3688,1.3688,1.3748,1.3748,1.3923,1.451,1.4689,1.4867,1.5537,1.5655,1.5833,1.6478,1.6596,1.6773,1.7426,1.7485,1.7485,1.7485,1.7485,1.7485,1.7485,1.7485,1.7485,1.7485,1.7485,1.7485,1.7485,1.7485,1.7485,1.7485,1.7485,1.7485,1.7485,1.7485,1.7485,1.7485,1.7485,1.7485,1.7485,1.7485,1.7485,0.0,0.0,0.0,0.0,0.0,0.0,0.0,0.0,0.0,0.0,0.0,0.8211,0.7718,0.7607,0.7493,0.7265,0.721,0.7195,0.7317,0.0,0.0,0.7853,0.7872,0.7872,0.7872,0.7872,0.7872,0.7872,0.7872,0.7872,0.7872,0.7872,0.7872,0.7872,0.7872,0.7872,0.7872,0.7872,0.7872,0.7872,0.7872,0.7872,0.7872,0.7872,0.7872,0.0,0.0,0.0,0.7872,0.7872,0.7872,0.7872,0.7872,0.7872,0.7872,0.7872,0.7872,0.7872,0.7872,0.7872,0.7933,0.8183,0.8305,0.8427,0.9153,0.9879,1.0486,1.0728,1.2057,1.3384,1.3629,1.3688,1.3808,1.4277,1.4391,1.4575,1.5235,1.5359,1.5531,1.6183,1.6301,1.6478,1.7126,1.7244,1.7303,1.7485,1.7485,1.7485,1.7485,1.7485,1.7485,1.7485,1.7485,1.7485,1.7485,1.7485,1.7485,1.7485,1.7485,1.7485,1.7485,1.7485,1.7485,1.7485,1.7485,1.7485,1.7485,1.7485,1.7485,1.7485,1.7485,1.7485,0.0,0.0,0.0,0.0,0.0,0.0,0.0,0.0,0.0,0.0,0.0,0.0,0.7881,0.7771,0.7657,0.7265,0.7201,0.0,0.0,0.0,0.7801,0.7864,0.7872,0.7872,0.0,0.7872,0.7872,0.7872,0.7872,0.7872,0.7872,0.7872,0.7872,0.7872,0.7872,0.7872,0.7872,0.7872,0.7872,0.7872,0.7872,0.7872,0.7872,0.7872,0.7872,0.0,0.0,0.0,0.7872,0.7872,0.7994,0.8119,0.7933,0.7994,0.8119,0.7933,0.7872,0.7872,0.7872,0.7994,0.8302,0.9211,0.9511,0.9694,1.077,1.1499,1.1868,1.1511,1.2539,1.3688,1.3688,1.3923,1.4217,1.451,1.4808,1.5229,1.5887,1.6011,1.6183,1.6832,1.695,1.7067,1.7426,1.7485,1.7485,1.7485,1.7485,1.7485,1.7485,1.7485,1.7485,1.7485,1.7485,1.7485,1.7485,1.7485,1.7485,1.7485,1.7485,1.7485,1.7485,1.7485,1.7485,1.7485,1.7485,1.7485,1.7485,1.7485,1.7485,1.7485,1.7485,1.7485,0.0,0.0,0.0,0.0,0.0,0.0,0.0,0.0,0.0,0.0,0.0,0.0,0.0,0.0,0.0,0.0,0.0,0.0,0.7668,0.7799,0.7872,0.7872,0.7872,0.0,0.7872,0.7872,0.7872,0.7872,0.7872,0.7872,0.7872,0.7872,0.7872,0.7872,0.7872,0.7872,0.7872,0.7872,0.7872,0.7872,0.7872,0.7933,0.7994,0.7994,0.7994,0.8055,0.0,0.0,0.7994,0.7933,0.8119,0.8369,0.8058,0.818,0.843,0.8177,0.8055,0.8055,0.8055,0.8241,0.8732,1.0354,1.0891,1.1129,1.256,1.3168,1.3306,1.2835,1.326,1.3868,1.3988,1.4401,1.4808,1.4867,1.5294,1.5893,1.6537,1.6655,1.6832,1.7361,1.7485,1.7485,1.7485,1.7485,1.7485,1.7485,1.7485,1.7485,1.7485,1.7485,1.7485,1.7485,1.7485,1.7485,1.7485,1.7485,1.7485,1.7485,1.7485,1.7485,1.7485,1.7485,1.7485,1.7485,1.7485,1.7485,1.7485,1.7485,1.7485,1.7485,1.7485,1.7485,0.0,0.0,0.0,0.0,0.0,0.0,0.0,0.0,0.0,0.0,0.0,0.0,0.0,0.0,0.0,0.0,0.0,0.754,0.0,0.0,0.7872,0.7872,0.0,0.7872,0.7872,0.7872,0.7872,0.7872,0.7872,0.7872,0.7872,0.7872,0.7872,0.7872,0.7872,0.7872,0.7872,0.7872,0.7872,0.7872,0.7872,0.8058,0.8308,0.8308,0.8488,0.8732,0.0,0.8308,0.8308,0.7994,0.8119,0.8369,0.8369,0.8552,0.8793,0.8793,0.8732,0.8732,0.8732,0.8793,0.9095,1.0714,1.1193,1.1615,1.366,1.4326,1.451,1.4937,1.4753,1.4575,1.518,1.5359,1.5596,1.6065,1.6301,1.6537,1.7185,1.7367,1.7367,1.7485,1.7485,1.7485,1.7485,1.7485,1.7485,1.7485,1.7485,1.7485,1.7485,1.7485,1.7485,1.7485,1.7485,1.7485,1.7485,1.7485,1.7485,1.7485,1.7485,1.7485,1.7485,1.7485,1.7485,1.7485,1.7485,1.7485,1.7485,1.7485,1.7485,1.7485,1.7485,1.7485,0.8691,0.0,0.0,0.0,0.0,0.0,0.0,0.0,0.0,0.0,0.0,0.0,0.0,0.0,0.8313,0.7726,0.0,0.7835,0.7837,0.7839,0.7872,0.0,0.0,0.7872,0.7872,0.7872,0.7872,0.7872,0.8058,0.8183,0.8183,0.8363,0.8424,0.8424,0.8424,0.8424,0.8424,0.8424,0.8363,0.8183,0.8183,0.8366,0.8674,0.8674,0.8732,0.8915,0.0,0.8674,0.8674,0.8488,0.8607,0.8854,0.8732,0.8854,0.9095,0.8976,0.8915,0.8915,0.9034,0.9095,0.9518,1.186,1.2577,1.3057,1.5451,1.5935,1.5763,1.6419,1.5887,1.5235,1.5537,1.5833,1.6183,1.6419,1.6773,1.7126,1.742,1.7485,1.7485,1.7485,1.7485,1.7485,1.7485,1.7485,1.7485,1.7485,1.7485,1.7485,1.7485,1.7485,1.7485,1.7485,1.7485,1.7485,1.7485,1.7485,1.7485,1.7485,1.7485,1.7485,1.7485,1.7485,1.7485,1.7485,1.7485,1.7485,1.7485,1.7485,1.7485,1.7485,1.7485,1.7485,0.8801,0.8885,0.0,0.0,0.0,0.0,0.0,0.0,0.0,0.0,0.0,0.0,0.0,0.8458,0.0,0.8273,0.8287,0.8279,0.816,0.8116,0.8116,0.8116,0.8055,0.8055,0.8116,0.8055,0.8055,0.8116,0.8366,0.8491,0.8491,0.8735,0.8915,0.8915,0.8915,0.8915,0.8915,0.8915,0.8796,0.8491,0.8491,0.8671,0.8976,0.8976,0.9037,0.9095,0.9037,0.8976,0.8976,0.8915,0.9034,0.9278,0.9098,0.9156,0.9396,0.9217,0.9095,0.9159,0.9335,0.964,1.0304,1.2882,1.3904,1.456,1.6826,1.7126,1.6832,1.7361,1.6773,1.6011,1.6011,1.6366,1.6714,1.6714,1.7126,1.7485,1.7485,1.7485,1.7485,1.7485,1.7485,1.7485,1.7485,1.7485,1.7485,1.7485,1.7485,1.7485,1.7485,1.7485,1.7485,1.7485,1.7485,1.7485,1.7485,1.7485,1.7485,1.7485,1.7485,1.7485,1.7485,1.7485,1.7485,1.7485,1.7485,1.7485,1.7485,1.7485,1.7485,1.7485,1.7485,1.7485,0.8801,0.8885,0.0,0.0,0.0,0.0,0.0,0.0,0.0,0.0,0.0,0.0,0.0,0.8373,0.8495,0.8943,0.8819,0.8696,0.8833,0.0,0.8854,0.8854,0.8549,0.8491,0.8793,0.8549,0.8488,0.8793,0.8854,0.8854,0.8854,0.8915,0.8915,0.8915,0.8915,0.8915,0.8915,0.8915,0.8915,0.8854,0.8854,0.9034,0.9278,0.9278,0.9457,0.97,0.9396,0.9278,0.9275,0.8973,0.9034,0.9275,0.9278,0.9457,0.9761,0.9761,0.9761,0.9761,0.9761,1.0543,1.1752,1.3246,1.45,1.5693,1.7067,1.7485,1.7426,1.7479,1.742,1.7361,1.7361,1.7426,1.742,1.742,1.7479,1.7485,1.7485,1.7485,1.7485,1.7485,1.7485,1.7485,1.7485,1.7485,1.7485,1.7485,1.7485,1.7485,1.7485,1.7485,1.7485,1.7485,1.7485,1.7485,1.7485,1.7485,1.7485,1.7485,1.7485,1.7485,1.7485,1.7485,1.7485,1.7485,1.7485,1.7485,1.7485,1.7485,1.7485,1.7485,1.7485,1.7485,0.8801,0.8885,0.0,0.0,0.0,0.0,0.0,0.0,0.0,0.0,0.0,0.0,0.0,0.0,0.9121,0.9103,0.9077,0.9035,0.8909,0.8915,0.8915,0.8915,0.8793,0.8735,0.8915,0.8793,0.8735,0.8915,0.9034,0.9156,0.9156,0.9339,0.946,0.946,0.946,0.946,0.946,0.946,0.946,0.946,0.9278,0.9335,0.964,0.964,0.97,0.9822,0.964,0.964,0.9579,0.9521,0.9518,0.964,0.964,0.97,0.9822,0.9822,0.9822,0.9943,1.0728,1.1329,1.2049,1.4202,1.5213,1.5811,1.712,1.7485,1.7485,1.7485,1.7485,1.7485,1.7485,1.7485,1.7485,1.7485,1.7485,1.7485,1.7485,1.7485,1.7485,1.7485,1.7485,1.7485,1.7485,1.7485,1.7485,1.7485,1.7485,1.7485,1.7485,1.7485,1.7485,1.7485,1.7485,1.7485,1.7485,1.7485,1.7485,1.7485,1.7485,1.7485,1.7485,1.7485,1.7485,1.7485,1.7485,1.7485,1.7485,1.7485,1.7485,1.7485,1.7485,1.7485,0.8798,0.8848,0.0,0.0,0.0,0.0,0.0,0.0,0.0,0.0,0.0,0.0,0.0,0.0,0.0,0.0,0.9392,0.9396,0.9217,0.9156,0.9156,0.9156,0.9098,0.9095,0.9156,0.9098,0.9095,0.9156,0.9335,0.9457,0.0,0.97,0.9822,0.9822,0.9822,0.9822,0.9822,0.9822,0.9822,0.9822,0.9579,0.9579,0.9822,0.9822,0.9822,0.9822,0.9822,0.9822,0.9822,0.9822,0.9822,0.9822,0.9822,0.9822,0.9822,0.9822,0.9822,1.0001,1.1269,1.1993,1.2706,1.4917,1.5871,1.6349,1.7244,1.7485,1.7485,1.7485,1.7485,1.7485,1.7485,1.7485,1.7485,1.7485,1.7485,1.7485,1.7485,1.7485,1.7485,1.7485,1.7485,1.7485,1.7485,1.7485,1.7485,1.7485,1.7485,1.7485,1.7485,1.7485,1.7485,1.7485,1.7485,1.7485,1.7485,1.7485,1.7485,1.7485,1.7485,1.7485,1.7485,1.7485,1.7485,1.7485,1.7485,1.7485,1.7485,1.7485,1.7485,1.7485,1.7485,1.7485,0.8669,0.8821,0.0,0.0,0.0,0.0,0.0,0.0,0.0,0.0,0.0,0.0,0.0,0.0,0.0,0.9798,0.9822,0.9822,0.9822,0.9822,0.9822,0.9822,0.9518,0.9457,0.9761,0.9518,0.9457,0.9758,0.9822,0.9822,0.0,0.9822,0.9822,0.9822,0.9822,0.9822,0.9822,0.9822,0.9822,0.9822,0.9822,0.9822,0.9822,0.9822,0.9822,0.9822,0.9822,0.9822,0.9822,0.9822,0.9822,0.9822,0.9822,0.9822,0.9822,0.9822,0.9822,1.0001,1.1269,1.259,1.3904,1.5213,1.6467,1.7485,1.7485,1.7485,1.7485,1.7485,1.7485,1.7485,1.7485,1.7485,1.7485,1.7485,1.7485,1.7485,1.7485,1.7485,1.7485,1.7485,1.7485,1.7485,1.7485,1.7485,1.7485,1.7485,1.7485,1.7485,1.7485,1.7485,1.7485,1.7485,1.7485,1.7485,1.7485,1.7485,1.7485,1.7485,1.7485,1.7485,1.7485,1.7485,1.7485,1.7485,1.7485,1.7485,1.7485,1.7485,1.7485,1.7485,1.7485,1.7485,0.8722,0.0,0.0,0.0,0.0,0.0,0.0,0.0,0.0,0.0,0.0,0.0,0.0,0.0,0.0,0.9815,0.9822,0.9822,0.9822,0.9822,0.9822,0.9822,0.97,0.97,0.9761,0.97,0.97,0.9822,0.9822,0.0,0.0,0.9822,0.9822,0.9822,0.9822,0.9822,0.9822,0.9822,0.9822,0.9822,0.9822,0.9822,0.9822,0.9822,0.9822,0.9822,0.9822,0.9822,0.9822,0.9822,0.9822,0.9822,0.9822,0.9822,0.9822,0.9822,1.0365,1.1329,1.2651,1.3963,1.5273,1.6526,1.7185,1.7485,1.7485,1.7485,1.7485,1.7485,1.7485,1.7485,1.7485,1.7485,1.7485,1.7485,1.7485,1.7485,1.7485,1.7485,1.7485,1.7485,1.7485,1.7485,1.7485,1.7485,1.7485,1.7485,1.7485,1.7485,1.7485,1.7485,1.7485,1.7485,1.7485,1.7485,1.7485,1.7485,1.7485,1.7485,1.7485,1.7485,1.7485,1.7485,1.7485,1.7485,1.7485,1.7485,1.7485,1.7485,1.7485,1.7485,1.7485,1.7485,0.8634,0.0,0.0,0.0,0.0,0.0,0.0,0.0,0.0,0.0,0.0,0.0,0.0,0.0,0.0,0.9822,0.9822,0.9822,0.9822,0.9822,0.9822,0.9822,0.9822,0.9822,0.9822,0.9822,0.9822,0.9822,0.9822,0.0,0.0,0.9822,0.9822,0.9822,0.9822,0.9822,0.9822,0.9822,0.9822,0.9822,0.9822,0.9822,0.9822,0.9822,0.9822,0.9822,0.9822,0.9822,0.9822,0.9822,0.9822,0.9822,0.9822,0.9822,0.9822,0.9822,1.0607,1.1872,1.3246,1.456,1.5811,1.7067,1.7485,1.7485,1.7485,1.7485,1.7485,1.7485,1.7485,1.7485,1.7485,1.7485,1.7485,1.7485,1.7485,1.7485,1.7485,1.7485,1.7485,1.7485,1.7485,1.7485,1.7485,1.7485,1.7485,1.7485,1.7485,1.7485,1.7485,1.7485,1.7485,1.7485,1.7485,1.7485,1.7485,1.7485,1.7485,1.7485,1.7485,1.7485,1.7485,1.7485,1.7485,1.7485,1.7485,1.7485,1.7485,1.7485,1.7485,1.7485,1.7485,1.7485,0.0,0.0,0.0,0.0,0.0,0.0,0.0,0.0,0.0,0.0,0.0,0.0,0.0,0.9622,0.9822,0.9822,0.9822,0.9822,0.9822,0.9822,0.9822,0.9822,0.9822,0.9822,0.9822,0.9822,0.9822,0.9822,0.0,0.0,0.9822,0.9822,0.9822,0.9822,0.9822,0.9822,0.9822,0.9822,0.9822,0.9822,0.9822,0.9822,0.9822,0.9822,0.9822,0.9822,0.9822,0.9822,0.9822,0.9822,0.9822,0.9822,0.994,1.0001,1.0001,1.0122,1.0963,1.223,1.3426,1.4738,1.5989,1.7126,1.7485,1.7485,1.7485,1.7485,1.7485,1.7485,1.7485,1.7485,1.7485,1.7485,1.7485,1.7485,1.7485,1.7485,1.7485,1.7485,1.7485,1.7485,1.7485,1.7485,1.7485,1.7485,1.7485,1.7485,1.7485,1.7485,1.7485,1.7485,1.7485,1.7485,1.7485,1.7485,1.7485,1.7485,1.7485,1.7485,1.7485,1.7485,1.7485,1.7485,1.7485,1.7485,1.7485,1.7485,1.7485,1.7485,1.7485,1.7485,1.7485,1.7485,0.0,0.9277,0.0,0.0,0.0,0.0,0.0,0.0,0.0,0.0,0.0,0.0,0.9381,0.9622,0.9822,0.9822,0.9822,0.9822,0.9822,0.9822,0.9822,0.9822,0.9822,0.9822,0.9822,0.9822,0.9822,0.9822,0.0,0.0,0.9822,0.9822,0.9822,0.9822,0.9822,0.9822,0.9822,0.9822,0.9822,0.0,0.9822,0.9822,0.9822,0.9822,0.9822,0.9822,0.9822,0.9822,0.9822,0.9822,0.9822,0.9883,1.0906,1.1269,1.145,1.2466,1.366,1.4793,1.5095,1.6048,1.7126,1.742,1.7485,1.7485,1.7485,1.7485,1.7485,1.7485,1.7485,1.7485,1.7485,1.7485,1.7485,1.7485,1.7485,1.7485,1.7485,1.7485,1.7485,1.7485,1.7485,1.7485,1.7485,1.7485,1.7485,1.7485,1.7485,1.7485,1.7485,1.7485,1.7485,1.7485,1.7485,1.7485,1.7485,1.7485,1.7485,1.7485,1.7485,1.7485,1.7485,1.7485,1.7485,1.7485,1.7485,1.7485,1.7485,1.7485,1.7485,1.7485,1.7485,1.7485,0.0,0.0,0.0,0.0,0.0,0.0,0.0,0.0,0.0,0.0,0.9117,0.9354,0.9367,0.9568,0.9741,0.9812,0.9822,0.9822,0.9822,0.9822,0.9822,0.9822,0.9822,0.9822,0.9822,0.9822,0.9822,0.9822,0.0,0.9822,0.9822,0.9822,0.9822,0.9822,0.9822,0.9822,0.9822,0.9822,0.9822,0.9822,0.9822,0.9822,0.9822,0.9822,0.9822,0.9819,1.0422,1.0365,0.9883,1.1144,1.1265,1.0846,1.2169,1.2651,1.2771,1.3426,1.45,1.5575,1.5575,1.6408,1.7485,1.7485,1.7485,1.7485,1.7485,1.7485,1.7485,1.7485,1.7485,1.7485,1.7485,1.7485,1.7485,1.7485,1.7485,1.7485,1.7485,1.7485,1.7485,1.7485,1.7485,1.7485,1.7485,1.7485,1.7485,1.7485,1.7485,1.7485,1.7485,1.7485,1.7485,1.7485,1.7485,1.7485,1.7485,1.7485,1.7485,1.7485,1.7485,1.7485,1.7485,1.7485,1.7485,1.7485,1.7485,1.7485,1.7485,1.7485,1.7485,1.7485,1.7485,1.7485,0.0,0.0,0.0,0.0,0.0,0.0,0.0,0.0,0.0,0.0,0.9328,0.9258,0.9354,0.9507,0.9656,0.9798,0.9822,0.9822,0.9822,0.9822,0.9822,0.9822,0.9822,0.9822,0.9822,0.9822,0.9822,0.0,0.0,0.9822,0.9822,0.9822,0.9822,0.9822,0.9822,0.9822,0.9822,0.9822,0.9822,0.9822,0.9822,0.9822,0.9822,0.9822,0.994,1.0183,1.1269,1.1209,1.0664,1.2826,1.3066,1.2169,1.3485,1.4023,1.4023,1.4262,1.5035,1.593,1.593,1.6644,1.7485,1.7485,1.7485,1.7485,1.7485,1.7485,1.7485,1.7485,1.7485,1.7485,1.7485,1.7485,1.7485,1.7485,1.7485,1.7485,1.7485,1.7485,1.7485,1.7485,1.7485,1.7485,1.7485,1.7485,1.7485,1.7485,1.7485,1.7485,1.7485,1.7485,1.7485,1.7485,1.7485,1.7485,1.7485,1.7485,1.7485,1.7485,1.7485,1.7485,1.7485,1.7485,1.7485,1.7485,1.7485,1.7485,1.7485,1.7485,1.7485,1.7485,1.7485,1.7485,0.0,0.0,0.0,0.0,0.0,0.0,0.0,0.0,0.0,0.0,1.0488,0.9258,0.9354,0.9507,0.9656,0.9798,0.9822,0.9822,0.9822,0.9822,0.9822,0.9822,0.9822,0.9822,0.9822,0.9822,0.9822,0.0,0.9822,0.9822,0.9822,0.9822,0.9822,0.9822,0.9822,0.9822,0.9822,0.9822,0.9822,0.9822,0.9822,0.9822,0.9822,0.9822,1.0425,1.145,1.1631,1.223,1.3186,1.3545,1.3605,1.3545,1.4857,1.5337,1.5451,1.6585,1.7126,1.7244,1.7244,1.7361,1.7485,1.7485,1.7485,1.7485,1.7485,1.7485,1.7485,1.7485,1.7485,1.7485,1.7485,1.7485,1.7485,1.7485,1.7485,1.7485,1.7485,1.7485,1.7485,1.7485,1.7485,1.7485,1.7485,1.7485,1.7485,1.7485,1.7485,1.7485,1.7485,1.7485,1.7485,1.7485,1.7485,1.7485,1.7485,1.7485,1.7485,1.7485,1.7485,1.7485,1.7485,1.7485,1.7485,1.7485,1.7485,1.7485,1.7485,1.7485,1.7485,1.7485,1.7485,1.7485,0.0,0.0,0.0,0.0,0.0,0.0,0.0,0.0,1.1814,1.2304,1.1667,1.0879,1.0425,1.0418,1.0318,0.9845,0.9822,0.9822,0.9822,0.9822,0.9822,0.9822,0.9822,0.9822,0.9822,0.9822,0.9822,0.0,0.9822,0.9822,0.9822,0.9822,0.9822,0.9822,0.9822,0.9822,0.9822,0.9822,0.9822,0.9822,0.9822,0.9822,0.9819,1.0543,1.0785,1.0728,1.2169,1.2706,1.2771,1.4917,1.5391,1.4917,1.6166,1.6644,1.6703,1.7303,1.7485,1.7485,1.7485,1.7485,1.7485,1.7485,1.7485,1.7485,1.7485,1.7485,1.7485,1.7485,1.7485,1.7485,1.7485,1.7485,1.7485,1.7485,1.7485,1.7485,1.7485,1.7485,1.7485,1.7485,1.7485,1.7485,1.7485,1.7485,1.7485,1.7485,1.7485,1.7485,1.7485,1.7485,1.7485,1.7485,1.7485,1.7485,1.7485,1.7485,1.7485,1.7485,1.7485,1.7485,1.7485,1.7485,1.7485,1.7485,1.7485,1.7485,1.7485,1.7485,1.7485,1.7485,1.7485,1.7485,0.0,0.0,0.0,0.0,0.0,0.0,0.0,0.0,1.296,0.0,1.3068,1.2695,1.2047,1.1752,1.1255,1.0317,1.0215,1.0183,0.9822,0.9822,0.9822,0.9822,0.9822,0.9822,0.9822,0.9822,0.9822,0.0,0.9822,0.9822,0.9822,0.9822,0.9822,0.9822,0.9822,0.9822,0.9822,0.9822,0.9822,0.9822,0.9822,0.994,1.0304,1.1269,1.139,1.0902,1.3181,1.3784,1.3421,1.6284,1.6944,1.6172,1.7126,1.7485,1.7485,1.7485,1.7485,1.7485,1.7485,1.7485,1.7485,1.7485,1.7485,1.7485,1.7485,1.7485,1.7485,1.7485,1.7485,1.7485,1.7485,1.7485,1.7485,1.7485,1.7485,1.7485,1.7485,1.7485,1.7485,1.7485,1.7485,1.7485,1.7485,1.7485,1.7485,1.7485,1.7485,1.7485,1.7485,1.7485,1.7485,1.7485,1.7485,1.7485,1.7485,1.7485,1.7485,1.7485,1.7485,1.7485,1.7485,1.7485,1.7485,1.7485,1.7485,1.7485,1.7485,1.7485,1.7485,1.7485,1.7485,1.7485,0.0,0.0,0.0,0.0,0.0,0.0,0.0,0.0,0.0,1.5512,1.4863,1.4131,1.4195,1.3524,1.2533,1.1397,1.1455,1.1209,0.994,0.9822,0.9822,0.9822,0.9822,0.9822,0.9822,0.9822,0.9822,0.0,0.9822,0.9822,0.9822,0.9822,0.9822,0.9822,0.9822,0.9822,0.9822,0.9822,0.9822,0.9822,0.9822,1.0425,1.1571,1.1692,1.235,1.3545,1.4917,1.6172,1.7179,1.742,1.7479,1.742,1.7485,1.7485,1.7485,1.7485,1.7485,1.7485,1.7485,1.7485,1.7485,1.7485,1.7485,1.7485,1.7485,1.7485,1.7485,1.7485,1.7485,1.7485,1.7485,1.7485,1.7485,1.7485,1.7485,1.7485,1.7485,1.7485,1.7485,1.7485,1.7485,1.7485,1.7485,1.7485,1.7485,1.7485,1.7485,1.7485,1.7485,1.7485,1.7485,1.7485,1.7485,1.7485,1.7485,1.7485,1.7485,1.7485,1.7485,1.7485,1.7485,1.7485,1.7485,1.7485,1.7485,1.7485,1.7485,1.7485,1.7485,1.7485,1.7485,1.7485,0.0,0.0,0.0,0.0,0.0,0.0,1.5849,1.5565,1.5405,1.5832,1.5571,1.5327,1.536,1.4706,1.3789,1.2732,1.2816,1.253,1.1209,1.1027,1.0728,0.9883,0.9822,0.9822,0.9822,0.9822,0.9822,0.0,0.0,0.9822,0.9822,0.9822,0.9822,0.9822,0.9822,0.9822,0.9822,0.9822,0.9822,0.9822,0.9822,1.0486,1.1752,1.259,1.3665,1.4976,1.6284,1.6585,1.6349,1.7185,1.7485,1.7485,1.7485,1.7485,1.7485,1.7485,1.7485,1.7485,1.7485,1.7485,1.7485,1.7485,1.7485,1.7485,1.7485,1.7485,1.7485,1.7485,1.7485,1.7485,1.7485,1.7485,1.7485,1.7485,1.7485,1.7485,1.7485,1.7485,1.7485,1.7485,1.7485,1.7485,1.7485,1.7485,1.7485,1.7485,1.7485,1.7485,1.7485,1.7485,1.7485,1.7485,1.7485,1.7485,1.7485,1.7485,1.7485,1.7485,1.7485,1.7485,1.7485,1.7485,1.7485,1.7485,1.7485,1.7485,1.7485,1.7485,1.7485,1.7485,1.7485,1.7485,0.0,0.0,0.0,0.0,0.0,1.5547,1.5722,0.0,1.5891,1.5891,1.5891,1.5891,1.5891,1.558,1.4984,1.3971,1.4015,1.3644,1.1924,1.1692,1.1209,0.994,0.9822,0.9822,0.9822,0.9822,0.9822,0.0,0.0,0.0,0.9822,0.9822,0.9822,0.9822,0.9822,0.9822,0.9822,0.9822,0.9822,0.9822,0.9822,1.0725,1.241,1.3306,1.4619,1.629,1.7126,1.7003,1.6284,1.7126,1.7485,1.7485,1.7485,1.7485,1.7485,1.7485,1.7485,1.7485,1.7485,1.7485,1.7485,1.7485,1.7485,1.7485,1.7485,1.7485,1.7485,1.7485,1.7485,1.7485,1.7485,1.7485,1.7485,1.7485,1.7485,1.7485,1.7485,1.7485,1.7485,1.7485,1.7485,1.7485,1.7485,1.7485,1.7485,1.7485,1.7485,1.7485,1.7485,1.7485,1.7485,1.7485,1.7485,1.7485,1.7485,1.7485,1.7485,1.7485,1.7485,1.7485,1.7485,1.7485,1.7485,1.7485,1.7485,1.7485,1.7485,1.7485,1.7485,1.7485,1.7485,1.7485,0.0,0.0,0.0,0.0,0.0,0.0,1.5447,0.0,1.5891,1.5891,1.5891,1.5891,1.5891,1.6097,1.5971,1.4995,1.5068,1.4425,1.2084,1.1752,1.1269,0.9943,0.9822,0.9822,0.9822,0.9822,0.9822,0.0,0.9822,0.9822,0.9822,0.9822,0.9822,0.9822,0.9822,0.9822,0.9822,0.9822,0.9822,0.9822,0.9822,1.1144,1.3665,1.3665,1.5095,1.742,1.7479,1.7485,1.7485,1.7485,1.7485,1.7485,1.7485,1.7485,1.7485,1.7485,1.7485,1.7485,1.7485,1.7485,1.7485,1.7485,1.7485,1.7485,1.7485,1.7485,1.7485,1.7485,1.7485,1.7485,1.7485,1.7485,1.7485,1.7485,1.7485,1.7485,1.7485,1.7485,1.7485,1.7485,1.7485,1.7485,1.7485,1.7485,1.7485,1.7485,1.7485,1.7485,1.7485,1.7485,1.7485,1.7485,1.7485,1.7485,1.7485,1.7485,1.7485,1.7485,1.7485,1.7485,1.7485,1.7485,1.7485,1.7485,1.7485,1.7485,1.7485,1.7485,1.7485,1.7485,1.7485,1.7485,0.9608,0.0,0.0,0.0,0.0,0.0,0.0,0.0,1.5891,1.5891,1.5891,1.5891,1.5891,1.5946,1.5977,1.5904,1.6271,1.5771,1.3457,1.3126,1.2286,1.0061,0.9822,0.9822,0.9822,0.9822,0.9822,0.0,0.9822,0.9822,0.9822,0.9822,0.9822,0.9822,0.9822,0.9822,0.9822,0.9822,0.9822,0.9822,0.9822,1.0664,1.229,1.3246,1.456,1.6172,1.7126,1.7485,1.7485,1.7485,1.7485,1.7485,1.7485,1.7485,1.7485,1.7485,1.7485,1.7485,1.7485,1.7485,1.7485,1.7485,1.7485,1.7485,1.7485,1.7485,1.7485,1.7485,1.7485,1.7485,1.7485,1.7485,1.7485,1.7485,1.7485,1.7485,1.7485,1.7485,1.7485,1.7485,1.7485,1.7485,1.7485,1.7485,1.7485,1.7485,1.7485,1.7485,1.7485,1.7485,1.7485,1.7485,1.7485,1.7485,1.7485,1.7485,1.7485,1.7485,1.7485,1.7485,1.7485,1.7485,1.7485,1.7485,1.7485,1.7485,1.7485,1.7485,1.7485,1.7485,1.7485,1.7485,0.0,0.0,0.0,0.0,0.0,0.0,1.3574,1.4503,1.519,1.519,1.519,1.5024,1.453,1.4857,1.5271,1.5525,1.5875,1.5447,1.379,1.3613,1.2702,1.0122,0.9822,0.9822,0.9822,0.9822,0.9822,0.9822,0.9822,0.9822,0.9822,0.9822,0.9822,0.9822,0.9822,0.9822,0.9822,0.9822,0.9822,0.9822,0.9822,1.0486,1.1752,1.253,1.3844,1.5634,1.6408,1.7003,1.7485,1.7485,1.7485,1.7485,1.7485,1.7485,1.7485,1.7485,1.7485,1.7485,1.7485,1.7485,1.7485,1.7485,1.7485,1.7485,1.7485,1.7485,1.7485,1.7485,1.7485,1.7485,1.7485,1.7485,1.7485,1.7485,1.7485,1.7485,1.7485,1.7485,1.7485,1.7485,1.7485,1.7485,1.7485,1.7485,1.7485,1.7485,1.7485,1.7485,1.7485,1.7485,1.7485,1.7485,1.7485,1.7485,1.7485,1.7485,1.7485,1.7485,1.7485,1.7485,1.7485,1.7485,1.7485,1.7485,1.7485,1.7485,1.7485,1.7485,1.7485,1.7485,1.7485,1.7485,0.0,0.0,0.0,0.0,0.0,0.0,1.2879,1.3556,1.4002,1.4002,1.411,1.3894,1.2797,1.3457,1.4288,1.4499,1.4443,1.4106,1.3384,1.3381,1.2551,1.0098,0.9812,0.9822,0.9822,0.9822,0.9822,0.9822,0.9822,0.9822,0.9822,0.9822,0.9822,0.9822,0.9822,0.9822,0.9822,0.9822,0.9822,0.9822,0.9822,1.0365,1.1511,1.1812,1.3186,1.5391,1.5693,1.6467,1.7485,1.7485,1.7485,1.7485,1.7485,1.7485,1.7485,1.7485,1.7485,1.7485,1.7485,1.7485,1.7485,1.7485,1.7485,1.7485,1.7485,1.7485,1.7485,1.7485,1.7485,1.7485,1.7485,1.7485,1.7485,1.7485,1.7485,1.7485,1.7485,1.7485,1.7485,1.7485,1.7485,1.7485,1.7485,1.7485,1.7485,1.7485,1.7485,1.7485,1.7485,1.7485,1.7485,1.7485,1.7485,1.7497,1.7527,1.7527,1.7539,1.7569,1.7575,1.7575,1.7575,1.7575,1.7575,1.7575,1.7539,1.7527,1.7527,1.7497,1.7485,1.7485,1.7485,1.7485,0.0,0.0,0.0,0.0,0.0,0.0,1.0815,1.185,1.2743,1.2743,1.3511,1.4116,1.3894,1.4056,1.4234,1.4283,1.3612,1.3146,1.3065,1.2409,1.1355,0.9828,0.9751,0.9822,0.9822,0.9822,0.9822,0.9822,0.9822,0.9822,0.9822,0.9822,0.9822,0.9822,0.9822,0.9822,0.9822,0.9822,0.9822,0.9822,0.9822,0.994,1.0243,1.2346,1.3605,1.4202,1.6225,1.7244,1.7485,1.7485,1.7485,1.7485,1.7485,1.7485,1.7485,1.7485,1.7485,1.7485,1.7485,1.7485,1.7485,1.7485,1.7485,1.7485,1.7485,1.7485,1.7485,1.7485,1.7485,1.7485,1.7485,1.7485,1.7485,1.7485,1.7485,1.7485,1.7485,1.7485,1.7485,1.7485,1.7485,1.7485,1.7485,1.7485,1.7485,1.7485,1.7485,1.7485,1.7485,1.7485,1.7485,1.7485,1.7485,1.7569,1.7781,1.7799,1.7895,1.8125,1.8137,1.8137,1.8137,1.8137,1.8137,1.8137,1.7913,1.7799,1.7793,1.7587,1.7485,1.7485,1.7485,1.7485,0.0,0.0,0.0,0.7988,0.0,0.0,0.0,1.0896,1.1542,1.1542,1.2037,1.2254,1.1664,1.2531,1.3127,1.2526,1.2557,1.2441,1.193,1.1652,1.1012,0.9727,0.9734,0.9822,0.9822,0.9822,0.9822,0.9822,0.9822,0.9822,0.9822,0.9822,0.9822,0.9822,0.9822,0.9822,0.9822,0.9822,0.9822,0.9822,0.9822,0.9822,0.9822,1.1144,1.2462,1.3784,1.5035,1.6349,1.7485,1.7485,1.7485,1.7485,1.7485,1.7485,1.7485,1.7485,1.7485,1.7485,1.7485,1.7485,1.7485,1.7485,1.7485,1.7485,1.7485,1.7485,1.7485,1.7485,1.7485,1.7485,1.7485,1.7485,1.7485,1.7485,1.7485,1.7485,1.7485,1.7485,1.7485,1.7485,1.7485,1.7485,1.7485,1.7485,1.7485,1.7485,1.7485,1.7485,1.7485,1.7485,1.7533,1.7666,1.7678,1.7787,1.8058,1.8082,1.8143,1.8281,1.8294,1.8294,1.8294,1.8294,1.8294,1.8294,1.8155,1.8082,1.8082,1.795,1.775,1.7485,1.7485,1.7485,0.0,0.0,0.0,0.0,0.0,0.8786,0.0,0.0,0.0,1.0347,1.0562,0.0,0.0,0.0,0.0,0.0,0.0,0.0,0.0,1.0717,0.0,0.9679,0.9693,0.9791,0.9819,0.9822,0.9822,0.9822,0.9822,0.9822,0.9822,0.9822,0.9822,0.9822,0.9822,0.9822,0.9822,0.9822,0.9822,0.9822,0.9822,0.9822,0.9822,1.0061,1.1325,1.3366,1.3844,1.5213,1.7126,1.7426,1.7485,1.7485,1.7485,1.7485,1.7485,1.7485,1.7485,1.7485,1.7485,1.7485,1.7485,1.7485,1.7485,1.7485,1.7485,1.7485,1.7485,1.7485,1.7485,1.7485,1.7485,1.7485,1.7485,1.7485,1.7485,1.7485,1.7485,1.7485,1.7485,1.7485,1.7485,1.7485,1.7485,1.7485,1.7485,1.7485,1.7485,1.7485,1.7485,1.7527,1.7642,1.7853,1.7919,1.807,1.8348,1.8366,1.839,1.8438,1.8444,1.8444,1.8444,1.8444,1.8444,1.8444,1.8396,1.8366,1.8366,1.8318,1.8064,1.7636,1.7636,1.7636,0.0,0.0,0.0,0.0,0.856,0.0,0.8843,0.0,0.9099,0.9099,0.0,0.0,0.0,0.0,0.0,0.0,0.0,0.0,0.897,0.9227,0.9424,0.9449,0.954,0.9683,0.9808,0.9822,0.9822,0.9822,0.9822,0.9822,0.9822,0.9822,0.9822,0.9822,0.9822,0.9822,0.9822,0.9822,0.9822,0.9822,0.9822,0.9822,0.9819,1.0967,1.1631,1.2049,1.4376,1.5569,1.593,1.7003,1.7485,1.7485,1.7485,1.7485,1.7485,1.7485,1.7485,1.7485,1.7485,1.7485,1.7485,1.7485,1.7485,1.7485,1.7485,1.7485,1.7485,1.7485,1.7485,1.7485,1.7485,1.7485,1.7485,1.7485,1.7485,1.7485,1.7485,1.7485,1.7485,1.7485,1.7485,1.7485,1.7485,1.7485,1.7485,1.7485,1.7485,1.7485,1.7485,1.7684,1.7841,1.7871,1.8094,1.8354,1.8613,1.8638,1.874,1.8969,1.8988,1.8988,1.8988,1.8988,1.8988,1.8988,1.8758,1.8638,1.8638,1.8408,1.8263,1.8203,1.8203,1.8203,0.0,0.0,0.0,0.0,0.0,0.0,0.8656,0.0,0.8885,0.0,0.0,0.0,0.0,0.0,0.0,0.0,0.9764,0.0,0.0,0.0,0.9083,0.0,0.0,0.0,0.9683,0.0,0.0,0.9815,0.9822,0.9822,0.9822,0.9822,0.9822,0.9822,0.9822,0.9822,0.9822,0.9822,0.9822,0.9822,0.9822,0.9822,0.9822,1.0365,1.1027,1.1812,1.3665,1.4917,1.5693,1.6944,1.7485,1.7485,1.7485,1.7485,1.7485,1.7485,1.7485,1.7485,1.7485,1.7485,1.7485,1.7485,1.7485,1.7485,1.7485,1.7485,1.7485,1.7485,1.7485,1.7485,1.7485,1.7485,1.7485,1.7485,1.7485,1.7485,1.7485,1.7485,1.7485,1.7485,1.7485,1.7485,1.7485,1.7485,1.7485,1.7485,1.7485,1.7539,1.769,1.7805,1.7992,1.8312,1.845,1.8625,1.8891,1.8915,1.8957,1.9066,1.9078,1.9078,1.9078,1.9078,1.9078,1.9078,1.8969,1.8915,1.8915,1.8801,1.8746,1.874,1.8432,1.8294,0.7753,0.0,0.0,0.0,0.0,0.0,0.0,0.0,0.0,0.0,0.0,0.0,0.0,0.0,0.0,0.0,0.0,0.0,0.0,0.0,0.0,0.0,0.0,0.0,0.0,0.9585,0.9652,0.9754,0.9798,0.9822,0.9822,0.9822,0.9822,0.9822,0.9822,0.9822,0.9822,0.9822,0.9822,0.9822,0.9822,0.9822,0.9822,0.9822,1.0304,1.1269,1.2946,1.4202,1.5213,1.6826,1.7485,1.7485,1.7485,1.7485,1.7485,1.7485,1.7485,1.7485,1.7485,1.7485,1.7485,1.7485,1.7485,1.7485,1.7485,1.7485,1.7485,1.7485,1.7485,1.7485,1.7485,1.7485,1.7485,1.7485,1.7485,1.7485,1.7485,1.7485,1.7485,1.7485,1.7485,1.7485,1.7485,1.7485,1.7485,1.7485,1.7485,1.7575,1.7841,1.7943,1.8167,1.8638,1.8752,1.8873,1.906,1.9078,1.9078,1.9078,1.9078,1.9078,1.9078,1.9078,1.9078,1.9078,1.9078,1.9078,1.9078,1.9078,1.9078,1.9066,1.8686,1.8511,0.0,0.0,0.0,0.8533,0.0,0.0,0.0,0.0,0.8885,0.0,0.0,0.0,0.0,0.0,0.0,0.0,0.0,0.0,0.0,0.0,0.0,0.0,0.0,0.0,0.0,0.952,0.9612,0.9615,0.9744,0.9822,0.9822,0.9822,0.9822,0.9822,0.9822,0.9822,0.9822,0.9822,0.9822,0.9822,0.9822,0.9822,0.9822,0.9822,0.9822,1.0001,1.2586,1.3725,1.3963,1.6467,1.7485,1.7485,1.7485,1.7485,1.7485,1.7485,1.7485,1.7485,1.7485,1.7485,1.7485,1.7485,1.7485,1.7485,1.7485,1.7485,1.7485,1.7485,1.7485,1.7485,1.7485,1.7485,1.7485,1.7485,1.7485,1.7485,1.7485,1.7485,1.7485,1.7485,1.7485,1.7485,1.7485,1.7485,1.7485,1.7485,1.7485,1.7575,1.7841,1.8112,1.8384,1.8656,1.8915,1.9066,1.9078,1.9078,1.9078,1.9078,1.9078,1.9078,1.9078,1.9078,1.9078,1.9078,1.9078,1.9078,1.9078,1.9078,1.9078,1.9078,1.906,1.9048,0.0,0.0,0.5303,0.6811,0.0,0.0,0.0,0.0,0.0,0.0,0.0,0.0,0.0,0.0,0.0,0.0,0.0,0.0,0.0,0.0,0.0,0.0,0.0,0.0,0.0,0.0,0.0,0.9595,0.9652,0.9724,0.9815,0.9822,0.9822,0.9822,0.9822,0.9822,0.9822,0.9822,0.9822,0.9822,0.9822,0.9822,0.9822,0.9822,0.9822,0.9879,1.1627,1.2891,1.3844,1.5515,1.6767,1.7485,1.7485,1.7485,1.7485,1.7485,1.7485,1.7485,1.7485,1.7485,1.7485,1.7485,1.7485,1.7485,1.7485,1.7485,1.7485,1.7485,1.7485,1.7485,1.7485,1.7485,1.7485,1.7485,1.7485,1.7485,1.7485,1.7485,1.7485,1.7485,1.7485,1.7485,1.7485,1.7485,1.7485,1.7485,1.763,1.7841,1.8118,1.8384,1.865,1.8915,1.9024,1.9078,1.9078,1.9078,1.9078,1.9078,1.9078,1.9078,1.9078,1.9078,1.9078,1.9078,1.9078,1.9078,1.9078,1.9078,1.9078,1.9078,1.9078,1.9078,0.3465,0.3521,0.0,0.5248,0.5973,0.0,0.7648,0.0,0.8768,0.0,0.0,0.0,0.0,0.0,0.0,0.0,0.0,0.0,0.0,0.8885,0.0,0.0,0.0,0.0,0.0,0.0,0.9292,0.9432,0.9547,0.9649,0.0,0.0,0.9822,0.9822,0.9822,0.9822,0.9822,0.9822,0.9822,0.9822,0.9822,0.9822,0.9822,0.9822,0.9822,0.9883,1.1148,1.2169,1.3126,1.4857,1.6107,1.6885,1.7303,1.7485,1.7485,1.7485,1.7485,1.7485,1.7485,1.7485,1.7485,1.7485,1.7485,1.7485,1.7485,1.7485,1.7485,1.7485,1.7485,1.7485,1.7485,1.7485,1.7485,1.7485,1.7485,1.7485,1.7485,1.7485,1.7485,1.7485,1.7485,1.7485,1.7485,1.7485,1.7515,1.7605,1.7768,1.801,1.8384,1.8577,1.8782,1.9048,1.9078,1.9078,1.9078,1.9078,1.9078,1.9078,1.9078,1.9078,1.9078,1.9078,1.9078,1.9078,1.9078,1.9078,1.9078,1.9078,1.9078,1.9078,1.9078,1.9078]},{"header":{"parameterUnit":"m.s-1","parameterCategory":1,"la1":30.6,"la2":29.2853,"lo1":-89.7004,"lo2":-87.6739,"dx":0.0162,"dy":0.0183,"nx":112,"ny":82,"refTime":"2023-02-07T06:00:00:Z","depth":0,"parameterNumber":3,"parameterNumberName":"V-component_of_WINDS"},"data":[0.0,0.0,0.0,0.0,0.0,0.0,0.0,0.0,0.0,0.0,0.0,0.0,0.0,0.0,0.0,0.0,0.0,0.0,0.0,0.0,0.0,0.0,0.0,0.0,0.0,0.0,0.0,0.0,0.0,0.0,0.0,0.0,0.0,0.0,0.0,0.0,0.0,0.0,0.0,0.0,0.0,0.0,0.0,0.0,0.0,0.0,0.0,0.0,0.0,0.0,0.0,0.0,0.0,0.0,0.0,0.0,0.0,0.0,0.0,0.0,0.0,0.0,0.0,0.0,0.0,0.0,0.0,0.0,0.0,0.0,0.0,0.0,0.0,0.0,0.0,0.0,0.0,0.0,0.0,0.0,0.0,0.0,0.0,0.0,0.0,0.0,0.0,0.0,0.0,0.0,3.8744,3.8822,3.8517,3.8326,3.8371,3.7995,3.7685,3.756,0.0,0.0,0.0,0.0,0.0,0.0,0.0,0.0,0.0,0.0,0.0,0.0,0.0,0.0,0.0,0.0,0.0,0.0,0.0,0.0,0.0,0.0,0.0,0.0,0.0,0.0,0.0,0.0,0.0,0.0,0.0,0.0,0.0,0.0,0.0,0.0,0.0,0.0,0.0,0.0,0.0,0.0,0.0,0.0,0.0,0.0,0.0,0.0,0.0,0.0,0.0,0.0,0.0,0.0,0.0,0.0,0.0,0.0,0.0,0.0,0.0,0.0,0.0,0.0,0.0,0.0,0.0,0.0,0.0,0.0,0.0,0.0,0.0,0.0,0.0,0.0,0.0,0.0,0.0,0.0,0.0,0.0,0.0,0.0,0.0,0.0,0.0,0.0,0.0,0.0,0.0,0.0,0.0,0.0,0.0,0.0,0.0,0.0,0.0,0.0,0.0,0.0,0.0,0.0,3.8937,3.9328,3.8984,3.8711,3.8711,3.8545,3.8277,3.7877,0.0,0.0,0.0,0.0,0.0,0.0,0.0,0.0,0.0,0.0,0.0,0.0,0.0,0.0,0.0,0.0,0.0,0.0,0.0,0.0,0.0,0.0,0.0,0.0,0.0,0.0,0.0,0.0,0.0,0.0,0.0,0.0,0.0,0.0,0.0,0.0,0.0,0.0,0.0,0.0,0.0,0.0,0.0,0.0,0.0,0.0,0.0,0.0,0.0,0.0,0.0,0.0,0.0,0.0,0.0,0.0,0.0,0.0,0.0,0.0,0.0,0.0,0.0,0.0,0.0,0.0,0.0,0.0,0.0,0.0,0.0,0.0,0.0,0.0,0.0,0.0,0.0,0.0,0.0,0.0,0.0,0.0,0.0,0.0,0.0,0.0,0.0,0.0,0.0,0.0,0.0,0.0,0.0,0.0,0.0,0.0,0.0,0.0,0.0,0.0,0.0,0.0,0.0,3.9124,3.9322,3.9527,3.9132,3.8961,3.9205,3.8947,3.8618,3.831,3.8061,0.0,0.0,0.0,0.0,0.0,0.0,0.0,0.0,0.0,0.0,0.0,0.0,0.0,0.0,0.0,0.0,0.0,0.0,0.0,0.0,0.0,0.0,0.0,0.0,0.0,0.0,0.0,0.0,0.0,0.0,0.0,0.0,0.0,0.0,0.0,0.0,0.0,0.0,0.0,0.0,0.0,0.0,0.0,0.0,0.0,0.0,0.0,0.0,0.0,0.0,0.0,0.0,0.0,0.0,0.0,0.0,0.0,0.0,0.0,0.0,0.0,0.0,0.0,0.0,0.0,0.0,0.0,0.0,0.0,0.0,0.0,0.0,0.0,0.0,0.0,0.0,0.0,0.0,0.0,0.0,0.0,0.0,0.0,0.0,0.0,0.0,0.0,0.0,0.0,0.0,0.0,0.0,0.0,0.0,0.0,0.0,0.0,0.0,0.0,0.0,0.0,0.0,3.9607,3.9619,3.9619,3.9298,3.92,3.9564,3.9272,3.8961,3.8688,3.8673,0.0,0.0,0.0,0.0,0.0,0.0,0.0,0.0,0.0,0.0,0.0,0.0,0.0,0.0,0.0,0.0,0.0,0.0,0.0,0.0,0.0,0.0,0.0,0.0,0.0,0.0,0.0,0.0,0.0,0.0,0.0,0.0,0.0,0.0,0.0,0.0,0.0,0.0,0.0,0.0,0.0,0.0,0.0,0.0,0.0,0.0,0.0,0.0,0.0,0.0,0.0,0.0,0.0,0.0,0.0,0.0,0.0,0.0,0.0,0.0,0.0,0.0,0.0,0.0,0.0,0.0,0.0,0.0,0.0,0.0,0.0,0.0,0.0,0.0,0.0,0.0,0.0,0.0,0.0,0.0,0.0,0.0,0.0,0.0,0.0,0.0,0.0,0.0,0.0,0.0,0.0,0.0,0.0,0.0,0.0,0.0,0.0,0.0,0.0,0.0,0.0,0.0,3.9647,3.9693,3.9693,3.9601,3.9564,3.9608,3.9564,3.9367,3.8906,3.8877,0.0,0.0,0.0,0.0,0.0,0.0,0.0,0.0,0.0,0.0,0.0,0.0,0.0,0.0,0.0,0.0,0.0,0.0,0.0,0.0,0.0,0.0,0.0,0.0,0.0,0.0,0.0,0.0,0.0,0.0,0.0,0.0,0.0,0.0,0.0,0.0,0.0,0.0,0.0,0.0,0.0,0.0,0.0,0.0,0.0,0.0,0.0,0.0,0.0,0.0,0.0,0.0,0.0,0.0,0.0,0.0,0.0,0.0,0.0,0.0,0.0,0.0,0.0,0.0,0.0,0.0,0.0,0.0,0.0,0.0,0.0,0.0,0.0,0.0,0.0,0.0,0.0,0.0,0.0,0.0,0.0,0.0,0.0,0.0,0.0,0.0,0.0,0.0,0.0,0.0,0.0,0.0,0.0,0.0,0.0,0.0,0.0,0.0,0.0,0.0,0.0,0.0,3.977,3.9792,0.0,3.9677,3.9637,3.9602,3.9589,3.9445,3.912,0.0,0.0,0.0,0.0,0.0,0.0,0.0,0.0,0.0,0.0,0.0,0.0,0.0,0.0,0.0,0.0,0.0,0.0,0.0,0.0,0.0,0.0,0.0,0.0,0.0,0.0,0.0,0.0,0.0,0.0,0.0,0.0,0.0,0.0,0.0,0.0,0.0,0.0,0.0,0.0,0.0,0.0,0.0,0.0,0.0,0.0,0.0,0.0,0.0,0.0,0.0,0.0,0.0,0.0,0.0,0.0,0.0,0.0,0.0,0.0,0.0,0.0,0.0,0.0,0.0,0.0,0.0,0.0,0.0,0.0,0.0,0.0,0.0,0.0,0.0,0.0,0.0,0.0,0.0,0.0,0.0,0.0,0.0,0.0,0.0,0.0,0.0,0.0,0.0,0.0,0.0,0.0,0.0,0.0,0.0,0.0,0.0,0.0,0.0,0.0,0.0,0.0,3.9826,3.9911,3.9933,0.0,3.9792,3.9735,3.9691,3.971,3.9576,3.9337,0.0,0.0,0.0,0.0,0.0,0.0,0.0,0.0,0.0,0.0,0.0,0.0,0.0,0.0,0.0,0.0,0.0,0.0,0.0,0.0,0.0,0.0,0.0,0.0,0.0,0.0,0.0,0.0,0.0,0.0,0.0,0.0,0.0,0.0,0.0,0.0,0.0,0.0,0.0,0.0,0.0,0.0,0.0,0.0,0.0,0.0,0.0,0.0,0.0,0.0,0.0,0.0,0.0,0.0,0.0,0.0,0.0,0.0,0.0,0.0,0.0,0.0,0.0,0.0,0.0,0.0,0.0,0.0,0.0,0.0,0.0,0.0,0.0,0.0,0.0,0.0,0.0,0.0,0.0,0.0,0.0,0.0,0.0,0.0,0.0,0.0,0.0,0.0,0.0,0.0,0.0,0.0,0.0,0.0,0.0,0.0,0.0,0.0,0.0,0.0,0.0,0.0,4.0087,4.0098,4.0117,4.0098,3.9975,3.9911,3.99,3.99,3.9815,0.0,0.0,0.0,0.0,0.0,0.0,0.0,0.0,0.0,0.0,0.0,0.0,0.0,0.0,0.0,0.0,0.0,0.0,0.0,0.0,0.0,0.0,0.0,0.0,0.0,0.0,0.0,0.0,0.0,0.0,0.0,0.0,0.0,0.0,0.0,0.0,0.0,0.0,0.0,0.0,0.0,0.0,0.0,0.0,0.0,0.0,0.0,0.0,0.0,0.0,0.0,0.0,0.0,0.0,0.0,0.0,0.0,0.0,0.0,0.0,0.0,0.0,0.0,0.0,0.0,0.0,0.0,0.0,0.0,0.0,0.0,0.0,0.0,0.0,0.0,0.0,0.0,0.0,0.0,0.0,0.0,0.0,0.0,0.0,0.0,0.0,0.0,0.0,0.0,0.0,0.0,0.0,0.0,0.0,0.0,0.0,0.0,0.0,0.0,0.0,0.0,0.0,0.0,4.0243,4.0347,4.0422,4.0326,4.0273,4.021,4.0119,4.0119,4.0072,3.997,0.0,0.0,0.0,0.0,0.0,0.0,0.0,0.0,0.0,0.0,0.0,0.0,0.0,0.0,0.0,0.0,0.0,0.0,0.0,0.0,0.0,0.0,0.0,0.0,0.0,0.0,0.0,0.0,0.0,0.0,0.0,0.0,0.0,0.0,0.0,0.0,0.0,0.0,0.0,0.0,0.0,0.0,0.0,0.0,0.0,0.0,0.0,0.0,0.0,0.0,0.0,0.0,0.0,0.0,0.0,0.0,0.0,0.0,0.0,0.0,0.0,0.0,0.0,0.0,0.0,0.0,0.0,0.0,0.0,0.0,0.0,0.0,0.0,0.0,0.0,0.0,0.0,0.0,0.0,0.0,0.0,0.0,0.0,0.0,0.0,0.0,0.0,0.0,0.0,0.0,0.0,0.0,0.0,0.0,0.0,0.0,0.0,0.0,0.0,0.0,0.0,0.0,4.0341,4.0485,4.0574,4.0492,4.0484,4.0442,4.0377,4.035,4.0337,4.0292,0.0,0.0,0.0,0.0,0.0,0.0,0.0,0.0,0.0,0.0,0.0,0.0,0.0,0.0,0.0,0.0,0.0,0.0,0.0,0.0,0.0,0.0,0.0,0.0,0.0,0.0,0.0,0.0,0.0,0.0,0.0,0.0,0.0,0.0,0.0,0.0,0.0,0.0,0.0,0.0,0.0,0.0,0.0,0.0,0.0,0.0,0.0,0.0,0.0,0.0,0.0,0.0,0.0,0.0,0.0,0.0,0.0,0.0,0.0,0.0,0.0,0.0,0.0,0.0,0.0,0.0,0.0,0.0,0.0,0.0,0.0,0.0,0.0,0.0,0.0,0.0,0.0,0.0,0.0,0.0,0.0,0.0,0.0,0.0,0.0,0.0,0.0,0.0,0.0,0.0,0.0,0.0,0.0,0.0,0.0,0.0,0.0,0.0,0.0,0.0,0.0,0.0,4.0534,4.0675,4.0797,4.0881,4.0881,4.0881,4.0881,4.0797,4.0758,4.0745,0.0,0.0,0.0,0.0,0.0,0.0,0.0,0.0,0.0,0.0,0.0,0.0,0.0,0.0,0.0,0.0,0.0,0.0,0.0,0.0,0.0,0.0,0.0,0.0,0.0,0.0,0.0,0.0,0.0,0.0,0.0,0.0,0.0,0.0,0.0,0.0,0.0,0.0,0.0,0.0,0.0,0.0,0.0,0.0,0.0,0.0,0.0,0.0,0.0,0.0,0.0,0.0,0.0,0.0,0.0,0.0,0.0,0.0,0.0,0.0,3.8966,0.0,0.0,0.0,0.0,0.0,0.0,0.0,0.0,0.0,0.0,0.0,0.0,0.0,0.0,0.0,0.0,0.0,0.0,0.0,0.0,0.0,0.0,0.0,0.0,0.0,0.0,0.0,0.0,0.0,0.0,0.0,0.0,0.0,0.0,0.0,0.0,0.0,0.0,0.0,0.0,0.0,4.1499,4.1791,4.2206,4.2887,4.2965,4.2965,4.2965,4.2323,4.189,4.1791,4.117,0.0,0.0,0.0,0.0,0.0,0.0,0.0,0.0,0.0,0.0,0.0,0.0,0.0,0.0,0.0,0.0,0.0,0.0,0.0,0.0,0.0,0.0,0.0,0.0,0.0,0.0,0.0,0.0,0.0,0.0,0.0,0.0,0.0,0.0,0.0,0.0,0.0,0.0,0.0,0.0,0.0,0.0,0.0,0.0,0.0,0.0,0.0,0.0,0.0,0.0,0.0,0.0,0.0,0.0,0.0,0.0,0.0,0.0,0.0,0.0,3.9292,0.0,0.0,0.0,0.0,0.0,0.0,0.0,0.0,0.0,0.0,0.0,0.0,0.0,0.0,0.0,0.0,0.0,0.0,0.0,0.0,0.0,0.0,0.0,0.0,0.0,0.0,0.0,0.0,0.0,0.0,0.0,0.0,0.0,0.0,0.0,0.0,0.0,0.0,0.0,0.0,4.2559,4.2808,4.3101,4.3549,4.3608,4.3608,4.3608,4.3179,4.2896,4.2825,4.2369,0.0,0.0,0.0,0.0,0.0,0.0,0.0,0.0,0.0,0.0,0.0,0.0,0.0,0.0,0.0,0.0,0.0,0.0,0.0,0.0,0.0,0.0,0.0,0.0,0.0,0.0,0.0,0.0,0.0,0.0,0.0,0.0,0.0,0.0,0.0,0.0,0.0,0.0,0.0,0.0,0.0,0.0,0.0,0.0,0.0,0.0,0.0,0.0,0.0,0.0,0.0,0.0,0.0,4.0148,4.056,4.1253,4.1253,4.1724,4.2482,4.0802,4.0078,4.001,3.9846,0.0,0.0,0.0,0.0,0.0,0.0,0.0,0.0,0.0,0.0,0.0,0.0,0.0,0.0,0.0,0.0,0.0,0.0,0.0,0.0,0.0,0.0,0.0,0.0,4.2881,4.3043,0.0,0.0,0.0,0.0,0.0,0.0,0.0,0.0,0.0,0.0,0.0,0.0,4.3612,4.3767,4.3899,4.4055,4.4075,4.4078,4.4067,4.393,4.3836,4.3824,4.3598,4.3484,0.0,0.0,0.0,0.0,0.0,0.0,0.0,0.0,0.0,0.0,0.0,0.0,0.0,0.0,0.0,0.0,0.0,0.0,0.0,0.0,0.0,0.0,0.0,0.0,0.0,0.0,0.0,0.0,0.0,0.0,0.0,0.0,3.9421,3.9364,0.0,0.0,0.0,0.0,0.0,0.0,0.0,0.0,0.0,0.0,0.0,0.0,0.0,4.1731,4.1767,4.1995,4.2112,4.2112,4.2354,4.2537,4.2632,4.2632,4.2699,4.2842,4.2575,0.0,4.2102,4.2069,0.0,0.0,0.0,0.0,0.0,0.0,0.0,0.0,0.0,0.0,0.0,0.0,0.0,0.0,0.0,0.0,0.0,0.0,0.0,0.0,0.0,0.0,4.3632,4.3511,4.3572,4.3593,0.0,4.3109,4.2956,4.2939,4.303,0.0,0.0,0.0,0.0,0.0,0.0,0.0,4.4526,4.4733,4.5102,4.5863,4.5941,4.5932,4.593,4.5248,4.4783,4.4725,4.4061,4.3651,4.3671,4.3553,0.0,0.0,0.0,0.0,0.0,0.0,0.0,0.0,0.0,0.0,0.0,0.0,0.0,0.0,0.0,0.0,0.0,0.0,0.0,0.0,0.0,0.0,0.0,0.0,0.0,0.0,0.0,0.0,0.0,3.9578,3.9602,3.9713,3.9908,4.0057,0.0,0.0,0.0,0.0,0.0,0.0,0.0,0.0,0.0,4.1849,4.2202,4.2457,4.2669,4.2776,4.2833,4.2833,4.2953,4.3237,4.3688,4.3758,4.4039,4.4407,4.4534,4.4453,4.4154,4.3012,4.2508,4.2436,0.0,0.0,0.0,0.0,4.2887,4.294,4.3202,4.3319,0.0,4.3374,0.0,0.0,0.0,0.0,0.0,0.0,0.0,0.0,0.0,0.0,4.5031,4.4543,4.4797,4.5168,4.5168,4.5072,4.4662,0.0,4.3786,4.405,4.3995,0.0,0.0,0.0,0.0,4.5166,4.5537,4.5675,4.587,4.6261,4.63,4.6291,4.6306,4.5918,4.5643,4.5588,4.5246,4.5045,4.5045,4.4573,4.4325,0.0,0.0,0.0,0.0,0.0,0.0,0.0,0.0,0.0,0.0,0.0,0.0,0.0,0.0,0.0,0.0,0.0,0.0,0.0,0.0,0.0,0.0,0.0,0.0,0.0,0.0,0.0,0.0,4.0091,4.0192,4.0336,4.0888,4.1224,0.0,0.0,0.0,0.0,0.0,0.0,4.2337,4.2555,4.2808,4.3091,4.3302,4.3545,4.3817,4.3769,4.3769,4.3817,4.379,4.4106,4.4712,4.4808,4.5162,4.5685,4.5846,4.5815,4.5565,4.4068,4.3471,4.3491,4.3506,4.3487,4.3476,4.3787,4.3898,4.3905,4.4045,4.4087,4.4091,4.4137,0.0,4.4145,4.4145,0.0,0.0,0.0,0.0,4.5058,4.4454,4.5282,4.6144,4.55,4.5831,4.63,4.63,4.63,4.588,0.0,4.4705,4.509,4.4972,0.0,0.0,0.0,0.0,4.6221,4.623,4.6262,4.6293,4.6278,4.6278,4.6265,4.6249,4.6204,4.615,4.6072,4.6066,4.6073,4.6073,4.5443,4.5115,4.5108,0.0,0.0,0.0,0.0,0.0,0.0,0.0,0.0,0.0,0.0,0.0,0.0,0.0,0.0,0.0,0.0,0.0,0.0,0.0,0.0,0.0,0.0,0.0,0.0,0.0,0.0,0.0,0.0,0.0,4.1605,4.2086,0.0,0.0,0.0,0.0,4.2466,4.2487,4.262,4.2953,4.3794,4.4325,4.4406,4.5206,4.568,4.5767,4.5565,4.5565,4.5767,4.5686,4.5712,4.5825,4.5831,4.585,4.5883,4.5899,4.5894,4.5883,4.5781,4.5692,4.5645,4.5716,4.5742,4.5742,4.5753,4.5758,4.5774,4.5913,4.5958,4.5988,4.6106,4.6158,4.6158,4.6158,4.6158,0.0,0.0,4.6199,4.622,4.6161,4.6222,4.628,4.6241,4.6261,4.63,4.63,4.63,4.6261,0.0,4.6199,4.6218,4.6216,0.0,4.6277,4.6277,4.6298,4.6288,4.6285,4.6306,4.6289,4.6207,4.6206,4.6175,4.6123,4.6114,4.6079,4.6008,4.6012,4.6012,4.6012,4.5954,4.5949,4.5936,4.5897,0.0,0.0,0.0,0.0,0.0,0.0,0.0,0.0,0.0,0.0,0.0,0.0,0.0,0.0,0.0,0.0,0.0,0.0,0.0,0.0,0.0,0.0,0.0,0.0,0.0,0.0,0.0,0.0,4.2661,4.338,0.0,4.3854,4.4265,4.4592,4.4675,4.4701,4.4748,4.4867,4.5182,4.538,4.5392,4.5702,4.5881,4.5899,4.5834,4.5834,4.5899,4.5881,4.5881,4.5905,4.5992,4.5987,4.591,4.6072,4.6057,4.5915,4.6091,4.6037,4.5863,4.5889,4.5899,4.591,4.5996,4.6037,4.6049,4.6181,4.6238,4.624,4.6277,4.6305,4.6308,4.6308,4.6293,4.6296,4.6296,4.6296,4.6296,4.6296,4.6296,4.6296,4.6296,4.6296,4.6296,4.6296,4.6266,4.623,4.623,4.6261,4.6306,4.63,4.6301,4.6284,4.623,4.623,4.623,4.6249,4.6206,4.6161,4.6134,4.6144,4.6119,4.604,4.6049,4.6012,4.5933,4.5905,4.5861,4.5861,4.5861,4.588,4.5871,4.5877,4.5772,0.0,0.0,0.0,0.0,0.0,0.0,0.0,0.0,0.0,0.0,0.0,0.0,0.0,0.0,0.0,0.0,0.0,0.0,0.0,0.0,0.0,0.0,0.0,0.0,0.0,0.0,4.371,4.3711,4.4494,4.5043,4.5043,4.5567,4.5903,4.5899,4.5899,4.5899,4.5899,4.5935,4.5973,4.5973,4.5973,4.5992,4.6021,4.5959,4.5959,4.6021,4.5992,4.5992,4.6045,4.6135,4.6112,4.6049,4.6216,4.6206,4.6049,4.6238,4.6206,4.6021,4.6021,4.6021,4.6049,4.6138,4.6173,4.6181,4.6275,4.6305,4.6305,4.6308,4.6293,4.6296,4.6296,4.6299,4.6301,4.6301,4.6301,4.6284,4.6268,4.6269,4.6269,4.6249,4.6229,4.6229,4.6229,4.6203,4.6171,4.6171,4.6208,4.623,4.6228,4.6227,4.6225,4.6174,4.6171,4.6168,4.614,4.6087,4.6072,4.6075,4.6073,4.6037,4.5978,4.6231,4.6255,4.588,4.6105,4.6116,4.5807,4.5807,4.5807,4.5807,4.5807,4.5835,4.5922,0.0,0.0,0.0,0.0,0.0,0.0,0.0,0.0,0.0,0.0,0.0,0.0,0.0,0.0,0.0,0.0,0.0,0.0,0.0,0.0,0.0,0.0,0.0,4.3603,4.4205,4.4749,4.4749,4.5449,4.591,4.591,4.591,4.591,4.591,4.591,4.591,4.591,4.6041,4.6102,4.6102,4.6102,4.6173,4.63,4.6045,4.6045,4.63,4.6173,4.6176,4.63,4.63,4.63,4.63,4.63,4.63,4.63,4.63,4.63,4.63,4.63,4.63,4.63,4.63,4.63,4.6302,4.6291,4.6293,4.6294,4.63,4.6301,4.6301,4.6301,4.6302,4.6303,4.6303,4.6303,4.6287,4.6207,4.6203,4.6177,4.6121,4.6108,4.6108,4.6108,4.6125,4.6125,4.6125,4.6142,4.6162,4.6106,4.6128,4.6145,4.6145,4.6164,0.0,4.6096,4.6084,4.6078,4.6085,4.6074,4.6047,4.5989,4.6758,4.6842,4.5942,4.667,4.6748,4.5923,4.5865,4.5826,4.5807,4.5807,4.5807,4.5807,0.0,0.0,0.0,0.0,0.0,0.0,0.0,0.0,0.0,0.0,0.0,0.0,0.0,0.0,0.0,0.0,0.0,0.0,0.0,0.0,0.0,0.0,4.56,4.5254,4.5505,4.5718,4.5718,4.6001,4.6184,4.6184,4.6184,4.6184,4.6184,4.6184,4.6184,4.6184,4.6216,4.6245,4.6245,4.6245,4.6269,4.63,4.6238,4.6238,4.63,4.6269,4.6251,4.63,4.63,4.63,4.63,4.63,4.63,4.63,4.63,4.63,4.63,4.63,4.63,4.63,4.63,4.6305,4.6291,4.6297,4.63,4.63,4.6301,4.6304,4.6306,4.6306,4.6269,4.622,4.622,4.6186,4.614,4.6125,4.6123,4.6117,4.6099,4.6096,4.6096,4.6096,4.6516,4.6892,4.6892,4.7376,4.7404,4.6232,4.6559,4.6972,4.696,4.7515,0.0,4.7893,4.7836,4.7816,4.7811,4.7766,4.7733,4.7712,4.7937,4.7949,4.7695,4.7908,4.7947,4.7695,4.7076,4.6445,4.5807,4.5807,4.5807,0.0,0.0,0.0,0.0,0.0,0.0,0.0,0.0,0.0,0.0,0.0,0.0,0.0,0.0,0.0,0.0,0.0,0.0,0.0,0.0,0.0,0.0,4.5816,4.617,4.6087,4.6138,4.6181,4.6181,4.6247,4.63,4.63,4.63,4.63,4.63,4.63,4.63,4.63,4.63,4.63,4.63,4.63,4.6475,4.6846,4.6846,4.7002,4.7354,4.7354,4.7354,4.7354,4.7354,4.7354,4.7354,4.7354,4.7159,4.6846,4.6846,4.6633,0.0,0.0,0.0,0.0,0.0,4.6294,4.6297,4.6303,4.6304,4.6305,4.6306,4.6307,4.6289,4.6268,4.624,4.6199,4.616,4.6131,4.6091,4.6076,4.632,4.6541,4.6538,4.68,4.7052,4.7052,4.7406,4.7701,4.7701,4.8081,0.0,4.7159,4.7434,4.7761,4.7766,4.8186,4.8516,4.8516,4.8476,4.8456,4.8456,4.8421,4.8392,4.8392,4.874,0.0,0.0,0.0,4.8778,4.8411,4.7908,0.0,0.0,0.0,4.6883,4.6883,0.0,0.0,0.0,4.5883,4.5683,0.0,0.0,0.0,0.0,0.0,0.0,0.0,0.0,0.0,0.0,0.0,0.0,0.0,0.0,0.0,0.0,4.6216,4.63,4.63,4.63,4.63,4.63,4.63,4.63,4.63,4.63,4.6339,4.6436,4.6456,4.6495,4.6573,0.0,0.0,0.0,0.0,4.6944,4.7723,4.7742,4.8096,4.8798,4.8798,4.8798,4.8798,4.8798,4.8798,4.8798,4.8798,4.8408,4.7744,4.7744,4.7283,4.6567,4.6384,4.6308,4.6295,4.6301,4.6302,4.6303,4.6288,0.0,0.0,4.6288,4.6288,4.6286,4.6303,4.6329,4.6316,4.6359,4.6372,4.6348,4.6298,4.679,4.7324,4.7267,4.7831,4.8392,4.8392,4.8488,4.8546,4.8546,4.8624,4.8682,4.8682,4.8604,4.8546,4.8546,4.8624,4.8682,4.8682,4.8682,4.8682,4.8682,0.0,0.0,4.8682,4.9397,4.9513,4.874,4.9382,4.944,4.8585,4.8512,4.8473,4.8392,4.8392,4.8392,4.8392,4.7618,4.725,4.7238,4.6375,4.5904,0.0,0.0,0.0,0.0,0.0,0.0,0.0,0.0,0.0,0.0,0.0,0.0,0.0,0.0,0.0,4.6261,4.628,4.63,4.63,4.63,4.63,4.63,4.63,4.63,4.63,4.63,4.6593,4.7295,4.7352,4.7627,4.8271,4.831,4.831,4.831,4.831,4.8408,4.8564,4.8564,4.8642,4.8798,0.0,0.0,4.8798,4.8798,4.8798,4.8798,4.8798,4.8743,4.8652,4.8652,4.8541,4.8253,4.6846,4.63,4.6301,4.6305,4.6306,4.6288,4.6243,4.6215,4.621,4.6155,4.6139,4.6254,4.6898,4.7046,0.0,4.7835,4.7996,4.7947,4.7939,4.8048,4.8157,4.8147,4.8275,4.8392,4.8392,4.8952,4.9455,4.9455,4.9977,5.0415,5.0415,4.9881,4.9455,4.9455,4.9997,5.0415,5.0415,5.0415,5.0415,5.0415,5.0415,5.0415,5.0415,5.0569,5.0589,5.0434,5.0471,5.0192,4.9486,4.9294,4.8938,4.8411,4.8392,4.8392,4.8392,4.8237,4.814,4.8101,4.657,4.5815,0.0,0.0,0.0,0.0,0.0,0.0,0.0,0.0,0.0,0.0,0.0,4.6202,0.0,0.0,4.6308,4.6293,4.6676,4.6944,4.6944,4.7295,4.7393,4.7002,4.6944,4.712,4.751,4.7549,4.7725,4.8174,4.8193,4.8388,4.8779,4.8798,4.8798,4.8798,4.8798,4.9013,4.9442,4.9442,4.9677,5.0106,5.0106,5.0106,5.0106,5.0092,5.0095,5.0095,5.0098,4.9868,4.9461,4.9073,4.89,4.8805,4.7947,4.7595,4.7594,4.7597,4.7597,4.7597,4.7555,4.7552,4.7529,4.7433,4.7396,4.746,4.7808,4.7879,4.7936,4.8341,4.843,4.8392,4.8392,4.872,4.9049,4.9049,4.9359,4.9649,4.9649,4.9997,5.0299,5.0299,5.0627,5.0898,5.0898,5.0569,5.0299,5.0299,5.0647,5.0898,5.0898,5.0898,5.0898,5.0898,5.0841,5.0799,5.0799,5.0699,5.0663,5.0663,5.0682,5.0555,5.0201,5.0162,4.9983,4.966,4.9586,4.9553,4.9553,4.9052,4.8804,4.8766,4.7456,4.6934,0.0,0.0,0.0,0.0,0.0,0.0,0.0,0.0,4.6237,4.6287,4.6307,4.6306,4.6305,4.6436,4.6549,4.655,4.7287,4.7845,4.7844,4.8411,4.8646,4.8135,4.7938,4.8096,4.874,4.8798,4.8876,4.9032,4.9052,4.913,4.9306,4.9306,4.9306,4.9306,4.9306,4.9638,5.0358,5.0358,5.0711,5.1398,5.1398,5.1398,5.14,5.1408,5.1391,5.1391,5.1398,5.101,5.0307,4.9646,4.9375,4.9375,4.9374,4.9354,4.9315,4.9004,4.8886,4.8866,4.8844,4.8821,4.8793,4.8672,4.8632,4.8649,4.8713,4.8728,4.8748,4.8866,4.8894,4.8894,4.8894,4.9417,4.9939,4.9939,5.0434,5.0898,5.0898,5.0898,5.0898,5.0898,5.0898,5.0898,5.0898,5.0898,5.0898,5.0898,5.0898,5.0898,5.0898,5.0882,5.0866,5.0866,5.0727,5.0635,5.0635,5.0477,5.0404,5.0404,5.0536,5.0606,5.0635,5.0718,5.078,5.0805,5.07,5.0635,5.0635,4.9834,4.9416,4.9416,4.8707,4.8366,4.6197,4.6238,4.6288,4.6289,4.6288,4.6288,0.0,0.0,4.6289,4.6308,4.6308,4.6307,4.6308,4.6931,4.7454,4.7458,4.8197,4.8759,4.8753,4.8836,4.9128,4.9755,4.915,4.8701,4.8798,4.8798,4.9111,4.9909,4.9948,5.028,5.1063,5.1102,5.1102,5.1102,5.1102,5.116,5.1258,5.1258,5.1302,5.1408,5.1408,5.1391,5.1396,5.1397,5.1397,5.1397,5.1402,5.1346,5.1248,5.1152,5.109,5.1031,5.1029,5.1006,5.0777,4.9408,4.8823,4.8718,4.8655,4.8588,4.8535,4.8451,4.8431,4.8579,4.9338,4.9574,4.971,5.0422,5.0627,5.0627,5.0627,5.0685,5.0763,5.0763,5.0821,5.0898,5.0898,5.0898,5.0898,5.0898,5.0898,5.0898,5.0898,5.0898,5.0898,5.0898,5.0898,5.0898,5.0898,5.0799,5.072,5.072,5.0547,5.0436,5.0436,5.0415,5.0404,5.0404,5.0321,5.031,5.0425,5.0325,5.0325,5.0457,5.0436,5.0436,5.0436,5.0319,5.027,5.027,5.0174,4.9341,4.6265,4.6288,0.0,0.0,4.6308,4.6308,4.6308,4.6308,4.6445,4.6953,4.7051,4.7207,4.7715,4.8104,4.8356,0.0,4.9058,4.9601,4.9599,5.005,5.0479,5.0825,5.0504,5.0272,5.0305,5.0306,5.0447,5.0761,5.08,5.0956,5.1327,5.1305,5.1327,5.1401,5.1366,5.1364,5.139,5.139,5.1391,5.1395,5.1395,5.1396,5.1398,5.1402,5.1404,5.1405,5.1365,5.134,5.1339,5.1299,5.1272,5.1249,5.1249,5.1213,5.1113,5.0486,5.0196,5.015,5.0123,5.0088,5.0058,5.0001,4.9977,5.0015,5.031,5.0395,5.0473,5.0801,5.0898,5.0898,5.0898,5.0898,5.0898,5.0898,5.0898,5.0898,5.0898,5.0898,5.0898,5.0898,5.0898,5.0898,5.0898,5.0898,5.0898,5.0898,5.0833,5.0791,5.0791,5.0625,5.0486,5.041,5.0333,5.0252,5.0113,5.0113,5.0113,5.0113,5.0175,5.0224,5.0287,5.0302,5.0313,5.0275,5.0291,5.0233,5.0123,5.0019,4.9987,4.9987,4.9876,4.9424,4.6308,0.0,0.0,4.6308,4.6308,4.6367,4.6601,4.666,4.6914,4.7773,4.7969,4.8144,4.8789,4.9101,4.9257,4.9257,4.9939,5.0446,5.0428,5.0976,5.1367,5.1348,5.1299,5.1289,5.1341,5.1342,5.1316,5.1271,5.1299,5.1304,5.1304,5.1252,5.1263,5.1366,5.1318,5.1302,5.1366,5.1348,5.1348,5.1366,5.1348,5.1347,5.1346,5.1344,5.1342,5.1337,5.1293,5.1277,5.1274,5.1225,5.1187,5.1165,5.1165,5.1147,5.1123,5.1123,5.1142,5.1165,5.1165,5.1147,5.1108,5.1062,5.105,5.103,5.0937,5.0898,5.0898,5.0898,5.0898,5.0898,5.0898,5.0898,5.0898,5.0898,5.0898,5.0898,5.0898,5.0898,5.0898,5.0898,5.0898,5.0967,5.114,5.117,5.1239,5.1427,5.1337,5.1192,5.1048,5.1033,5.0987,5.0812,5.0805,5.0754,5.0594,5.058,5.0486,5.0258,5.0405,5.0355,5.0082,5.0149,5.0142,4.9987,4.9974,4.9908,4.9749,4.965,4.9634,4.96,4.9461,4.9384,0.0,0.0,4.6308,4.6308,4.6308,4.6523,4.7363,4.7558,4.7812,4.8672,4.8867,4.8867,4.8906,4.959,5.0156,5.0156,5.084,5.1347,5.1277,5.1286,5.1271,5.1208,5.1193,5.1199,0.0,5.1213,5.1202,5.1199,5.1265,5.13,5.13,5.13,5.13,5.1301,5.1249,5.1247,5.1302,5.123,5.1245,5.1294,5.1233,5.1213,5.1211,5.1211,5.1211,5.1211,5.1207,5.1207,5.1207,5.1203,5.1167,5.1105,5.1105,5.103,5.0914,5.0914,5.099,5.1105,5.1105,5.1024,5.0914,5.0906,5.0906,5.0906,5.0898,5.0898,5.0898,5.0898,5.0898,5.0898,5.0898,5.0898,5.0898,5.0898,5.0898,5.0898,5.0898,5.0898,5.0898,5.0898,5.0898,5.1109,5.176,5.1867,5.2078,5.2746,5.2726,5.2451,5.1934,5.2303,5.2551,5.2352,5.2324,5.2324,5.231,5.231,5.1987,5.1211,5.1168,5.0733,4.9759,4.9721,4.963,4.9427,4.9411,4.9411,4.943,4.9415,4.9415,4.9415,4.9415,4.9321,0.0,0.0,4.6308,4.6308,4.6738,4.7246,4.7539,4.8047,4.8711,4.957,4.9766,4.9922,5.0469,5.0801,5.0996,5.0996,5.1211,5.1386,5.1366,5.1364,5.1363,5.134,5.1297,0.0,0.0,0.0,0.0,5.1086,5.1174,5.1199,5.1118,5.1058,5.1108,5.1241,5.1165,5.1178,5.1238,5.1216,5.1213,5.1229,5.1206,5.1211,5.1203,5.1203,5.1203,5.1199,5.1152,5.1122,5.1136,5.1036,5.0991,5.0961,5.0961,5.0952,5.0898,5.0898,5.0937,5.0961,5.0961,5.0944,5.0898,5.0898,5.0898,5.0898,5.0898,5.0898,5.0898,5.0898,5.0898,5.0898,5.0898,5.0898,5.0898,5.0898,5.0898,5.0898,5.0898,5.125,5.1565,5.1565,5.1925,5.2296,5.2513,5.256,5.2804,5.3458,5.3073,5.2577,5.2272,5.2384,5.2484,5.2419,5.2279,5.2201,5.2201,5.2114,5.1942,5.1679,5.166,5.1513,5.1168,5.1168,5.0807,5.0064,5.0143,4.9896,4.9276,4.9276,4.9276,4.926,4.9127,4.9044,0.0,4.6523,4.6758,4.6758,4.7422,4.8144,4.8457,4.8965,4.9609,5.0449,5.0625,5.0781,5.1308,5.1406,5.1406,5.1406,5.1406,5.1386,5.1364,5.1637,5.183,5.1801,5.1996,5.2113,0.0,0.0,0.0,5.1089,5.1117,5.1128,5.1043,5.099,5.103,5.1155,5.1081,5.1074,5.1152,5.1113,5.1253,5.1564,5.1869,5.2025,5.2025,5.2025,5.2025,5.2025,5.1981,5.1961,5.1955,5.1854,5.1834,5.1834,5.1834,5.1834,5.1834,5.1834,5.1834,5.1738,5.1111,5.0898,5.0898,5.0898,5.0898,5.0898,5.0898,5.0898,5.0898,5.0898,5.0898,5.0898,5.0898,5.0898,5.0898,5.0898,5.113,5.1335,5.1258,5.1835,5.2338,5.2259,5.2574,5.2896,5.311,5.3353,5.367,5.4183,5.3832,5.3394,5.3204,5.3153,5.3112,5.3112,5.3,5.2918,5.2918,5.2843,5.2665,5.2348,5.2329,5.2182,5.1815,5.1797,5.1469,5.0757,5.0841,5.0579,4.9991,4.9991,4.9991,4.9974,4.9853,4.98,4.6348,4.6973,4.7617,4.7656,4.832,4.918,5.0019,5.0234,5.0488,5.123,5.1406,5.1406,0.0,0.0,5.1406,5.1406,5.1406,5.1385,5.1361,5.2078,5.2589,0.0,0.0,0.0,0.0,0.0,0.0,5.1352,0.0,5.1235,5.1229,5.1229,5.1229,5.1229,5.1097,5.109,5.1229,5.109,5.1447,5.2287,5.3091,5.3498,5.3498,5.3498,5.3498,5.3498,5.3498,5.3498,5.3498,5.3498,5.3498,5.3498,5.3498,5.3498,5.3498,5.3498,5.3498,5.3265,5.1621,5.1033,5.1033,5.1033,5.1033,5.1033,5.1033,5.1033,5.1033,5.1033,5.1033,5.1033,5.1033,5.1033,5.1033,5.1033,5.1652,5.2191,5.1982,5.2627,5.3163,5.2951,5.2867,5.2984,5.3542,5.4186,5.468,5.4871,5.4886,5.4818,5.4644,5.4498,5.4443,5.4443,5.4426,5.4407,5.4407,5.439,5.4052,5.3228,5.3155,5.2731,5.1775,5.172,5.1633,5.1454,5.1454,5.1435,5.1398,5.1398,5.1398,5.1398,5.1398,5.1398,4.709,4.7422,4.7754,4.8418,4.9219,4.9922,5.0156,5.0664,5.1152,5.1367,5.1406,5.1406,0.0,0.0,0.0,5.1406,5.1406,0.0,5.2197,5.2464,0.0,5.3331,0.0,5.3677,5.3677,5.3619,0.0,0.0,5.2964,5.2939,5.2891,5.2883,5.2883,5.2883,5.2845,5.2845,5.2883,5.2845,5.2956,5.3169,5.3382,5.3498,5.3498,5.3498,5.3498,5.3498,5.3498,5.3498,5.3498,5.3498,5.3498,5.3498,5.3498,5.3498,5.3498,5.3498,5.3498,5.344,5.2995,5.284,5.284,5.284,5.284,5.284,5.284,5.284,5.284,5.284,5.284,5.284,5.284,5.284,5.284,5.284,5.2891,5.2897,5.2691,5.308,5.3446,5.33,5.3731,5.4148,5.4329,5.4606,5.4791,5.4695,5.468,5.4707,5.4799,5.4791,5.478,5.478,5.4651,5.4552,5.4552,5.4455,5.4315,5.409,5.3915,5.3733,5.3456,5.3311,5.294,5.2308,5.2289,5.1992,5.1398,5.1398,5.1398,5.1398,5.1398,5.1398,4.7363,4.7871,4.8379,4.9258,5.0098,5.0723,5.0723,5.1074,5.1406,5.1406,5.1406,0.0,0.0,0.0,0.0,0.0,0.0,0.0,5.2431,5.2896,5.3407,0.0,5.4587,0.0,5.4791,5.4718,5.4655,0.0,5.3977,5.3533,5.3506,5.3498,5.3498,5.3498,5.3498,5.3498,5.3498,5.3884,5.4078,5.4078,5.4426,5.46,5.46,5.46,5.46,5.46,0.0,5.46,5.46,5.46,5.46,5.46,5.46,5.46,5.46,5.46,5.46,5.46,5.46,5.46,5.4484,5.373,5.3498,5.3498,5.3498,5.3498,5.3498,5.3498,5.3498,5.3498,5.3498,5.3498,5.3481,5.3383,5.3514,5.3573,5.3376,5.3784,5.413,5.3974,5.4289,5.4597,5.4597,5.4695,5.4757,5.4726,5.4726,5.4742,5.4776,5.4714,5.4686,5.4686,5.4587,5.447,5.4384,5.432,5.4234,5.4146,5.4018,5.3963,5.3963,5.3851,5.359,5.3144,5.3144,5.2902,5.2457,5.2457,5.2457,5.2457,5.2457,5.2457,4.7519,4.8398,4.9277,5.0136,5.0879,5.1406,5.1406,5.1386,5.1386,5.1406,0.0,5.1386,5.1406,5.1341,5.1302,5.1297,0.0,5.1558,5.2507,5.3301,5.4119,5.502,5.5752,5.6168,5.6168,5.6064,5.6012,5.6012,5.4658,5.3826,5.3826,5.3826,5.3826,5.3826,5.3826,5.3826,5.3826,5.4581,5.4967,5.4967,5.5664,5.6012,5.6012,5.6012,5.6012,5.6012,5.6012,0.0,5.6012,5.6012,5.6012,5.6012,5.6012,5.6012,5.6012,5.6012,5.6012,5.6012,5.6012,5.6012,5.576,5.4291,5.3826,5.3826,5.3826,5.3826,5.3826,5.3826,5.3826,5.3826,5.3826,5.3826,5.3793,5.36,5.3991,5.4315,5.4129,5.4467,5.4776,5.4613,5.4581,5.4597,5.4597,5.4629,5.4695,5.4837,5.4871,5.4791,5.4597,5.4489,5.4424,5.439,5.4409,5.4321,5.4145,5.4145,5.4055,5.3889,5.3851,5.3851,5.3851,5.3813,5.3813,5.3813,5.3813,5.3813,5.3813,5.3813,5.3813,5.3813,5.3813,5.3813,4.8305,4.9232,5.0156,5.0923,5.1264,5.1406,5.1406,5.1361,0.0,0.0,0.0,5.1334,5.1386,5.1386,5.1363,5.1302,0.0,0.0,0.0,0.0,5.4181,0.0,0.0,0.0,0.0,0.0,0.0,0.0,0.0,5.5567,5.5567,5.5567,5.5567,5.5567,5.5567,5.5567,5.5567,5.5722,5.5799,5.5799,5.5935,5.6012,5.6012,5.6012,5.6012,5.6012,5.6012,0.0,5.6012,5.6012,5.6012,5.6012,5.6012,5.6012,5.6012,5.6012,5.6012,5.6012,5.6012,5.6012,5.5954,5.5664,5.5567,5.5567,5.5567,5.5567,5.5567,5.5567,5.5567,5.5567,5.5567,5.5567,5.5559,5.5513,5.54,5.5231,5.5014,5.4727,5.4472,5.4441,5.4519,5.4597,5.4597,5.4726,5.4807,5.4661,5.4645,5.46,5.4439,5.4503,5.4519,5.4407,5.4409,5.4392,5.4339,5.4339,5.4321,5.4304,5.4127,5.4055,5.4055,5.3889,5.3813,5.3813,5.3813,5.3813,5.3813,5.3813,5.3813,5.3813,5.3813,5.3813,4.8493,4.9375,5.0281,5.1105,5.1295,5.1318,5.1337,0.0,0.0,0.0,0.0,5.1363,5.1386,0.0,0.0,0.0,0.0,0.0,0.0,0.0,0.0,0.0,0.0,0.0,0.0,0.0,0.0,0.0,0.0,5.6012,5.6012,5.6012,5.6012,5.6012,5.6012,5.6012,5.6012,5.6012,5.6012,5.6012,5.6012,5.6012,5.6012,5.6012,5.6012,5.6012,5.6012,0.0,5.6012,5.6012,5.6012,5.6012,5.6012,5.6012,5.6012,5.6012,5.6012,5.6012,5.6012,5.6012,5.6012,5.6012,5.6012,5.6012,5.6012,5.6012,5.6012,5.6012,5.6012,5.6012,5.6012,5.6012,5.5949,5.5778,5.5461,5.513,5.4933,5.4769,5.467,5.467,5.4714,5.4776,5.4776,5.4742,5.4711,5.4613,5.4552,5.4439,5.4269,5.4301,5.4352,5.4409,5.4409,5.4356,5.4233,5.4233,5.4199,5.4073,5.4,5.3944,5.3944,5.3851,5.3813,5.3813,5.3813,5.3813,5.3813,5.3813,5.3813,5.3813,5.3813,5.3813,4.8539,4.9445,5.0418,5.1091,5.1236,5.1218,5.1272,5.1272,0.0,0.0,0.0,5.1363,5.1386,0.0,0.0,0.0,0.0,0.0,0.0,0.0,0.0,0.0,0.0,0.0,0.0,0.0,0.0,0.0,5.6012,5.6012,5.6012,5.6012,5.6012,5.6012,5.6012,5.6012,5.6012,5.6012,5.6012,5.6012,5.6012,5.6012,5.6012,5.6012,5.6012,5.6012,5.6012,0.0,0.0,5.6012,5.6012,5.6012,5.6012,5.6012,5.6012,5.6012,5.6012,5.6012,5.6012,5.6012,5.6012,5.6012,5.6012,5.6012,5.6012,5.6012,5.6012,5.6012,5.6012,5.6012,5.6012,5.5986,5.5875,5.5508,5.5189,5.4912,5.4711,5.4791,5.4901,5.4901,5.4871,5.4837,5.4837,5.468,5.4533,5.45,5.4405,5.4269,5.4055,5.4036,5.4091,5.4252,5.4269,5.4217,5.4055,5.4036,5.3963,5.3813,5.3813,5.3813,5.3813,5.3813,5.3813,5.3813,5.3813,5.3813,5.3813,5.3813,5.3813,5.3813,5.3813,5.3813,4.861,4.9823,5.1098,5.1102,5.1167,5.1203,5.1211,0.0,0.0,0.0,5.1263,5.1263,5.1385,5.1357,0.0,0.0,0.0,0.0,0.0,0.0,0.0,0.0,0.0,0.0,0.0,0.0,0.0,0.0,5.6012,5.6012,5.6012,5.6012,5.6012,5.6012,5.6012,5.6012,5.6012,5.6012,5.6012,5.6012,5.6012,5.6012,5.6012,5.6012,5.6012,5.6012,5.6012,0.0,0.0,5.6012,5.6012,5.6012,5.6012,5.6012,5.6012,5.6012,5.6012,5.6012,5.6012,5.6012,5.6012,5.6012,5.6012,5.6012,5.6012,5.6012,5.6012,5.6012,5.6012,5.6012,5.6012,5.5913,5.5716,5.5314,5.5203,5.5121,5.4912,5.4886,5.4901,5.4901,5.4742,5.4629,5.4629,5.4522,5.4356,5.4162,5.4145,5.4055,5.3851,5.3832,5.3832,5.3851,5.387,5.3851,5.3832,5.3832,5.3813,5.3813,5.3813,5.3813,5.3813,5.3813,5.3813,5.3813,5.3813,5.3813,5.3813,5.3813,5.3813,5.3813,5.3813,5.3813,4.8719,4.9805,5.1122,5.1117,5.1062,5.1042,5.1116,0.0,0.0,0.0,5.1191,5.1222,5.1274,5.1263,5.1222,0.0,0.0,0.0,0.0,0.0,0.0,0.0,0.0,0.0,0.0,0.0,0.0,5.6012,5.6012,5.6012,5.6012,5.6012,5.6012,5.6012,5.6012,5.6012,5.6012,5.6012,5.6012,5.6012,5.6012,5.6012,5.6012,5.6012,5.6012,5.6012,5.6012,0.0,0.0,5.6012,5.6012,5.6012,5.6012,5.6012,5.6012,5.6012,5.6012,5.6012,5.6012,5.6012,5.6012,5.6012,5.6012,5.6012,5.6012,5.6012,5.6012,5.6012,5.6012,5.5986,5.5904,5.5654,5.5389,5.5236,5.5107,5.5,5.4916,5.4901,5.4901,5.4901,5.4837,5.4742,5.4613,5.4489,5.4339,5.4127,5.4,5.3889,5.3813,5.3813,5.3813,5.3813,5.3813,5.3813,5.3813,5.3813,5.3813,5.3813,5.3813,5.3813,5.3813,5.3813,5.3813,5.3813,5.3813,5.3813,5.3813,5.3813,5.3813,5.3813,5.3813,5.3813,4.9006,4.9937,5.103,5.1043,5.0961,5.091,0.0,0.0,0.0,5.1093,5.1152,5.117,5.1195,5.1178,5.1157,0.0,0.0,0.0,0.0,0.0,0.0,0.0,0.0,0.0,0.0,5.6012,5.6012,5.6012,5.6012,5.6012,5.6012,5.6012,5.6012,5.6012,5.6012,5.6012,5.6012,5.6012,5.6012,5.6012,5.6012,5.6012,5.6012,5.6012,5.6012,5.6012,5.6012,0.0,0.0,5.6012,5.6012,5.6012,5.6012,5.6012,5.6012,5.6012,5.6012,5.6012,5.6012,5.6012,5.6012,5.6012,5.6012,5.6012,5.6012,5.6012,5.6012,5.6012,5.5977,5.5885,5.5684,5.5413,5.5189,5.5121,5.5,5.4901,5.4901,5.4901,5.4901,5.4901,5.4837,5.4742,5.4568,5.4422,5.4252,5.4036,5.3889,5.3813,5.3813,5.3813,5.3813,5.3813,5.3813,5.3813,5.3813,5.3813,5.3813,5.3813,5.3813,5.3813,5.3813,5.3813,5.3813,5.3813,5.3813,5.3813,5.3813,5.3813,5.3813,5.3813,5.3813,5.3813,4.9576,5.0329,5.0897,5.089,5.0898,5.0898,0.0,0.0,0.0,5.1075,5.1105,5.112,5.1187,5.1142,5.1105,5.1105,0.0,0.0,0.0,0.0,0.0,0.0,0.0,0.0,0.0,5.6012,5.6012,5.6012,5.6012,0.0,5.6012,5.6012,5.6012,5.6012,5.6012,5.6012,5.6012,5.6012,5.6012,5.6012,5.6012,5.6012,5.6012,5.6012,5.6012,5.6012,0.0,0.0,0.0,5.6012,5.6012,5.6012,5.6012,5.6012,5.6012,5.6012,5.6012,5.6012,5.6012,5.6012,5.6012,5.6012,5.6012,5.6012,5.6012,5.6012,5.6012,5.6012,5.5913,5.5714,5.5301,5.5197,5.5149,5.4941,5.4901,5.4901,5.4901,5.4901,5.4901,5.4901,5.4742,5.4549,5.4424,5.4252,5.4036,5.3832,5.3813,5.3813,5.3813,5.3813,5.3813,5.3813,5.3813,5.3813,5.3813,5.3813,5.3813,5.3813,5.3813,5.3813,5.3813,5.3813,5.3813,5.3813,5.3813,5.3813,5.3813,5.3813,5.3813,5.3813,5.3813,5.3813,4.9671,5.0279,5.0819,5.0836,5.0836,5.0836,5.0836,0.0,5.0861,5.0941,5.0963,5.0966,5.0998,5.097,5.0954,5.0954,5.0937,0.0,0.0,0.0,0.0,0.0,0.0,0.0,0.0,0.0,5.6012,5.6012,5.6012,5.6012,5.6012,5.6012,5.6012,5.6012,5.6012,5.6012,5.6012,5.6012,5.6012,5.6012,5.6012,5.6012,5.6012,5.6012,5.6012,0.0,0.0,0.0,0.0,5.6012,5.6012,5.6012,5.6012,5.6012,5.6012,5.6012,5.6012,5.6012,5.6012,5.6012,5.6012,5.6012,5.6012,5.6012,5.6012,5.6012,5.5986,5.5895,5.5621,5.5364,5.5223,5.5094,5.4971,5.4916,5.4901,5.4901,5.4901,5.4901,5.4871,5.4726,5.4645,5.4517,5.4251,5.4145,5.4036,5.3832,5.3813,5.3813,5.3813,5.3813,5.3813,5.3813,5.3813,5.3813,5.3813,5.3813,5.3813,5.3813,5.3813,5.3813,5.3813,5.3813,5.3813,5.3813,5.3813,5.3813,5.3813,5.3813,5.3813,5.3813,5.3813,5.3813,0.0,5.0473,5.0775,5.0793,5.0801,0.0,0.0,0.0,5.081,5.0855,5.0855,5.0872,5.0893,5.0901,5.0901,5.0898,5.0898,0.0,0.0,0.0,0.0,0.0,0.0,0.0,0.0,5.6012,5.6012,5.6012,5.6012,5.6012,5.6012,5.6012,5.6012,5.6012,5.6012,5.6012,5.6012,5.6012,5.6012,5.6012,5.6012,5.6012,5.6012,5.6012,5.6012,0.0,0.0,0.0,0.0,5.6012,5.6012,5.6012,5.6012,5.6012,5.6012,5.6012,5.6012,5.6012,5.6012,5.6012,5.6012,5.6012,5.6012,5.6012,5.6012,5.5949,5.5885,5.5726,5.5449,5.517,5.5107,5.5,5.4901,5.4901,5.4901,5.4886,5.4807,5.4791,5.4726,5.4552,5.4519,5.4437,5.4163,5.4109,5.4036,5.3832,5.3813,5.3813,5.3813,5.3813,5.3813,5.3813,5.3813,5.3813,5.3813,5.3813,5.3813,5.3813,5.3813,5.3813,5.3813,5.3813,5.3813,5.3813,5.3813,5.3813,5.3813,5.3813,5.3813,5.3813,5.3813,5.3813,0.0,0.0,0.0,0.0,0.0,0.0,0.0,0.0,0.0,0.0,5.0793,5.081,5.0891,5.0899,5.0897,5.089,5.0898,0.0,0.0,5.2995,0.0,0.0,5.6012,0.0,5.6012,5.6012,5.6012,5.6012,5.6012,5.6012,5.6012,5.6012,5.6012,5.6012,5.6012,5.6012,5.6012,5.6012,5.6012,5.6012,5.6012,5.6012,5.6012,5.6012,5.6012,0.0,0.0,0.0,0.0,5.6012,5.6012,5.6012,5.6012,5.6012,5.6012,5.6012,5.6012,5.6012,5.6012,5.6012,5.6003,5.6003,5.6003,5.6003,5.5975,5.5895,5.5745,5.5551,5.5339,5.5135,5.496,5.4901,5.4901,5.4886,5.4886,5.4822,5.4629,5.4581,5.4533,5.4407,5.4373,5.4321,5.4109,5.4073,5.4018,5.3832,5.3813,5.3813,5.3813,5.3813,5.3813,5.3813,5.3813,5.3813,5.3813,5.3813,5.3813,5.3813,5.3813,5.3813,5.3813,5.3813,5.3813,5.3813,5.3813,5.3813,5.3813,5.3813,5.3813,5.3813,5.3813,5.3813,0.0,0.0,0.0,0.0,0.0,0.0,0.0,0.0,0.0,0.0,0.0,5.0766,5.0883,5.0899,5.0897,5.089,5.0898,5.1196,5.2066,0.0,0.0,5.5877,5.6012,5.6012,5.6012,5.6012,5.6012,5.6012,5.6012,5.6012,5.6012,5.6012,5.6012,5.6012,5.6012,5.6012,5.6012,5.6012,5.6012,5.6012,5.6012,5.6012,5.6012,5.6012,5.6012,0.0,0.0,0.0,5.6012,5.6012,5.6012,5.6012,5.6012,5.6012,5.6012,5.6012,5.6012,5.6012,5.6012,5.6012,5.6003,5.6007,5.5989,5.5971,5.5817,5.5673,5.5562,5.5516,5.5242,5.4956,5.4916,5.4901,5.4871,5.4711,5.4661,5.4632,5.4472,5.4458,5.4388,5.4198,5.4163,5.4109,5.3907,5.387,5.3851,5.3813,5.3813,5.3813,5.3813,5.3813,5.3813,5.3813,5.3813,5.3813,5.3813,5.3813,5.3813,5.3813,5.3813,5.3813,5.3813,5.3813,5.3813,5.3813,5.3813,5.3813,5.3813,5.3813,5.3813,5.3813,5.3813,5.3813,0.0,0.0,0.0,0.0,0.0,0.0,0.0,0.0,0.0,0.0,0.0,0.0,5.0838,5.0855,5.0852,5.089,5.1235,0.0,0.0,0.0,5.5509,5.5954,5.6012,5.6012,0.0,5.6012,5.6012,5.6012,5.6012,5.6012,5.6012,5.6012,5.6012,5.6012,5.6012,5.6012,5.6012,5.6012,5.6012,5.6012,5.6012,5.6012,5.6012,5.6012,5.6012,0.0,0.0,0.0,5.6012,5.6012,5.5995,5.5996,5.6003,5.5995,5.5996,5.6003,5.6012,5.6012,5.6012,5.5995,5.5969,5.5788,5.5717,5.5686,5.5408,5.5282,5.5243,5.5339,5.5135,5.4901,5.4901,5.4822,5.4726,5.4629,5.4549,5.4453,5.4285,5.4269,5.4198,5.4,5.3963,5.3926,5.3832,5.3813,5.3813,5.3813,5.3813,5.3813,5.3813,5.3813,5.3813,5.3813,5.3813,5.3813,5.3813,5.3813,5.3813,5.3813,5.3813,5.3813,5.3813,5.3813,5.3813,5.3813,5.3813,5.3813,5.3813,5.3813,5.3813,5.3813,5.3813,5.3813,0.0,0.0,0.0,0.0,0.0,0.0,0.0,0.0,0.0,0.0,0.0,0.0,0.0,0.0,0.0,0.0,0.0,0.0,5.4561,5.549,5.6012,5.6012,5.6012,0.0,5.6012,5.6012,5.6012,5.6012,5.6012,5.6012,5.6012,5.6012,5.6012,5.6012,5.6012,5.6012,5.6012,5.6012,5.6012,5.6012,5.6012,5.6003,5.5995,5.5995,5.5995,5.5986,0.0,0.0,5.5995,5.6003,5.5996,5.5999,5.6005,5.5987,5.599,5.5968,5.5986,5.5986,5.5986,5.5979,5.5924,5.5527,5.5384,5.5317,5.495,5.4848,5.4895,5.5047,5.4966,5.4856,5.4826,5.4698,5.4549,5.4533,5.4455,5.4304,5.4091,5.4055,5.4,5.3832,5.3813,5.3813,5.3813,5.3813,5.3813,5.3813,5.3813,5.3813,5.3813,5.3813,5.3813,5.3813,5.3813,5.3813,5.3813,5.3813,5.3813,5.3813,5.3813,5.3813,5.3813,5.3813,5.3813,5.3813,5.3813,5.3813,5.3813,5.3813,5.3813,5.3813,5.3813,5.3813,0.0,0.0,0.0,0.0,0.0,0.0,0.0,0.0,0.0,0.0,0.0,0.0,0.0,0.0,0.0,0.0,0.0,5.3652,0.0,0.0,5.6012,5.6012,0.0,5.6012,5.6012,5.6012,5.6012,5.6012,5.6012,5.6012,5.6012,5.6012,5.6012,5.6012,5.6012,5.6012,5.6012,5.6012,5.6012,5.6012,5.6012,5.6005,5.6008,5.6008,5.5961,5.5924,0.0,5.6008,5.6008,5.5995,5.5996,5.5999,5.5999,5.5971,5.5914,5.5914,5.5924,5.5924,5.5924,5.5914,5.5846,5.5439,5.5324,5.5237,5.4787,5.4657,5.4629,5.4554,5.4584,5.4632,5.4508,5.4458,5.439,5.4233,5.4163,5.4091,5.3889,5.3851,5.3851,5.3813,5.3813,5.3813,5.3813,5.3813,5.3813,5.3813,5.3813,5.3813,5.3813,5.3813,5.3813,5.3813,5.3813,5.3813,5.3813,5.3813,5.3813,5.3813,5.3813,5.3813,5.3813,5.3813,5.3813,5.3813,5.3813,5.3813,5.3813,5.3813,5.3813,5.3813,5.3813,5.3813,5.025,0.0,0.0,0.0,0.0,0.0,0.0,0.0,0.0,0.0,0.0,0.0,0.0,0.0,5.1046,5.2086,0.0,5.4459,5.5326,5.578,5.6012,0.0,0.0,5.6012,5.6012,5.6012,5.6012,5.6012,5.6005,5.6007,5.6007,5.596,5.5951,5.5951,5.5951,5.5951,5.5951,5.5951,5.596,5.6007,5.6007,5.598,5.5953,5.5953,5.5924,5.5895,0.0,5.5953,5.5953,5.5961,5.5923,5.5905,5.5924,5.5905,5.5846,5.5885,5.5895,5.5895,5.5856,5.5846,5.5756,5.5205,5.5026,5.4914,5.433,5.4231,5.4301,5.4127,5.4285,5.4472,5.4407,5.4321,5.4198,5.4127,5.4018,5.3907,5.3813,5.3813,5.3813,5.3813,5.3813,5.3813,5.3813,5.3813,5.3813,5.3813,5.3813,5.3813,5.3813,5.3813,5.3813,5.3813,5.3813,5.3813,5.3813,5.3813,5.3813,5.3813,5.3813,5.3813,5.3813,5.3813,5.3813,5.3813,5.3813,5.3813,5.3813,5.3813,5.3813,5.3813,5.3813,5.3813,5.0231,5.0712,0.0,0.0,0.0,0.0,0.0,0.0,0.0,0.0,0.0,0.0,0.0,5.0884,0.0,5.3366,5.4234,5.4986,5.5852,5.5977,5.5977,5.5977,5.5986,5.5986,5.5977,5.5986,5.5986,5.5977,5.598,5.5981,5.5981,5.5943,5.5895,5.5895,5.5895,5.5895,5.5895,5.5895,5.5933,5.5981,5.5981,5.5933,5.5885,5.5885,5.5875,5.5846,5.5875,5.5885,5.5885,5.5895,5.5856,5.5816,5.5865,5.5836,5.5776,5.5826,5.5846,5.5855,5.5787,5.5735,5.5596,5.4976,5.4746,5.4576,5.3981,5.3907,5.4,5.3832,5.4018,5.4269,5.4269,5.4163,5.4036,5.4036,5.3907,5.3813,5.3813,5.3813,5.3813,5.3813,5.3813,5.3813,5.3813,5.3813,5.3813,5.3813,5.3813,5.3813,5.3813,5.3813,5.3813,5.3813,5.3813,5.3813,5.3813,5.3813,5.3813,5.3813,5.3813,5.3813,5.3813,5.3813,5.3813,5.3813,5.3813,5.3813,5.3813,5.3813,5.3813,5.3813,5.3813,5.3813,5.0231,5.0712,0.0,0.0,0.0,0.0,0.0,0.0,0.0,0.0,0.0,0.0,0.0,5.1412,5.252,5.4169,5.4526,5.4901,5.577,0.0,5.5905,5.5905,5.5952,5.5981,5.5914,5.5952,5.5961,5.5914,5.5905,5.5905,5.5905,5.5895,5.5895,5.5895,5.5895,5.5895,5.5895,5.5895,5.5895,5.5905,5.5905,5.5856,5.5816,5.5816,5.5766,5.5724,5.5776,5.5816,5.5797,5.5866,5.5856,5.5797,5.5816,5.5766,5.5714,5.5714,5.5714,5.5714,5.5714,5.5531,5.5288,5.4909,5.4591,5.4281,5.3926,5.3813,5.3832,5.3794,5.3813,5.3832,5.3832,5.3832,5.3813,5.3813,5.3794,5.3813,5.3813,5.3813,5.3813,5.3813,5.3813,5.3813,5.3813,5.3813,5.3813,5.3813,5.3813,5.3813,5.3813,5.3813,5.3813,5.3813,5.3813,5.3813,5.3813,5.3813,5.3813,5.3813,5.3813,5.3813,5.3813,5.3813,5.3813,5.3813,5.3813,5.3813,5.3813,5.3813,5.3813,5.3813,5.3813,5.3813,5.0231,5.0712,0.0,0.0,0.0,0.0,0.0,0.0,0.0,0.0,0.0,0.0,0.0,0.0,5.3783,5.44,5.4978,5.548,5.5856,5.5895,5.5895,5.5895,5.5914,5.5943,5.5895,5.5914,5.5943,5.5895,5.5856,5.5836,5.5836,5.5806,5.5785,5.5785,5.5785,5.5785,5.5785,5.5785,5.5785,5.5785,5.5816,5.5787,5.5735,5.5735,5.5724,5.5703,5.5735,5.5735,5.5745,5.5775,5.5756,5.5735,5.5735,5.5724,5.5703,5.5703,5.5703,5.5682,5.5516,5.5376,5.5204,5.467,5.4397,5.4246,5.3889,5.3813,5.3813,5.3813,5.3813,5.3813,5.3813,5.3813,5.3813,5.3813,5.3813,5.3813,5.3813,5.3813,5.3813,5.3813,5.3813,5.3813,5.3813,5.3813,5.3813,5.3813,5.3813,5.3813,5.3813,5.3813,5.3813,5.3813,5.3813,5.3813,5.3813,5.3813,5.3813,5.3813,5.3813,5.3813,5.3813,5.3813,5.3813,5.3813,5.3813,5.3813,5.3813,5.3813,5.3813,5.3813,5.3813,5.3813,4.9894,5.05,0.0,0.0,0.0,0.0,0.0,0.0,0.0,0.0,0.0,0.0,0.0,0.0,0.0,0.0,5.5381,5.5776,5.5826,5.5836,5.5836,5.5836,5.5865,5.5846,5.5836,5.5865,5.5846,5.5836,5.5787,5.5766,0.0,5.5724,5.5703,5.5703,5.5703,5.5703,5.5703,5.5703,5.5703,5.5703,5.5745,5.5745,5.5703,5.5703,5.5703,5.5703,5.5703,5.5703,5.5703,5.5703,5.5703,5.5703,5.5703,5.5703,5.5703,5.5703,5.5703,5.5651,5.5389,5.5236,5.5037,5.4479,5.4229,5.4107,5.387,5.3813,5.3813,5.3813,5.3813,5.3813,5.3813,5.3813,5.3813,5.3813,5.3813,5.3813,5.3813,5.3813,5.3813,5.3813,5.3813,5.3813,5.3813,5.3813,5.3813,5.3813,5.3813,5.3813,5.3813,5.3813,5.3813,5.3813,5.3813,5.3813,5.3813,5.3813,5.3813,5.3813,5.3813,5.3813,5.3813,5.3813,5.3813,5.3813,5.3813,5.3813,5.3813,5.3813,5.3813,5.3813,5.3813,5.3813,4.9163,5.0029,0.0,0.0,0.0,0.0,0.0,0.0,0.0,0.0,0.0,0.0,0.0,0.0,0.0,5.5568,5.5703,5.5703,5.5703,5.5703,5.5703,5.5703,5.5756,5.5766,5.5714,5.5756,5.5766,5.5695,5.5703,5.5703,0.0,5.5703,5.5703,5.5703,5.5703,5.5703,5.5703,5.5703,5.5703,5.5703,5.5703,5.5703,5.5703,5.5703,5.5703,5.5703,5.5703,5.5703,5.5703,5.5703,5.5703,5.5703,5.5703,5.5703,5.5703,5.5703,5.5703,5.5651,5.5389,5.5083,5.4746,5.4397,5.4072,5.3813,5.3813,5.3813,5.3813,5.3813,5.3813,5.3813,5.3813,5.3813,5.3813,5.3813,5.3813,5.3813,5.3813,5.3813,5.3813,5.3813,5.3813,5.3813,5.3813,5.3813,5.3813,5.3813,5.3813,5.3813,5.3813,5.3813,5.3813,5.3813,5.3813,5.3813,5.3813,5.3813,5.3813,5.3813,5.3813,5.3813,5.3813,5.3813,5.3813,5.3813,5.3813,5.3813,5.3813,5.3813,5.3813,5.3813,5.3813,5.3813,4.9154,0.0,0.0,0.0,0.0,0.0,0.0,0.0,0.0,0.0,0.0,0.0,0.0,0.0,0.0,5.5665,5.5703,5.5703,5.5703,5.5703,5.5703,5.5703,5.5724,5.5724,5.5714,5.5724,5.5724,5.5703,5.5703,0.0,0.0,5.5703,5.5703,5.5703,5.5703,5.5703,5.5703,5.5703,5.5703,5.5703,5.5703,5.5703,5.5703,5.5703,5.5703,5.5703,5.5703,5.5703,5.5703,5.5703,5.5703,5.5703,5.5703,5.5703,5.5703,5.5703,5.5585,5.5376,5.5069,5.4731,5.438,5.4054,5.3889,5.3813,5.3813,5.3813,5.3813,5.3813,5.3813,5.3813,5.3813,5.3813,5.3813,5.3813,5.3813,5.3813,5.3813,5.3813,5.3813,5.3813,5.3813,5.3813,5.3813,5.3813,5.3813,5.3813,5.3813,5.3813,5.3813,5.3813,5.3813,5.3813,5.3813,5.3813,5.3813,5.3813,5.3813,5.3813,5.3813,5.3813,5.3813,5.3813,5.3813,5.3813,5.3813,5.3813,5.3813,5.3813,5.3813,5.3813,5.3813,5.3813,4.8654,0.0,0.0,0.0,0.0,0.0,0.0,0.0,0.0,0.0,0.0,0.0,0.0,0.0,0.0,5.5703,5.5703,5.5703,5.5703,5.5703,5.5703,5.5703,5.5703,5.5703,5.5703,5.5703,5.5703,5.5703,5.5703,0.0,0.0,5.5703,5.5703,5.5703,5.5703,5.5703,5.5703,5.5703,5.5703,5.5703,5.5703,5.5703,5.5703,5.5703,5.5703,5.5703,5.5703,5.5703,5.5703,5.5703,5.5703,5.5703,5.5703,5.5703,5.5703,5.5703,5.5539,5.5262,5.4909,5.4576,5.4246,5.3926,5.3813,5.3813,5.3813,5.3813,5.3813,5.3813,5.3813,5.3813,5.3813,5.3813,5.3813,5.3813,5.3813,5.3813,5.3813,5.3813,5.3813,5.3813,5.3813,5.3813,5.3813,5.3813,5.3813,5.3813,5.3813,5.3813,5.3813,5.3813,5.3813,5.3813,5.3813,5.3813,5.3813,5.3813,5.3813,5.3813,5.3813,5.3813,5.3813,5.3813,5.3813,5.3813,5.3813,5.3813,5.3813,5.3813,5.3813,5.3813,5.3813,5.3813,0.0,0.0,0.0,0.0,0.0,0.0,0.0,0.0,0.0,0.0,0.0,0.0,0.0,5.4568,5.5703,5.5703,5.5703,5.5703,5.5703,5.5703,5.5703,5.5703,5.5703,5.5703,5.5703,5.5703,5.5703,5.5703,0.0,0.0,5.5703,5.5703,5.5703,5.5703,5.5703,5.5703,5.5703,5.5703,5.5703,5.5703,5.5703,5.5703,5.5703,5.5703,5.5703,5.5703,5.5703,5.5703,5.5703,5.5703,5.5703,5.5703,5.5662,5.5651,5.5651,5.5629,5.543,5.5164,5.4866,5.4528,5.4194,5.3907,5.3813,5.3813,5.3813,5.3813,5.3813,5.3813,5.3813,5.3813,5.3813,5.3813,5.3813,5.3813,5.3813,5.3813,5.3813,5.3813,5.3813,5.3813,5.3813,5.3813,5.3813,5.3813,5.3813,5.3813,5.3813,5.3813,5.3813,5.3813,5.3813,5.3813,5.3813,5.3813,5.3813,5.3813,5.3813,5.3813,5.3813,5.3813,5.3813,5.3813,5.3813,5.3813,5.3813,5.3813,5.3813,5.3813,5.3813,5.3813,5.3813,5.3813,0.0,4.8575,0.0,0.0,0.0,0.0,0.0,0.0,0.0,0.0,0.0,0.0,5.3203,5.4568,5.5703,5.5703,5.5703,5.5703,5.5703,5.5703,5.5703,5.5703,5.5703,5.5703,5.5703,5.5703,5.5703,5.5703,0.0,0.0,5.5703,5.5703,5.5703,5.5703,5.5703,5.5703,5.5703,5.5703,5.5703,0.0,5.5703,5.5703,5.5703,5.5703,5.5703,5.5703,5.5703,5.5703,5.5703,5.5703,5.5703,5.5692,5.5461,5.5389,5.5351,5.5091,5.4787,5.4493,5.443,5.4177,5.3907,5.3813,5.3813,5.3813,5.3813,5.3813,5.3813,5.3813,5.3813,5.3813,5.3813,5.3813,5.3813,5.3813,5.3813,5.3813,5.3813,5.3813,5.3813,5.3813,5.3813,5.3813,5.3813,5.3813,5.3813,5.3813,5.3813,5.3813,5.3813,5.3813,5.3813,5.3813,5.3813,5.3813,5.3813,5.3813,5.3813,5.3813,5.3813,5.3813,5.3813,5.3813,5.3813,5.3813,5.3813,5.3813,5.3813,5.3813,5.3813,5.3813,5.3813,5.3813,0.0,0.0,0.0,0.0,0.0,0.0,0.0,0.0,0.0,0.0,5.1702,5.2712,5.3126,5.426,5.5241,5.5645,5.5703,5.5703,5.5703,5.5703,5.5703,5.5703,5.5703,5.5703,5.5703,5.5703,5.5703,5.5703,0.0,5.5703,5.5703,5.5703,5.5703,5.5703,5.5703,5.5703,5.5703,5.5703,5.5703,5.5703,5.5703,5.5703,5.5703,5.5703,5.5703,5.5684,5.5554,5.5585,5.5692,5.5394,5.5369,5.5473,5.5178,5.5069,5.5042,5.4866,5.4591,5.4315,5.4315,5.4089,5.3813,5.3813,5.3813,5.3813,5.3813,5.3813,5.3813,5.3813,5.3813,5.3813,5.3813,5.3813,5.3813,5.3813,5.3813,5.3813,5.3813,5.3813,5.3813,5.3813,5.3813,5.3813,5.3813,5.3813,5.3813,5.3813,5.3813,5.3813,5.3813,5.3813,5.3813,5.3813,5.3813,5.3813,5.3813,5.3813,5.3813,5.3813,5.3813,5.3813,5.3813,5.3813,5.3813,5.3813,5.3813,5.3813,5.3813,5.3813,5.3813,5.3813,5.3813,5.3813,0.0,0.0,0.0,0.0,0.0,0.0,0.0,0.0,0.0,0.0,5.1267,5.2173,5.3049,5.3914,5.4761,5.5568,5.5703,5.5703,5.5703,5.5703,5.5703,5.5703,5.5703,5.5703,5.5703,5.5703,5.5703,0.0,0.0,5.5703,5.5703,5.5703,5.5703,5.5703,5.5703,5.5703,5.5703,5.5703,5.5703,5.5703,5.5703,5.5703,5.5703,5.5703,5.5662,5.5618,5.5389,5.5401,5.5508,5.5009,5.4952,5.5178,5.4851,5.4716,5.4716,5.4654,5.4446,5.4212,5.4212,5.4017,5.3813,5.3813,5.3813,5.3813,5.3813,5.3813,5.3813,5.3813,5.3813,5.3813,5.3813,5.3813,5.3813,5.3813,5.3813,5.3813,5.3813,5.3813,5.3813,5.3813,5.3813,5.3813,5.3813,5.3813,5.3813,5.3813,5.3813,5.3813,5.3813,5.3813,5.3813,5.3813,5.3813,5.3813,5.3813,5.3813,5.3813,5.3813,5.3813,5.3813,5.3813,5.3813,5.3813,5.3813,5.3813,5.3813,5.3813,5.3813,5.3813,5.3813,5.3813,5.3813,0.0,0.0,0.0,0.0,0.0,0.0,0.0,0.0,0.0,0.0,5.0983,5.2173,5.3049,5.3914,5.4761,5.5568,5.5703,5.5703,5.5703,5.5703,5.5703,5.5703,5.5703,5.5703,5.5703,5.5703,5.5703,0.0,5.5703,5.5703,5.5703,5.5703,5.5703,5.5703,5.5703,5.5703,5.5703,5.5703,5.5703,5.5703,5.5703,5.5703,5.5703,5.5703,5.5573,5.5351,5.5314,5.5164,5.4924,5.4836,5.4821,5.4836,5.4495,5.4382,5.433,5.4035,5.3907,5.387,5.387,5.3832,5.3813,5.3813,5.3813,5.3813,5.3813,5.3813,5.3813,5.3813,5.3813,5.3813,5.3813,5.3813,5.3813,5.3813,5.3813,5.3813,5.3813,5.3813,5.3813,5.3813,5.3813,5.3813,5.3813,5.3813,5.3813,5.3813,5.3813,5.3813,5.3813,5.3813,5.3813,5.3813,5.3813,5.3813,5.3813,5.3813,5.3813,5.3813,5.3813,5.3813,5.3813,5.3813,5.3813,5.3813,5.3813,5.3813,5.3813,5.3813,5.3813,5.3813,5.3813,5.3813,0.0,0.0,0.0,0.0,0.0,0.0,0.0,0.0,4.993,4.9811,5.0285,5.1181,5.2709,5.3288,5.4023,5.5481,5.5703,5.5703,5.5703,5.5703,5.5703,5.5703,5.5703,5.5703,5.5703,5.5703,5.5703,0.0,5.5703,5.5703,5.5703,5.5703,5.5703,5.5703,5.5703,5.5703,5.5703,5.5703,5.5703,5.5703,5.5703,5.5703,5.5684,5.5531,5.5485,5.5516,5.5178,5.5037,5.5042,5.4479,5.4347,5.4479,5.4142,5.4017,5.3999,5.3851,5.3813,5.3813,5.3813,5.3813,5.3813,5.3813,5.3813,5.3813,5.3813,5.3813,5.3813,5.3813,5.3813,5.3813,5.3813,5.3813,5.3813,5.3813,5.3813,5.3813,5.3813,5.3813,5.3813,5.3813,5.3813,5.3813,5.3813,5.3813,5.3813,5.3813,5.3813,5.3813,5.3813,5.3813,5.3813,5.3813,5.3813,5.3813,5.3813,5.3813,5.3813,5.3813,5.3813,5.3813,5.3813,5.3813,5.3813,5.3813,5.3813,5.3813,5.3813,5.3813,5.3813,5.3813,5.3813,5.3813,0.0,0.0,0.0,0.0,0.0,0.0,0.0,0.0,4.9665,0.0,4.9637,5.0217,5.1921,5.2469,5.3237,5.4998,5.5454,5.5618,5.5703,5.5703,5.5703,5.5703,5.5703,5.5703,5.5703,5.5703,5.5703,0.0,5.5703,5.5703,5.5703,5.5703,5.5703,5.5703,5.5703,5.5703,5.5703,5.5703,5.5703,5.5703,5.5703,5.5662,5.5596,5.5389,5.5364,5.5442,5.4905,5.4776,5.4847,5.4106,5.3944,5.4161,5.3907,5.3813,5.3813,5.3813,5.3813,5.3813,5.3813,5.3813,5.3813,5.3813,5.3813,5.3813,5.3813,5.3813,5.3813,5.3813,5.3813,5.3813,5.3813,5.3813,5.3813,5.3813,5.3813,5.3813,5.3813,5.3813,5.3813,5.3813,5.3813,5.3813,5.3813,5.3813,5.3813,5.3813,5.3813,5.3813,5.3813,5.3813,5.3813,5.3813,5.3813,5.3813,5.3813,5.3813,5.3813,5.3813,5.3813,5.3813,5.3813,5.3813,5.3813,5.3813,5.3813,5.3813,5.3813,5.3813,5.3813,5.3813,5.3813,5.3813,0.0,0.0,0.0,0.0,0.0,0.0,0.0,0.0,0.0,4.901,4.919,4.969,5.0544,5.1597,5.271,5.3906,5.4772,5.5401,5.5662,5.5703,5.5703,5.5703,5.5703,5.5703,5.5703,5.5703,5.5703,0.0,5.5703,5.5703,5.5703,5.5703,5.5703,5.5703,5.5703,5.5703,5.5703,5.5703,5.5703,5.5703,5.5703,5.5573,5.5326,5.5301,5.5138,5.4836,5.4479,5.4161,5.387,5.3813,5.3794,5.3813,5.3813,5.3813,5.3813,5.3813,5.3813,5.3813,5.3813,5.3813,5.3813,5.3813,5.3813,5.3813,5.3813,5.3813,5.3813,5.3813,5.3813,5.3813,5.3813,5.3813,5.3813,5.3813,5.3813,5.3813,5.3813,5.3813,5.3813,5.3813,5.3813,5.3813,5.3813,5.3813,5.3813,5.3813,5.3813,5.3813,5.3813,5.3813,5.3813,5.3813,5.3813,5.3813,5.3813,5.3813,5.3813,5.3813,5.3813,5.3813,5.3813,5.3813,5.3813,5.3813,5.3813,5.3813,5.3813,5.3813,5.3813,5.3813,5.3813,5.3813,0.0,0.0,0.0,0.0,0.0,0.0,4.8779,4.8993,4.9044,4.8907,4.9012,4.917,4.9467,5.0866,5.2375,5.3546,5.4429,5.5097,5.5401,5.5437,5.5516,5.5692,5.5703,5.5703,5.5703,5.5703,5.5703,0.0,0.0,5.5703,5.5703,5.5703,5.5703,5.5703,5.5703,5.5703,5.5703,5.5703,5.5703,5.5703,5.5703,5.5562,5.5288,5.5083,5.4806,5.4463,5.4106,5.4035,5.4107,5.3889,5.3813,5.3813,5.3813,5.3813,5.3813,5.3813,5.3813,5.3813,5.3813,5.3813,5.3813,5.3813,5.3813,5.3813,5.3813,5.3813,5.3813,5.3813,5.3813,5.3813,5.3813,5.3813,5.3813,5.3813,5.3813,5.3813,5.3813,5.3813,5.3813,5.3813,5.3813,5.3813,5.3813,5.3813,5.3813,5.3813,5.3813,5.3813,5.3813,5.3813,5.3813,5.3813,5.3813,5.3813,5.3813,5.3813,5.3813,5.3813,5.3813,5.3813,5.3813,5.3813,5.3813,5.3813,5.3813,5.3813,5.3813,5.3813,5.3813,5.3813,5.3813,5.3813,0.0,0.0,0.0,0.0,0.0,4.785,4.8389,0.0,4.8909,4.8909,4.8909,4.8909,4.8909,5.0176,5.1619,5.2832,5.3709,5.4469,5.5211,5.5301,5.5401,5.5662,5.5703,5.5703,5.5703,5.5703,5.5703,0.0,0.0,0.0,5.5703,5.5703,5.5703,5.5703,5.5703,5.5703,5.5703,5.5703,5.5703,5.5703,5.5703,5.5497,5.5124,5.4895,5.456,5.4125,5.3907,5.3926,5.4106,5.3907,5.3813,5.3813,5.3813,5.3813,5.3813,5.3813,5.3813,5.3813,5.3813,5.3813,5.3813,5.3813,5.3813,5.3813,5.3813,5.3813,5.3813,5.3813,5.3813,5.3813,5.3813,5.3813,5.3813,5.3813,5.3813,5.3813,5.3813,5.3813,5.3813,5.3813,5.3813,5.3813,5.3813,5.3813,5.3813,5.3813,5.3813,5.3813,5.3813,5.3813,5.3813,5.3813,5.3813,5.3813,5.3813,5.3813,5.3813,5.3813,5.3813,5.3813,5.3813,5.3813,5.3813,5.3813,5.3813,5.3813,5.3813,5.3813,5.3813,5.3813,5.3813,5.3813,0.0,0.0,0.0,0.0,0.0,0.0,4.7718,0.0,4.8909,4.8909,4.8909,4.8909,4.8909,4.954,5.0462,5.1656,5.255,5.3601,5.5076,5.5288,5.5389,5.5682,5.5703,5.5703,5.5703,5.5703,5.5703,0.0,5.5703,5.5703,5.5703,5.5703,5.5703,5.5703,5.5703,5.5703,5.5703,5.5703,5.5703,5.5703,5.5703,5.5394,5.4806,5.4806,5.443,5.3813,5.3794,5.3813,5.3813,5.3813,5.3813,5.3813,5.3813,5.3813,5.3813,5.3813,5.3813,5.3813,5.3813,5.3813,5.3813,5.3813,5.3813,5.3813,5.3813,5.3813,5.3813,5.3813,5.3813,5.3813,5.3813,5.3813,5.3813,5.3813,5.3813,5.3813,5.3813,5.3813,5.3813,5.3813,5.3813,5.3813,5.3813,5.3813,5.3813,5.3813,5.3813,5.3813,5.3813,5.3813,5.3813,5.3813,5.3813,5.3813,5.3813,5.3813,5.3813,5.3813,5.3813,5.3813,5.3813,5.3813,5.3813,5.3813,5.3813,5.3813,5.3813,5.3813,5.3813,5.3813,5.3813,5.3813,4.5201,0.0,0.0,0.0,0.0,0.0,0.0,0.0,4.8909,4.8909,4.8909,4.8909,4.8909,4.9076,4.9538,5.0443,5.1802,5.3241,5.4737,5.4938,5.5132,5.564,5.5703,5.5703,5.5703,5.5703,5.5703,0.0,5.5703,5.5703,5.5703,5.5703,5.5703,5.5703,5.5703,5.5703,5.5703,5.5703,5.5703,5.5703,5.5703,5.5508,5.5151,5.4909,5.4576,5.4161,5.3907,5.3813,5.3813,5.3813,5.3813,5.3813,5.3813,5.3813,5.3813,5.3813,5.3813,5.3813,5.3813,5.3813,5.3813,5.3813,5.3813,5.3813,5.3813,5.3813,5.3813,5.3813,5.3813,5.3813,5.3813,5.3813,5.3813,5.3813,5.3813,5.3813,5.3813,5.3813,5.3813,5.3813,5.3813,5.3813,5.3813,5.3813,5.3813,5.3813,5.3813,5.3813,5.3813,5.3813,5.3813,5.3813,5.3813,5.3813,5.3813,5.3813,5.3813,5.3813,5.3813,5.3813,5.3813,5.3813,5.3813,5.3813,5.3813,5.3813,5.3813,5.3813,5.3813,5.3813,5.3813,5.3813,0.0,0.0,0.0,0.0,0.0,0.0,4.7533,4.8381,4.911,4.911,4.911,4.9141,4.9249,4.9171,4.9372,5.0193,5.1127,5.2359,5.405,5.4598,5.5018,5.5629,5.5703,5.5703,5.5703,5.5703,5.5703,5.5703,5.5703,5.5703,5.5703,5.5703,5.5703,5.5703,5.5703,5.5703,5.5703,5.5703,5.5703,5.5703,5.5703,5.5562,5.5288,5.5097,5.4761,5.4298,5.4089,5.3926,5.3813,5.3813,5.3813,5.3813,5.3813,5.3813,5.3813,5.3813,5.3813,5.3813,5.3813,5.3813,5.3813,5.3813,5.3813,5.3813,5.3813,5.3813,5.3813,5.3813,5.3813,5.3813,5.3813,5.3813,5.3813,5.3813,5.3813,5.3813,5.3813,5.3813,5.3813,5.3813,5.3813,5.3813,5.3813,5.3813,5.3813,5.3813,5.3813,5.3813,5.3813,5.3813,5.3813,5.3813,5.3813,5.3813,5.3813,5.3813,5.3813,5.3813,5.3813,5.3813,5.3813,5.3813,5.3813,5.3813,5.3813,5.3813,5.3813,5.3813,5.3813,5.3813,5.3813,5.3813,0.0,0.0,0.0,0.0,0.0,0.0,4.7038,4.8269,4.9442,4.9442,4.9411,4.9472,4.9707,4.9573,4.9624,5.0356,5.0576,5.1299,5.3185,5.4172,5.4912,5.5495,5.5645,5.5703,5.5703,5.5703,5.5703,5.5703,5.5703,5.5703,5.5703,5.5703,5.5703,5.5703,5.5703,5.5703,5.5703,5.5703,5.5703,5.5703,5.5703,5.5585,5.5339,5.5275,5.4924,5.4347,5.4281,5.4072,5.3813,5.3813,5.3813,5.3813,5.3813,5.3813,5.3813,5.3813,5.3813,5.3813,5.3813,5.3813,5.3813,5.3813,5.3813,5.3813,5.3813,5.3813,5.3813,5.3813,5.3813,5.3813,5.3813,5.3813,5.3813,5.3813,5.3813,5.3813,5.3813,5.3813,5.3813,5.3813,5.3813,5.3813,5.3813,5.3813,5.3813,5.3813,5.3813,5.3813,5.3813,5.3813,5.3813,5.3813,5.3813,5.385,5.3943,5.3943,5.398,5.4073,5.4091,5.4091,5.4091,5.4091,5.4091,5.4091,5.398,5.3943,5.3943,5.385,5.3813,5.3813,5.3813,5.3813,0.0,0.0,0.0,0.0,0.0,0.0,4.7555,4.8656,4.9721,4.9721,4.9558,4.943,4.9472,4.9427,4.9437,4.9606,5.0361,5.1291,5.24,5.3482,5.4294,5.469,5.5299,5.5703,5.5703,5.5703,5.5703,5.5703,5.5703,5.5703,5.5703,5.5703,5.5703,5.5703,5.5703,5.5703,5.5703,5.5703,5.5703,5.5703,5.5703,5.5662,5.5607,5.5119,5.4821,5.467,5.4124,5.387,5.3813,5.3813,5.3813,5.3813,5.3813,5.3813,5.3813,5.3813,5.3813,5.3813,5.3813,5.3813,5.3813,5.3813,5.3813,5.3813,5.3813,5.3813,5.3813,5.3813,5.3813,5.3813,5.3813,5.3813,5.3813,5.3813,5.3813,5.3813,5.3813,5.3813,5.3813,5.3813,5.3813,5.3813,5.3813,5.3813,5.3813,5.3813,5.3813,5.3813,5.3813,5.3813,5.3813,5.3813,5.3813,5.4073,5.4723,5.4779,5.5076,5.5782,5.5819,5.5819,5.5819,5.5819,5.5819,5.5819,5.5131,5.4779,5.476,5.4128,5.3813,5.3813,5.3813,5.3813,0.0,0.0,0.0,4.5594,0.0,0.0,0.0,4.8898,4.9993,4.9993,4.9897,4.9844,5.0025,4.9795,4.9641,4.9776,5.0131,5.0602,5.1166,5.2832,5.4125,5.447,5.5203,5.5703,5.5703,5.5703,5.5703,5.5703,5.5703,5.5703,5.5703,5.5703,5.5703,5.5703,5.5703,5.5703,5.5703,5.5703,5.5703,5.5703,5.5703,5.5703,5.5703,5.5394,5.5072,5.4776,5.4446,5.4107,5.3813,5.3813,5.3813,5.3813,5.3813,5.3813,5.3813,5.3813,5.3813,5.3813,5.3813,5.3813,5.3813,5.3813,5.3813,5.3813,5.3813,5.3813,5.3813,5.3813,5.3813,5.3813,5.3813,5.3813,5.3813,5.3813,5.3813,5.3813,5.3813,5.3813,5.3813,5.3813,5.3813,5.3813,5.3813,5.3813,5.3813,5.3813,5.3813,5.3813,5.3813,5.3813,5.3961,5.437,5.4407,5.4741,5.5577,5.5652,5.5837,5.6265,5.6302,5.6302,5.6302,5.6302,5.6302,5.6302,5.5874,5.5652,5.5652,5.5243,5.463,5.3813,5.3813,5.3813,0.0,0.0,0.0,0.0,0.0,4.8289,0.0,0.0,0.0,5.0294,5.023,0.0,0.0,0.0,0.0,0.0,0.0,0.0,0.0,5.2093,0.0,5.4201,5.4972,5.553,5.5684,5.5703,5.5703,5.5703,5.5703,5.5703,5.5703,5.5703,5.5703,5.5703,5.5703,5.5703,5.5703,5.5703,5.5703,5.5703,5.5703,5.5703,5.5703,5.564,5.5357,5.488,5.4761,5.4397,5.3907,5.3832,5.3813,5.3813,5.3813,5.3813,5.3813,5.3813,5.3813,5.3813,5.3813,5.3813,5.3813,5.3813,5.3813,5.3813,5.3813,5.3813,5.3813,5.3813,5.3813,5.3813,5.3813,5.3813,5.3813,5.3813,5.3813,5.3813,5.3813,5.3813,5.3813,5.3813,5.3813,5.3813,5.3813,5.3813,5.3813,5.3813,5.3813,5.3813,5.3813,5.3943,5.4296,5.4946,5.515,5.5614,5.6469,5.6525,5.6599,5.6747,5.6766,5.6766,5.6766,5.6766,5.6766,5.6766,5.6617,5.6525,5.6525,5.6376,5.5596,5.4277,5.4277,5.4277,0.0,0.0,0.0,0.0,4.8548,0.0,4.9212,0.0,5.0634,5.0634,0.0,0.0,0.0,0.0,0.0,0.0,0.0,0.0,4.9606,5.1028,5.2441,5.325,5.4107,5.4914,5.5626,5.5703,5.5703,5.5703,5.5703,5.5703,5.5703,5.5703,5.5703,5.5703,5.5703,5.5703,5.5703,5.5703,5.5703,5.5703,5.5703,5.5703,5.5684,5.5449,5.5314,5.5204,5.4604,5.4296,5.4212,5.3926,5.3813,5.3813,5.3813,5.3813,5.3813,5.3813,5.3813,5.3813,5.3813,5.3813,5.3813,5.3813,5.3813,5.3813,5.3813,5.3813,5.3813,5.3813,5.3813,5.3813,5.3813,5.3813,5.3813,5.3813,5.3813,5.3813,5.3813,5.3813,5.3813,5.3813,5.3813,5.3813,5.3813,5.3813,5.3813,5.3813,5.3813,5.3813,5.3813,5.4426,5.4909,5.5001,5.5689,5.6487,5.7286,5.736,5.7676,5.8382,5.8438,5.8438,5.8438,5.8438,5.8438,5.8438,5.7732,5.736,5.736,5.6655,5.6209,5.6023,5.6023,5.6023,0.0,0.0,0.0,0.0,0.0,0.0,4.9404,0.0,5.0712,0.0,0.0,0.0,0.0,0.0,0.0,0.0,5.0232,0.0,0.0,0.0,5.151,0.0,0.0,0.0,5.4914,0.0,0.0,5.5665,5.5703,5.5703,5.5703,5.5703,5.5703,5.5703,5.5703,5.5703,5.5703,5.5703,5.5703,5.5703,5.5703,5.5703,5.5703,5.5585,5.5437,5.5275,5.4806,5.4479,5.4281,5.3944,5.3813,5.3813,5.3813,5.3813,5.3813,5.3813,5.3813,5.3813,5.3813,5.3813,5.3813,5.3813,5.3813,5.3813,5.3813,5.3813,5.3813,5.3813,5.3813,5.3813,5.3813,5.3813,5.3813,5.3813,5.3813,5.3813,5.3813,5.3813,5.3813,5.3813,5.3813,5.3813,5.3813,5.3813,5.3813,5.3813,5.3813,5.398,5.4444,5.4797,5.5373,5.6357,5.6785,5.7323,5.8141,5.8215,5.8345,5.8679,5.8716,5.8716,5.8716,5.8716,5.8716,5.8716,5.8382,5.8215,5.8215,5.7862,5.7695,5.7676,5.6729,5.6302,4.8604,0.0,0.0,0.0,0.0,0.0,0.0,0.0,0.0,0.0,0.0,0.0,0.0,0.0,0.0,0.0,0.0,0.0,0.0,0.0,0.0,0.0,0.0,0.0,0.0,5.4357,5.4741,5.5318,5.5568,5.5703,5.5703,5.5703,5.5703,5.5703,5.5703,5.5703,5.5703,5.5703,5.5703,5.5703,5.5703,5.5703,5.5703,5.5703,5.5596,5.5389,5.4981,5.467,5.4397,5.3981,5.3813,5.3813,5.3813,5.3813,5.3813,5.3813,5.3813,5.3813,5.3813,5.3813,5.3813,5.3813,5.3813,5.3813,5.3813,5.3813,5.3813,5.3813,5.3813,5.3813,5.3813,5.3813,5.3813,5.3813,5.3813,5.3813,5.3813,5.3813,5.3813,5.3813,5.3813,5.3813,5.3813,5.3813,5.3813,5.3813,5.3813,5.4091,5.4909,5.5224,5.5912,5.736,5.7713,5.8085,5.8661,5.8716,5.8716,5.8716,5.8716,5.8716,5.8716,5.8716,5.8716,5.8716,5.8716,5.8716,5.8716,5.8716,5.8716,5.8679,5.7509,5.697,0.0,0.0,0.0,5.0653,0.0,0.0,0.0,0.0,5.0712,0.0,0.0,0.0,0.0,0.0,0.0,0.0,0.0,0.0,0.0,0.0,0.0,0.0,0.0,0.0,0.0,5.3991,5.4511,5.453,5.5261,5.5703,5.5703,5.5703,5.5703,5.5703,5.5703,5.5703,5.5703,5.5703,5.5703,5.5703,5.5703,5.5703,5.5703,5.5703,5.5703,5.5651,5.5064,5.4791,5.4731,5.4072,5.3813,5.3813,5.3813,5.3813,5.3813,5.3813,5.3813,5.3813,5.3813,5.3813,5.3813,5.3813,5.3813,5.3813,5.3813,5.3813,5.3813,5.3813,5.3813,5.3813,5.3813,5.3813,5.3813,5.3813,5.3813,5.3813,5.3813,5.3813,5.3813,5.3813,5.3813,5.3813,5.3813,5.3813,5.3813,5.3813,5.3813,5.4091,5.4909,5.5744,5.658,5.7416,5.8215,5.8679,5.8716,5.8716,5.8716,5.8716,5.8716,5.8716,5.8716,5.8716,5.8716,5.8716,5.8716,5.8716,5.8716,5.8716,5.8716,5.8716,5.8661,5.8624,0.0,0.0,5.0994,5.0874,0.0,0.0,0.0,0.0,0.0,0.0,0.0,0.0,0.0,0.0,0.0,0.0,0.0,0.0,0.0,0.0,0.0,0.0,0.0,0.0,0.0,0.0,0.0,5.4414,5.4741,5.5145,5.5665,5.5703,5.5703,5.5703,5.5703,5.5703,5.5703,5.5703,5.5703,5.5703,5.5703,5.5703,5.5703,5.5703,5.5703,5.5673,5.5295,5.5014,5.4761,5.4332,5.4,5.3813,5.3813,5.3813,5.3813,5.3813,5.3813,5.3813,5.3813,5.3813,5.3813,5.3813,5.3813,5.3813,5.3813,5.3813,5.3813,5.3813,5.3813,5.3813,5.3813,5.3813,5.3813,5.3813,5.3813,5.3813,5.3813,5.3813,5.3813,5.3813,5.3813,5.3813,5.3813,5.3813,5.3813,5.3813,5.4258,5.4909,5.5763,5.658,5.7398,5.8215,5.8549,5.8716,5.8716,5.8716,5.8716,5.8716,5.8716,5.8716,5.8716,5.8716,5.8716,5.8716,5.8716,5.8716,5.8716,5.8716,5.8716,5.8716,5.8716,5.8716,5.1152,5.1148,0.0,5.1,5.094,0.0,5.0795,0.0,5.0693,0.0,0.0,0.0,0.0,0.0,0.0,0.0,0.0,0.0,0.0,5.0712,0.0,0.0,0.0,0.0,0.0,0.0,5.2365,5.3491,5.4145,5.4722,0.0,0.0,5.5703,5.5703,5.5703,5.5703,5.5703,5.5703,5.5703,5.5703,5.5703,5.5703,5.5703,5.5703,5.5703,5.5692,5.5413,5.5178,5.4938,5.4495,5.4159,5.3963,5.3851,5.3813,5.3813,5.3813,5.3813,5.3813,5.3813,5.3813,5.3813,5.3813,5.3813,5.3813,5.3813,5.3813,5.3813,5.3813,5.3813,5.3813,5.3813,5.3813,5.3813,5.3813,5.3813,5.3813,5.3813,5.3813,5.3813,5.3813,5.3813,5.3813,5.3813,5.3813,5.3905,5.4184,5.4686,5.5429,5.658,5.7175,5.7806,5.8624,5.8716,5.8716,5.8716,5.8716,5.8716,5.8716,5.8716,5.8716,5.8716,5.8716,5.8716,5.8716,5.8716,5.8716,5.8716,5.8716,5.8716,5.8716,5.8716,5.8716]}]]